     2              OBSERVATION DATA    GPS                 RINEX VERSION / TYPE
ASHTORIN 03 - APR - 99 09:06                                PGM / RUN BY / DATE
                                                            COMMENT
Original Marker Name: COW3                                  COMMENT
Campaign Name: rose canyon fault                            COMMENT
4-Character Station Name: COW3                              COMMENT
6-Character Antenna Code: DMRCHT                            COMMENT
Vertical Measurement Point: BPA                             COMMENT
Vertical Offset to Rinex Ref. Point: 0.0000                 COMMENT
Radial Measurement Point: RRP                               COMMENT
Radial Offset to Rinex Ref. Point: 0.0000                   COMMENT
Antenna Height from Field Measurement: 0.8900 m             COMMENT
Additional Antenna Identification Info.:                    COMMENT
Turborogue and Ashtech Choke Ring                           COMMENT
Original XYZ: 0.0000 0.0000 0.0000                          COMMENT
New XYZ position is based on association with SCEC monument COMMENT
E1C8P6R3+0031. Position of that monument is believed to be  COMMENT
valid to within 1 m horizontally; vertical accuracy         COMMENT
should be no worse than 3-times this value.                 COMMENT
                                                            COMMENT
Revised Rinex header created by UCSD GPS archive for        COMMENT
GSAC on 26-May-1999 (1999:146) 23:01:09 GMT                 COMMENT
For assistance contact dagnew@ucsd.edu or hjohnson@ucsd.edu COMMENT
                                                            COMMENT
UCSD-SIO-IGPP COW3 1998                                     MARKER NAME
                                                            MARKER NUMBER
SJB SCRIPPS INSTITUTION OF OCEANOGRAPHY                     OBSERVER / AGENCY
312 ASHTECH Z12-XII3 1F501D0                                REC # / TYPE / VERS
404 DORNE-MARGOL. TYPE T                                    ANT # / TYPE
 -2438851.0000 -4779893.0000  3436765.0000                  APPROX POSITION XYZ
        0.8900        0.0000        0.0000                  ANTENNA: DELTA H/E/N
     1     1     0                                          WAVELENGTH FACT L1/2
     7    L1    L2    C1    P1    P2    D1    D2            # / TYPES OF OBSERV
    30                                                      INTERVAL
  1999     4     5    17     2    0.000000                  TIME OF FIRST OBS
  1999     4     5    23    58    0.000000                  TIME OF LAST OBS
                                                            END OF HEADER
 99  4  5 17  2  0.0000000  0  6  2 26 15  7 27 13                   0.000000000
   -140588.793 9    -91536.03948  21423760.935    21423760.4894   21423768.5574
        -0.000          -0.000
   -174773.905 9   -128446.59147  22837042.370    22837042.9644   22837051.6464
        -0.000          -0.000
    -75670.53919    -52234.71945         0.000           0.0005   23882929.5304
        -0.000          -0.000
   -216724.922 9   -146921.13049  20499700.590    20499700.1134   20499707.8904
        -0.000          -0.000
    -10875.488 9     -7870.73649  20892471.009    20892471.0834   20892479.3374
        -0.000          -0.000
    137723.770 9     95527.91746  23468775.170    23468774.7554   23468784.2984
        -0.000          -0.000
 99  4  5 17  2 30.0000000  3  2
COW3                                                        MARKER NAME
--> THIS IS THE START OF A NEW SITE <---                    COMMENT
 99  4  5 17  2 30.0000000  0  7  2 26 19 15  7 27 13                0.000694981
   -184612.049 9   -125839.91248  21415383.533    21415383.1094   21415391.2164
        -0.000          -0.000
   -240510.867 9   -179670.19847  22824532.990    22824533.5744   22824542.2924
        -0.000          -0.000
    173279.234 8    128116.84445  24630584.770    24630584.1914   24630600.9544
        -0.000          -0.000
   -104294.572 9    -74539.21945  23877470.396    23877470.1614   23877482.9924
        -0.000          -0.000
   -286824.282 9   -201544.01049  20486361.195    20486360.6684   20486368.4794
        -0.000          -0.000
    -14276.549 9    -10520.97949  20891824.066    20891823.9014   20891832.1664
        -0.000          -0.000
    183917.253 9    131522.67646  23477565.204    23477565.3694   23477574.8314
        -0.000          -0.000
 99  4  5 17  3  0.0010000  0  7  2 26 19 15  7 27 13                0.000999995
  -1270945.931 9   -972333.87548  21508453.503    21508453.0884   21508461.2584
        -0.000          -0.000
  -1348143.489 9  -1042760.54747  22913550.002    22913550.4994   22913559.1554
        -0.000          -0.000
   -821552.693 8   -647077.20845  24741066.754    24741067.1464   24741082.9764
        -0.000          -0.000
  -1174780.917 9   -908684.70045  23973555.973    23973555.8424   23973568.7994
        -0.000          -0.000
  -1398887.049 9  -1068086.42549  20574535.043    20574534.5864   20574542.4404
        -0.000          -0.000
  -1059663.326 9   -825108.14949  20992686.089    20992685.9164   20992694.1614
        -0.000          -0.000
   -812204.694 9   -644676.41346  23587802.049    23587802.2144   23587811.6704
        -0.000          -0.000
 99  4  5 17  3 30.0010000  0  7  2 26 19 15  7 27 13                0.000999967
  -1262337.915 9   -965626.36348  21510091.516    21510091.1144   21510099.3134
        -0.000          -0.000
  -1360427.029 9  -1052332.12447  22911212.705    22911213.0874   22911221.7194
        -0.000          -0.000
   -721394.299 8   -569032.03445  24760126.384    24760126.6614   24760142.7284
        -0.000          -0.000
  -1149872.129 9   -889275.35745  23978296.229    23978295.9814   23978308.8274
        -0.000          -0.000
  -1415655.927 9  -1081153.07649  20571344.053    20571343.5954   20571351.4744
        -0.000          -0.000
  -1009779.988 9   -786238.08649  21002178.703    21002178.4844   21002186.6854
        -0.000          -0.000
   -713380.922 9   -567671.03246  23606607.528    23606607.7554   23606617.2914
        -0.000          -0.000
 99  4  5 17  4  0.0010000  0  7  2 26 19 15  7 27 13                0.000999958
  -1253594.552 9   -958813.38248  21511755.374    21511754.9824   21511763.1794
        -0.000          -0.000
  -1372166.506 9  -1061479.75947  22908978.882    22908979.2044   22908987.8664
        -0.000          -0.000
   -621045.137 8   -490838.21845  24779222.427    24779222.5814   24779238.6084
        -0.000          -0.000
  -1124378.140 9   -869410.01346  23983147.679    23983147.2524   23983160.2174
        -0.000          -0.000
  -1431942.107 9  -1093843.59849  20568244.937    20568244.4714   20568252.3484
        -0.000          -0.000
   -959414.486 9   -746992.31249  21011763.016    21011762.8294   21011771.0104
        -0.000          -0.000
   -614422.262 9   -490560.54646  23625438.783    23625439.0684   23625448.6394
        -0.000          -0.000
 99  4  5 17  4 30.0010000  0  7  2 26 19 15  7 27 13                0.000999953
  -1244729.896 9   -951905.89048  21513442.293    21513441.8844   21513450.1024
        -0.000          -0.000
  -1383371.971 9  -1070211.28347  22906846.612    22906846.9094   22906855.5904
        -0.000          -0.000
   -520515.810 8   -412503.99945  24798352.725    24798352.7184   24798368.9124
        -0.000          -0.000
  -1098305.221 9   -849093.55945  23988109.156    23988108.8374   23988121.6964
        -0.000          -0.000
  -1447750.408 9  -1106161.74649  20565236.733    20565236.2834   20565244.1474
        -0.000          -0.000
   -908557.267 9   -707363.38749  21021440.868    21021440.7094   21021448.8474
        -0.000          -0.000
   -515359.155 9   -413368.67746  23644289.864    23644290.2284   23644299.7924
        -0.000          -0.000
 99  4  5 17  5  0.0010000  0  7  2 26 19 15  7 27 13                0.000999962
  -1235727.265 9   -944890.89448  21515155.493    21515155.0684   21515163.3224
        -0.000          -0.000
  -1394027.063 9  -1078513.94747  22904819.046    22904819.2944   22904828.0054
        -0.000          -0.000
   -419799.794 8   -334024.34145  24817518.658    24817518.5194   24817534.7944
        -0.000          -0.000
  -1071643.558 9   -828318.34345  23993182.730    23993182.4654   23993195.2014
        -0.000          -0.000
  -1463081.778 9  -1118108.25549  20562319.359    20562318.8934   20562326.7754
        -0.000          -0.000
   -857190.902 9   -667337.72349  21031215.657    21031215.5024   21031223.6264
        -0.000          -0.000
   -416182.709 9   -336088.49946  23663162.581    23663162.9534   23663172.5324
        -0.000          -0.000
 99  4  5 17  5 30.0010000  0  7  2 26 19 15  7 27 13                0.000999973
  -1226600.954 9   -937779.51548  21516892.203    21516891.7964   21516900.0364
        -0.000          -0.000
  -1404149.326 9  -1086401.43147  22902892.785    22902893.0874   22902901.8014
        -0.000          -0.000
   -318918.719 8   -255416.04445  24836716.010    24836715.8794   24836732.1134
        -0.000          -0.000
  -1044404.694 9   -807093.36246  23998366.256    23998365.8474   23998378.7074
        -0.000          -0.000
  -1477955.147 9  -1129697.88349  20559489.048    20559488.5924   20559496.4974
        -0.000          -0.000
   -805306.777 9   -626908.61849  21041088.906    21041088.7574   21041096.9274
        -0.000          -0.000
   -316894.724 9   -258721.39946  23682056.620    23682056.9834   23682066.5284
        -0.000          -0.000
 99  4  5 17  6  0.0010000  0  7  2 26 19 15  7 27 13                0.000999982
  -1217346.219 9   -930568.06648  21518653.414    21518653.0064   21518661.2074
        -0.000          -0.000
  -1413737.012 9  -1093872.35047  22901068.218    22901068.5314   22901077.3124
        -0.000          -0.000
   -217865.086 8   -176673.29545  24855946.167    24855946.0264   24855962.4274
        -0.000          -0.000
  -1016595.902 9   -785424.28746  24003658.154    24003657.5944   24003670.7274
        -0.000          -0.000
  -1492370.104 9  -1140930.30549  20556745.955    20556745.5114   20556753.4024
        -0.000          -0.000
   -752902.478 9   -586074.18248  21051061.198    21051061.0544   21051069.2654
        -0.000          -0.000
   -217519.494 9   -181286.33346  23700967.300    23700967.5814   23700977.1964
        -0.000          -0.000
 99  4  5 17  6 30.0010000  0  7  2 26 19 15  7 27 13                0.000999995
  -1207950.996 9   -923247.14548  21520441.320    21520440.9194   21520449.1054
        -0.000          -0.000
  -1422773.836 9  -1100914.03547  22899348.505    22899348.8414   22899357.6384
        -0.000          -0.000
   -116638.457 8    -97795.75445  24875209.196    24875209.0304   24875225.5594
        -0.000          -0.000
   -988214.361 9   -763308.92145  24009059.006    24009058.4444   24009071.7444
        -0.000          -0.000
  -1506315.995 9  -1151797.21249  20554092.188    20554091.7284   20554099.6124
        -0.000          -0.000
   -699983.282 9   -544838.52948  21061131.460    21061131.3324   21061139.5644
        -0.000          -0.000
   -118054.663 9   -103781.43646  23719894.970    23719895.2874   23719904.8464
        -0.000          -0.000
 99  4  5 17  7  0.0010000  0  7  2 26 19 15  7 27 13                0.001000001
  -1198431.235 9   -915829.18448  21522252.965    21522252.5544   21522260.7054
        -0.000          -0.000
  -1431275.015 9  -1107538.33447  22897730.766    22897731.1204   22897739.8984
        -0.000          -0.000
    -15267.453 8    -18805.73045  24894499.685    24894499.5354   24894516.1964
        -0.000          -0.000
   -959279.870 9   -740762.65545  24014565.111    24014564.5624   24014577.8724
        -0.000          -0.000
  -1519796.114 9  -1162301.18749  20551527.011    20551526.5244   20551534.4104
        -0.000          -0.000
   -646573.610 9   -503220.68848  21071295.028    21071294.9064   21071303.1934
        -0.000          -0.000
    -18502.157 9    -26208.22846  23738839.308    23738839.6224   23738849.2974
        -0.000          -0.000
 99  4  5 17  7 30.0010000  0  6  2 26 15  7 27 13                   0.000999975
  -1188768.890 9   -908300.11948  21524091.658    21524091.2624   21524099.3914
        -0.000          -0.000
  -1439215.172 9  -1113725.47747  22896219.959    22896220.2574   22896228.9174
        -0.000          -0.000
   -929771.386 9   -717769.12045  24020180.441    24020179.9654   24020193.2804
        -0.000          -0.000
  -1532762.857 9  -1172405.12449  20549059.496    20549059.0424   20549066.9294
        -0.000          -0.000
   -592667.338 9   -461215.87348  21081553.088    21081552.9844   21081561.3334
        -0.000          -0.000
     81148.997 9     51441.85346  23757802.405    23757802.7254   23757812.5554
        -0.000          -0.000
 99  4  5 17  8  0.0010000  0  6  2 26 15  7 27 13                   0.000999984
  -1178955.482 9   -900653.34648  21525959.160    21525958.7494   21525966.8474
        -0.000          -0.000
  -1446578.667 9  -1119463.28247  22894818.817    22894819.0964   22894827.6514
        -0.000          -0.000
   -899687.809 9   -694327.48045  24025905.224    24025904.8024   24025918.0954
        -0.000          -0.000
  -1545218.819 9  -1182111.05249  20546689.184    20546688.7234   20546696.6294
        -0.000          -0.000
   -538279.436 9   -418835.76748  21091902.859    21091902.7494   21091911.0964
        -0.000          -0.000
    180885.361 9    129158.32746  23776781.654    23776782.0664   23776791.9754
        -0.000          -0.000
 99  4  5 17  8 30.0010000  0  6  2 26 15  7 27 13                   0.000999992
  -1169013.208 9   -892906.16248  21527851.228    21527850.7894   21527858.8394
        -0.000          -0.000
  -1453400.067 9  -1124778.67847  22893520.722    22893521.0354   22893529.6234
        -0.000          -0.000
   -869045.641 9   -670450.56545  24031736.368    24031735.9454   24031749.2464
        -0.000          -0.000
  -1557184.019 9  -1191434.57249  20544412.283    20544411.8404   20544419.7024
        -0.000          -0.000
   -483435.283 9   -376100.13948  21102339.407    21102339.2844   21102347.7084
        -0.000          -0.000
    280706.744 9    206941.04646  23795777.093    23795777.5254   23795787.5004
        -0.000          -0.000
 99  4  5 17  9  0.0010000  0  6  2 26 15  7 27 13                   0.001000003
  -1158933.856 9   -885052.16248  21529769.312    21529768.8814   21529776.9254
        -0.000          -0.000
  -1459693.561 9  -1129682.71547  22892323.025    22892323.3554   22892332.0184
        -0.000          -0.000
   -837825.470 9   -646123.25545  24037677.522    24037677.0624   24037690.1784
        -0.000          -0.000
  -1568638.459 9  -1200360.09949  20542232.620    20542232.1594   20542239.9914
        -0.000          -0.000
   -428104.769 9   -332985.53748  21112868.505    21112868.3954   21112876.8794
        -0.000          -0.000
    380632.355 9    284804.97646  23814792.454    23814792.8824   23814802.8774
        -0.000          -0.000
 99  4  5 17  9 30.0010000  0  6  2 26 15  7 27 13                   0.001000023
  -1148710.042 9   -877085.60348  21531714.895    21531714.4544   21531722.5224
        -0.000          -0.000
  -1465457.299 9  -1134173.96747  22891226.244    22891226.5834   22891235.2714
        -0.000          -0.000
   -806022.629 9   -621341.91545  24043729.527    24043729.0234   24043742.1384
        -0.000          -0.000
  -1579608.550 9  -1208908.21449  20540145.115    20540144.6744   20540152.4994
        -0.000          -0.000
   -372282.436 9   -289487.69848  21123491.288    21123491.1614   21123499.6224
        -0.000          -0.000
    480653.227 9    362743.14646  23833825.938    23833826.3654   23833836.3854
        -0.000          -0.000
 99  4  5 17 10  0.0010000  0  6  2 26 15  7 27 13                   0.001000054
  -1138355.208 9   -869016.94348  21533685.364    21533684.9104   21533693.0404
        -0.000          -0.000
  -1470711.046 9  -1138267.81347  22890226.494    22890226.8364   22890235.6044
        -0.000          -0.000
   -773649.554 9   -596116.23445  24049890.067    24049889.5984   24049902.5924
        -0.000          -0.000
  -1590141.336 9  -1217115.57549  20538140.816    20538140.3614   20538148.1814
        -0.000          -0.000
   -315974.167 9   -245611.20148  21134206.446    21134206.3234   21134214.8414
        -0.000          -0.000
    580766.679 9    440753.44446  23852876.990    23852877.4364   23852887.5724
        -0.000          -0.000
 99  4  5 17 10 30.0010000  0  7  2 26 15  7 27  4 13                0.001000096
  -1127906.070 9   -860874.80748  21535673.781    21535673.3634   21535681.4884
        -0.000          -0.000
  -1475484.173 9  -1141987.15947  22889318.281    22889318.6054   22889327.3364
        -0.000          -0.000
   -740728.392 9   -570463.68845  24056154.890    24056154.4504   24056167.3024
        -0.000          -0.000
  -1600261.764 9  -1225001.61949  20536214.961    20536214.5244   20536222.2984
        -0.000          -0.000
   -259198.071 9   -201370.15848  21145010.657    21145010.5534   21145019.1224
        -0.000          -0.000
  -1695693.373 8  -1266563.30645  24686080.907    24686081.1124   24686095.9264
        -0.000          -0.000
    680955.375 9    518822.37946  23871942.341    23871942.8284   23871953.0914
        -0.000          -0.000
 99  4  5 17 11  0.0010000  0  7  2 26 15  7 27  4 13                0.001000130
  -1117385.198 9   -852676.77048  21537675.892    21537675.4574   21537683.5864
        -0.000          -0.000
  -1479763.680 9  -1145321.85947  22888503.985    22888504.2884   22888512.9164
        -0.000          -0.000
   -707272.000 9   -544393.80345  24062521.669    24062521.2134   24062534.0504
        -0.000          -0.000
  -1609985.964 9  -1232578.91849  20534364.558    20534364.0864   20534371.8714
        -0.000          -0.000
   -201969.688 9   -156776.68248  21155900.968    21155900.8644   21155909.4114
        -0.000          -0.000
  -1798337.074 8  -1346545.24045  24666548.428    24666548.8034   24666563.2154
        -0.000          -0.000
    781183.169 9    596921.76746  23891015.127    23891015.6134   23891025.9394
        -0.000          -0.000
 99  4  5 17 11 30.0010000  0  7  2 26 15  7 27  4 13                0.001000158
  -1106775.408 9   -844409.44648  21539694.884    21539694.4404   21539702.5964
        -0.000          -0.000
  -1483520.140 9  -1148248.99147  22887789.194    22887789.5034   22887798.0794
        -0.000          -0.000
   -673285.510 9   -517910.86745  24068989.154    24068988.7654   24069001.6494
        -0.000          -0.000
  -1619316.275 9  -1239849.29649  20532589.020    20532588.5954   20532596.3664
        -0.000          -0.000
   -144312.894 9   -111849.37848  21166872.739    21166872.6394   21166881.2284
        -0.000          -0.000
  -1901099.969 8  -1426620.06045  24646993.236    24646993.5314   24647007.9164
        -0.000          -0.000
    881441.223 9    675044.74046  23910093.699    23910094.2364   23910104.7094
        -0.000          -0.000
 99  4  5 17 12  0.0010000  0  7  2 26 15  7 27  4 13                0.001000178
  -1096077.947 9   -836073.81148  21541730.577    21541730.1604   21541738.3404
        -0.000          -0.000
  -1486752.975 9  -1150768.10447  22887174.012    22887174.3294   22887183.0114
        -0.000          -0.000
   -638773.507 9   -491018.45745  24075556.636    24075556.3094   24075569.2654
        -0.000          -0.000
  -1628231.502 9  -1246796.23749  20530892.545    20530892.1094   20530899.8744
        -0.000          -0.000
    -86240.420 9    -66598.17448  21177923.611    21177923.5184   21177932.1624
        -0.000          -0.000
  -2003985.273 8  -1506790.26245  24627414.632    24627414.8664   24627429.5424
        -0.000          -0.000
    981726.836 9    753189.17846  23929177.584    23929178.1344   23929188.6664
        -0.000          -0.000
 99  4  5 17 12 30.0010000  0  7  2 26 15  7 27  4 13                0.001000188
  -1085271.764 9   -827653.46248  21543787.022    21543786.5874   21543794.8064
        -0.000          -0.000
  -1489458.487 9  -1152876.31647  22886659.188    22886659.5154   22886668.2274
        -0.000          -0.000
   -603729.958 8   -463711.84445  24082225.290    24082224.9834   24082237.9154
        -0.000          -0.000
  -1636696.750 9  -1253392.54349  20529281.717    20529281.2644   20529289.0154
        -0.000          -0.000
    -27746.519 9    -21018.58848  21189054.754    21189054.6534   21189063.2864
        -0.000          -0.000
  -2106974.303 8  -1587041.27345  24607816.157    24607816.5744   24607831.3264
        -0.000          -0.000
   1082041.242 9    831356.06446  23948266.955    23948267.4794   23948278.0534
        -0.000          -0.000
 99  4  5 17 13  0.0010000  0  7  2 26 15  7 27  4 13                0.001000196
  -1074324.850 9   -819123.44948  21545870.207    21545869.7844   21545878.0054
        -0.000          -0.000
  -1491623.802 9  -1154563.59147  22886247.236    22886247.5614   22886256.2834
        -0.000          -0.000
   -568148.202 9   -435985.82945  24088996.315    24088995.9054   24089009.0194
        -0.000          -0.000
  -1644702.347 9  -1259630.68549  20527758.292    20527757.8294   20527765.6154
        -0.000          -0.000
     31175.077 9     24894.27348  21200267.228    21200267.1104   21200275.7324
        -0.000          -0.000
  -2210054.008 8  -1667362.94845  24588200.495    24588200.9724   24588215.7234
        -0.000          -0.000
   1182396.176 9    909554.53146  23967364.116    23967364.4894   23967375.2544
        -0.000          -0.000
 99  4  5 17 13 30.0010000  0  7  2 26 15  7 27  4 13                0.001000192
  -1063239.025 9   -810485.19048  21547979.873    21547979.4444   21547987.6484
        -0.000          -0.000
  -1493273.089 9  -1155848.77847  22885933.443    22885933.7774   22885942.4244
        -0.000          -0.000
   -532037.610 8   -407847.73645  24095867.953    24095867.5484   24095880.7694
        -0.000          -0.000
  -1652266.485 9  -1265524.83349  20526318.886    20526318.4354   20526326.2354
        -0.000          -0.000
     90511.591 9     71130.44748  21211558.643    21211558.5334   21211567.1544
        -0.000          -0.000
  -2313240.917 8  -1747768.13445  24568564.594    24568565.0764   24568579.7004
        -0.000          -0.000
   1282795.660 9    987787.70346  23986469.682    23986470.1124   23986480.8004
        -0.000          -0.000
 99  4  5 17 14  0.0010000  0  7  2 26 15  7 27  4 13                0.001000177
  -1052035.465 9   -801755.19948  21550111.929    21550111.4984   21550119.7154
        -0.000          -0.000
  -1494425.986 9  -1156747.16847  22885714.071    22885714.3904   22885723.0924
        -0.000          -0.000
   -495393.140 9   -379293.63145  24102841.211    24102840.7304   24102854.1944
        -0.000          -0.000
  -1659396.593 9  -1271080.77949  20524962.105    20524961.6654   20524969.4694
        -0.000          -0.000
    150282.575 9    117705.17448  21222932.734    21222932.6294   21222941.2594
        -0.000          -0.000
  -2416524.709 8  -1828248.84645  24548910.257    24548910.7234   24548925.3704
        -0.000          -0.000
   1383245.809 9   1066060.35446  24005584.831    24005585.2594   24005595.9824
        -0.000          -0.000
 99  4  5 17 14 30.0010000  0  7  2 26 15  7 27  4 13                0.001000156
  -1040698.388 9   -792921.16848  21552269.375    21552268.9354   21552277.1294
        -0.000          -0.000
  -1495071.400 9  -1157250.11447  22885591.220    22885591.5544   22885600.3364
        -0.000          -0.000
   -458195.093 9   -350308.15445  24109919.798    24109919.3704   24109932.7674
        -0.000          -0.000
  -1666079.483 9  -1276288.24649  20523690.443    20523689.9954   20523697.8004
        -0.000          -0.000
    210526.252 9    164648.22648  21234396.784    21234396.6934   21234405.3324
        -0.000          -0.000
  -2519894.931 8  -1908796.90045  24529239.428    24529240.0214   24529254.6794
        -0.000          -0.000
   1483760.702 9   1144383.46146  24024712.212    24024712.7574   24024723.5684
        -0.000          -0.000
 99  4  5 17 15  0.0010000  0  7  2 26 15  7 27  4 13                0.001000126
  -1029251.569 9   -784001.62248  21554447.678    21554447.2374   21554455.4324
        -0.000          -0.000
  -1495213.632 9  -1157360.97847  22885564.244    22885564.5434   22885573.3304
        -0.000          -0.000
   -420454.357 9   -320899.81245  24117101.714    24117101.2484   24117114.6474
        -0.000          -0.000
  -1672333.226 9  -1281161.31049  20522500.450    20522500.0094   20522507.7924
        -0.000          -0.000
    271228.046 9    211948.25348  21245948.030    21245947.9464   21245956.5804
        -0.000          -0.000
  -2623363.141 8  -1989421.32045  24509549.816    24509550.4914   24509565.1264
        -0.000          -0.000
   1584323.539 9   1222743.92746  24043848.823    24043849.3094   24043860.2584
        -0.000          -0.000
 99  4  5 17 15 30.0010000  0  7  2 26 15  7 27  4 13                0.001000094
  -1017685.514 9   -774989.16648  21556648.657    21556648.2234   21556656.4204
        -0.000          -0.000
  -1494845.610 9  -1157074.23947  22885634.272    22885634.5954   22885643.3674
        -0.000          -0.000
   -382152.235 9   -291054.02345  24124390.406    24124389.9224   24124403.2834
        -0.000          -0.000
  -1678128.418 9  -1285677.06249  20521397.708    20521397.2624   20521405.0484
        -0.000          -0.000
    332409.441 9    259621.99048  21257590.529    21257590.4364   21257599.0354
        -0.000          -0.000
  -2726894.868 8  -2070095.23645  24489848.248    24489848.7824   24489863.3574
        -0.000          -0.000
   1684934.670 9   1301142.02246  24062994.675    24062995.1344   24063006.0564
        -0.000          -0.000
 99  4  5 17 16  0.0010000  0  7  2 26 15  7 27  4 13                0.001000063
  -1005987.495 9   -765873.87448  21558874.784    21558874.3524   21558882.5354
        -0.000          -0.000
  -1493959.386 9  -1156383.70747  22885803.020    22885803.3284   22885812.0294
        -0.000          -0.000
   -343280.334 9   -260764.25145  24131787.553    24131787.0814   24131800.3424
        -0.000          -0.000
  -1683438.073 9  -1289814.46549  20520387.324    20520386.8724   20520394.6824
        -0.000          -0.000
    394091.758 9    307686.05748  21269328.369    21269328.2904   21269336.8834
        -0.000          -0.000
  -2830458.334 8  -2150793.89945  24470140.650    24470141.1234   24470155.6644
        -0.000          -0.000
   1785589.160 9   1379573.89446  24082148.843    24082149.2754   24082160.1654
        -0.000          -0.000
 99  4  5 17 16 30.0010000  0  7  2 26 15  7 27  4 13                0.001000041
   -994127.360 9   -756632.26748  21561131.738    21561131.3094   21561139.5114
        -0.000          -0.000
  -1492529.756 9  -1155269.75447  22886075.060    22886075.3504   22886084.0134
        -0.000          -0.000
   -303831.086 8   -230024.60645  24139294.495    24139294.1244   24139307.3864
        -0.000          -0.000
  -1688241.707 9  -1293557.57349  20519473.230    20519472.7854   20519480.5794
        -0.000          -0.000
    456276.865 9    356141.90348  21281161.899    21281161.8084   21281170.4324
        -0.000          -0.000
  -2934035.203 8  -2231503.01245  24450430.548    24450431.0984   24450445.4594
        -0.000          -0.000
   1886286.275 9   1458038.98546  24101311.094    24101311.5194   24101322.4564
        -0.000          -0.000
 99  4  5 17 17  0.0010000  0  7  2 26 15  7 27  4 13                0.001000026
   -982129.665 9   -747283.46748  21563414.881    21563414.4494   21563422.7134
        -0.000          -0.000
  -1490571.276 9  -1153743.69447  22886447.853    22886448.1414   22886456.7344
        -0.000          -0.000
   -263826.098 8   -198851.92745  24146907.149    24146906.8144   24146920.0134
        -0.000          -0.000
  -1692565.542 9  -1296926.80549  20518650.468    20518650.0244   20518657.7974
        -0.000          -0.000
    518929.746 9    404962.24648  21293084.436    21293084.3344   21293093.0014
        -0.000          -0.000
  -3037615.683 8  -2312214.95645  24430719.815    24430720.3454   24430734.6994
        -0.000          -0.000
   1987003.989 9   1536520.13346  24120477.247    24120477.5814   24120488.5984
        -0.000          -0.000
 99  4  5 17 17 30.0010000  0  7  2 26 15  7 27  4 13                0.001000015
   -969997.402 9   -737829.81448  21565723.625    21565723.1804   21565731.4864
        -0.000          -0.000
  -1488088.988 9  -1151809.47147  22886920.241    22886920.5054   22886929.1494
        -0.000          -0.000
   -223264.543 9   -167245.55245  24154625.776    24154625.3704   24154638.6304
        -0.000          -0.000
  -1696422.817 9  -1299932.48749  20517916.493    20517916.0424   20517923.8264
        -0.000          -0.000
    582065.187 9    454158.60148  21305098.738    21305098.6274   21305107.3884
        -0.000          -0.000
  -3141197.411 8  -2392927.88445  24411008.728    24411009.1704   24411023.4714
        -0.000          -0.000
   2087737.676 9   1615013.72846  24139646.405    24139646.7804   24139657.7504
        -0.000          -0.000
 99  4  5 17 18  0.0010000  0  7  2 26 15  7 27  4 13                0.001000009
   -957736.047 9   -728275.56448  21568056.943    21568056.4954   21568064.8004
        -0.000          -0.000
  -1485077.083 9  -1149462.55947  22887493.323    22887493.6384   22887502.2734
        -0.000          -0.000
   -182150.484 9   -135208.65545  24162449.550    24162449.1654   24162462.3664
        -0.000          -0.000
  -1699824.706 9  -1302583.32049  20517269.156    20517268.7004   20517276.4894
        -0.000          -0.000
    645682.914 9    503730.76848  21317204.833    21317204.7364   21317213.5534
        -0.000          -0.000
  -3244799.058 9  -2473656.35745  24391293.966    24391294.5594   24391308.5414
        -0.000          -0.000
   2188493.899 9   1693524.86946  24158819.843    24158820.2564   24158831.2094
        -0.000          -0.000
 99  4  5 17 18 30.0010000  0  7  2 26 15  7 27  4 13                0.001000005
   -945342.725 9   -718618.48748  21570415.351    21570414.9124   21570423.2064
        -0.000          -0.000
  -1481541.464 9  -1146707.56647  22888166.126    22888166.4524   22888175.0894
        -0.000          -0.000
   -140491.970 8   -102747.50045  24170376.886    24170376.2684   24170389.7204
        -0.000          -0.000
  -1702792.564 9  -1304895.94849  20516704.403    20516703.9514   20516711.7454
        -0.000          -0.000
    709770.534 9    553669.07748  21329400.412    21329400.2834   21329409.1284
        -0.000          -0.000
  -3348442.690 9  -2554417.53545  24371571.193    24371571.5424   24371585.5744
        -0.000          -0.000
   2289269.649 9   1772051.24146  24177996.992    24177997.4494   24178008.3574
        -0.000          -0.000
 99  4  5 17 19  0.0010000  0  7  2 26 15  7 27  4 13                0.000999996
   -932833.775 9   -708871.30648  21572795.769    21572795.3254   21572803.6644
        -0.000          -0.000
  -1477496.207 9  -1143555.44747  22888935.929    22888936.2694   22888944.9574
        -0.000          -0.000
    -98297.912 8    -69869.04145  24178406.132    24178405.4394   24178419.0674
        -0.000          -0.000
  -1705339.495 9  -1306880.57949  20516219.761    20516219.3074   20516227.1134
        -0.000          -0.000
    774326.647 9    603972.44648  21341685.070    21341684.9494   21341693.8184
        -0.000          -0.000
  -3452137.605 8  -2635218.69845  24351838.692    24351839.0724   24351852.9264
        -0.000          -0.000
   2390065.066 9   1850592.92446  24197177.870    24197178.2614   24197189.3054
        -0.000          -0.000
 99  4  5 17 19 30.0010000  0  7  2 26 15  7 27  4 13                0.000999997
   -920164.619 9   -698999.29648  21575206.659    21575206.2354   21575214.5674
        -0.000          -0.000
  -1472913.746 9  -1139984.73747  22889808.009    22889808.3654   22889817.0844
        -0.000          -0.000
    -55542.493 8    -36553.17345  24186542.231    24186541.5664   24186555.1854
        -0.000          -0.000
  -1707429.064 9  -1308508.82949  20515822.119    20515821.6524   20515829.4874
        -0.000          -0.000
    839369.891 9    654655.38848  21354062.481    21354062.3704   21354071.2414
        -0.000          -0.000
  -3555878.922 8  -2716056.01045  24332097.358    24332097.6604   24332111.3454
        -0.000          -0.000
   2490915.084 9   1929177.15946  24216369.142    24216369.6064   24216380.6754
        -0.000          -0.000
 99  4  5 17 20  0.0010000  0  7  2 26 15  7 27  4 13                0.000999987
   -907358.091 9   -689020.23348  21577643.722    21577643.2884   21577651.6004
        -0.000          -0.000
  -1467822.617 9  -1136017.65047  22890776.891    22890777.2454   22890785.9504
        -0.000          -0.000
    -12262.135 8     -2828.25145  24194778.201    24194777.6044   24194791.2894
        -0.000          -0.000
  -1709079.495 9  -1309794.89049  20515508.030    20515507.5804   20515515.4004
        -0.000          -0.000
    904852.355 9    705680.58348  21366523.487    21366523.3734   21366532.2694
        -0.000          -0.000
  -3659695.720 8  -2796952.16045  24312341.568    24312341.8964   24312355.6784
        -0.000          -0.000
   2591788.807 9   2007779.86046  24235564.907    24235565.3864   24235576.4604
        -0.000          -0.000
 99  4  5 17 20 30.0010000  0  8  9  2 26 15  7 27  4 13             0.001000005
  -4807956.675 8  -3701535.01645  24826505.325    24826505.3584   24826515.7814
        -0.000          -0.000
   -894453.891 9   -678965.06948  21580099.325    21580098.9084   21580107.2414
        -0.000          -0.000
  -1462253.258 9  -1131677.92547  22891836.811    22891837.1114   22891845.8174
        -0.000          -0.000
     31508.385 8     31278.61345  24203107.491    24203106.8184   24203120.7594
        -0.000          -0.000
  -1710329.498 9  -1310768.93349  20515270.168    20515269.7344   20515277.5534
        -0.000          -0.000
    970731.529 9    757014.89848  21379059.978    21379059.8654   21379068.7774
        -0.000          -0.000
  -3763608.018 8  -2877922.72645  24292567.624    24292567.9064   24292581.9184
        -0.000          -0.000
   2692648.121 9   2086371.33746  24254758.060    24254758.4504   24254769.5844
        -0.000          -0.000
 99  4  5 17 21  0.0010000  0  8  9  2 26 15  7 27  4 13             0.000999994
  -4907451.467 8  -3779063.42845  24807572.040    24807572.0354   24807582.4074
        -0.000          -0.000
   -881421.677 9   -668810.14948  21582579.335    21582578.9214   21582587.2494
        -0.000          -0.000
  -1456150.171 9  -1126922.29747  22892998.219    22892998.5474   22893007.2944
        -0.000          -0.000
     75816.070 8     65804.06845  24211539.010    24211538.3204   24211552.1674
        -0.000          -0.000
  -1711132.278 9  -1311394.49149  20515117.461    20515117.0104   20515124.8394
        -0.000          -0.000
   1037051.928 9    808693.02448  21391680.370    21391680.2684   21391689.2304
        -0.000          -0.000
  -3867554.797 8  -2958920.17645  24272787.149    24272787.4194   24272801.4184
        -0.000          -0.000
   2793531.690 9   2164981.70946  24273955.808    24273956.1994   24273967.3144
        -0.000          -0.000
 99  4  5 17 21 30.0010000  0  8  9  2 26 15  7 27  4 13             0.000999986
  -5006898.289 8  -3856554.44545  24788647.829    24788647.8174   24788658.3204
        -0.000          -0.000
   -868251.557 9   -658547.77448  21585085.609    21585085.1964   21585093.5394
        -0.000          -0.000
  -1449505.843 9  -1121744.92847  22894262.649    22894262.9514   22894271.7744
        -0.000          -0.000
    120671.283 8    100756.15845  24220074.681    24220074.2114   24220087.9144
        -0.000          -0.000
  -1711479.359 9  -1311664.96149  20515051.476    20515051.0364   20515058.8644
        -0.000          -0.000
   1103822.399 9    860721.86248  21404386.474    21404386.3814   21404395.3484
        -0.000          -0.000
  -3971520.839 8  -3039932.64145  24253003.062    24253003.3354   24253017.1294
        -0.000          -0.000
   2894429.132 9   2243602.87746  24293156.158    24293156.4684   24293167.6224
        -0.000          -0.000
 99  4  5 17 22  0.0010000  0  8  9  2 26 15  7 27  4 13             0.000999986
  -5106290.170 8  -3934002.64145  24769734.125    24769734.0804   24769744.7204
        -0.000          -0.000
   -854962.525 9   -648192.73148  21587614.454    21587614.0364   21587622.4364
        -0.000          -0.000
  -1442321.341 9  -1116146.65447  22895629.844    22895630.1354   22895639.0274
        -0.000          -0.000
    166072.321 8    136133.57345  24228714.335    24228713.8604   24228727.3944
        -0.000          -0.000
  -1711385.662 9  -1311591.96849  20515069.379    20515068.9234   20515076.7494
        -0.000          -0.000
   1171054.090 9    913110.08848  21417180.325    21417180.2154   21417189.1924
        -0.000          -0.000
  -4075489.684 9  -3120947.26945  24233218.524    24233218.8524   24233232.4494
        -0.000          -0.000
   2995322.143 9   2322220.62146  24312355.613    24312355.9964   24312367.1144
        -0.000          -0.000
 99  4  5 17 22 30.0010000  0  8  9  2 26 15  7 27  4 13             0.000999980
  -5205650.668 8  -4011426.38645  24750826.320    24750826.3004   24750837.1264
        -0.000          -0.000
   -841584.000 9   -637767.96348  21590160.343    21590159.9234   21590168.3494
        -0.000          -0.000
  -1434625.903 9  -1110150.24147  22897094.342    22897094.6024   22897103.4804
        -0.000          -0.000
    211991.503 9    171914.72645  24237452.613    24237452.0714   24237465.5664
        -0.000          -0.000
  -1710888.910 9  -1311204.90949  20515163.911    20515163.4684   20515171.2564
        -0.000          -0.000
   1238715.114 9    965832.85548  21430055.873    21430055.7714   21430064.7624
        -0.000          -0.000
  -4179481.323 9  -3201979.66945  24213429.524    24213429.8414   24213443.5254
        -0.000          -0.000
   3096187.112 9   2400816.50146  24331549.693    24331550.1184   24331561.2694
        -0.000          -0.000
 99  4  5 17 23  0.0010000  0  8  9  2 26 15  7 27  4 13             0.000999978
  -5304952.050 8  -4088804.07145  24731929.776    24731929.7724   24731940.8204
        -0.000          -0.000
   -828079.728 9   -627245.20648  21592730.136    21592729.7244   21592738.1564
        -0.000          -0.000
  -1426415.093 9  -1103752.24447  22898656.823    22898657.0894   22898665.9914
        -0.000          -0.000
    258442.777 9    208110.53545  24246292.065    24246291.6414   24246305.0234
        -0.000          -0.000
  -1709970.727 9  -1310489.46049  20515338.675    20515338.2274   20515346.0324
        -0.000          -0.000
   1306820.878 9   1018902.17348  21443016.122    21443015.9994   21443025.0074
        -0.000          -0.000
  -4283478.007 9  -3283015.99745  24193639.601    24193639.8824   24193653.5924
        -0.000          -0.000
   3197039.150 9   2479402.30246  24350741.309    24350741.7524   24350752.8664
        -0.000          -0.000
 99  4  5 17 23 30.0010000  0  8  9  2 26 15  7 27  4 13             0.000999978
  -5404192.732 8  -4166134.44445  24713044.771    24713044.7054   24713055.9354
        -0.000          -0.000
   -814447.934 9   -616623.08148  21595324.212    21595323.7884   21595332.2134
        -0.000          -0.000
  -1417699.886 9  -1096961.20347  22900315.304    22900315.5614   22900324.4734
        -0.000          -0.000
    305418.820 9    244715.24745  24255231.336    24255230.8834   24255244.2834
        -0.000          -0.000
  -1708633.512 9  -1309447.49549  20515593.168    20515592.7214   20515600.5484
        -0.000          -0.000
   1375356.870 9   1072306.73348  21456058.179    21456058.0604   21456067.0684
        -0.000          -0.000
  -4387486.496 9  -3364061.52445  24173847.425    24173847.7034   24173861.5244
        -0.000          -0.000
   3297880.431 9   2557979.73146  24369930.931    24369931.3874   24369942.5784
        -0.000          -0.000
 99  4  5 17 24  0.0010000  0  8  9  2 26 15  7 27  4 13             0.000999974
  -5503391.884 8  -4243432.46345  24694167.748    24694167.7444   24694179.0824
        -0.000          -0.000
   -800691.583 9   -605903.89048  21597942.030    21597941.5964   21597949.9964
        -0.000          -0.000
  -1408488.474 9  -1089783.50747  22902068.158    22902068.4584   22902077.3514
        -0.000          -0.000
    352901.999 9    281715.15145  24264267.184    24264266.7484   24264280.0554
        -0.000          -0.000
  -1706897.245 9  -1308094.57649  20515923.598    20515923.1524   20515930.9994
        -0.000          -0.000
   1444301.434 9   1126029.66048  21469177.999    21469177.8774   21469186.9144
        -0.000          -0.000
  -4491519.719 9  -3445126.31246  24154050.572    24154050.8684   24154064.6704
        -0.000          -0.000
   3398719.718 9   2636555.59346  24389120.218    24389120.5734   24389131.8594
        -0.000          -0.000
 99  4  5 17 24 30.0010000  0  8  9  2 26 15  7 27  4 13             0.000999966
  -5602546.258 9  -4320695.60145  24675299.317    24675299.2864   24675310.6034
        -0.000          -0.000
   -786779.593 9   -595063.42648  21600589.444    21600589.0034   21600597.4224
        -0.000          -0.000
  -1398779.181 9  -1082217.85947  22903915.860    22903916.1584   22903925.0654
        -0.000          -0.000
    400900.276 8    319116.41045  24273400.999    24273400.5744   24273413.8514
        -0.000          -0.000
  -1704747.140 9  -1306419.18749  20516332.772    20516332.3194   20516340.1604
        -0.000          -0.000
   1513660.784 9   1180075.79248  21482376.731    21482376.6004   21482385.6684
        -0.000          -0.000
  -4595572.096 9  -3526205.99346  24134250.058    24134250.4064   24134264.1944
        -0.000          -0.000
   3499562.676 9   2715134.32046  24408310.241    24408310.5684   24408321.8874
        -0.000          -0.000
 99  4  5 17 25  0.0010000  0  8  9  2 26 15  7 27  4 13             0.000999953
  -5701648.920 9  -4397918.45045  24656440.825    24656440.7914   24656452.0264
        -0.000          -0.000
   -772701.546 9   -584093.56148  21603268.456    21603268.0194   21603276.4374
        -0.000          -0.000
  -1388569.076 9  -1074261.96547  22905858.821    22905859.1134   22905868.0404
        -0.000          -0.000
    449421.356 8    356925.05845  24282634.270    24282633.7234   24282647.1874
        -0.000          -0.000
  -1702169.842 9  -1304410.92149  20516823.185    20516822.7594   20516830.5824
        -0.000          -0.000
   1583454.454 9   1234460.36048  21495658.075    21495657.9664   21495667.0694
        -0.000          -0.000
  -4699640.552 9  -3607298.19546  24114446.529    24114446.8164   24114460.5944
        -0.000          -0.000
   3600397.885 9   2793707.01946  24427498.651    24427498.8844   24427510.4294
        -0.000          -0.000
 99  4  5 17 25 30.0010000  0  8  9  2 26 15  7 27  4 13             0.000999931
  -5800699.950 9  -4475101.07545  24637592.087    24637592.0704   24637603.2814
        -0.000          -0.000
   -758473.049 9   -573006.46248  21605976.108    21605975.6644   21605984.1054
        -0.000          -0.000
  -1377852.124 9  -1065911.12047  22907898.237    22907898.5424   22907907.3844
        -0.000          -0.000
    498465.361 8    395141.18945  24291967.018    24291966.5814   24291979.9894
        -0.000          -0.000
  -1699162.150 9  -1302067.28249  20517395.602    20517395.1734   20517402.9754
        -0.000          -0.000
   1653682.702 9   1289183.55948  21509022.164    21509022.0644   21509031.1624
        -0.000          -0.000
  -4803725.007 9  -3688402.85646  24094639.885    24094640.0584   24094653.8164
        -0.000          -0.000
   3701206.590 9   2872259.04946  24446681.954    24446682.3144   24446694.0144
        -0.000          -0.000
 99  4  5 17 26  0.0010000  0  8  9  2 26 15  7 27  4 13             0.000999909
  -5899683.904 9  -4552231.41845  24618756.055    24618755.9404   24618767.2274
        -0.000          -0.000
   -744081.757 9   -561792.50748  21608714.720    21608714.2784   21608722.7374
        -0.000          -0.000
  -1366613.626 9  -1057153.87747  22910036.949    22910037.2314   22910045.9914
        -0.000          -0.000
    548045.954 8    433775.45645  24301401.864    24301401.5204   24301414.8674
        -0.000          -0.000
  -1695706.570 9  -1299374.63749  20518053.247    20518052.7884   20518060.6114
        -0.000          -0.000
   1724374.805 9   1344268.20548  21522474.564    21522474.4614   21522483.5754
        -0.000          -0.000
  -4907803.749 9  -3769503.04646  24074834.265    24074834.4904   24074848.2804
        -0.000          -0.000
   3801988.205 9   2950789.98845  24465860.099    24465860.5074   24465872.3774
        -0.000          -0.000
 99  4  5 17 26 30.0010000  0  8  9  2 26 15  7 27  4 13             0.000999868
  -5998621.183 9  -4629325.39445  24599928.873    24599928.7644   24599939.9804
        -0.000          -0.000
   -729565.901 9   -550481.49548  21611477.036    21611476.5864   21611485.0824
        -0.000          -0.000
  -1354881.292 9  -1048011.83247  22912269.640    22912269.9064   22912278.5634
        -0.000          -0.000
    598140.047 9    472809.86045  24310934.420    24310934.1114   24310947.4414
        -0.000          -0.000
  -1691812.510 9  -1296340.31949  20518794.282    20518793.8254   20518801.6884
        -0.000          -0.000
   1795512.177 9   1399699.81248  21536011.664    21536011.5394   21536020.6834
        -0.000          -0.000
  -5011889.140 9  -3850608.39546  24055027.386    24055027.5314   24055041.5034
        -0.000          -0.000
   3902699.340 9   3029265.99045  24485024.846    24485025.3894   24485037.2354
        -0.000          -0.000
 99  4  5 17 27  0.0010000  0  8  9  2 26 15  7 27  4 13             0.000999836
  -6097472.514 8  -4706352.39445  24581118.068    24581118.0664   24581129.3394
        -0.000          -0.000
   -714908.674 9   -539060.31948  21614266.191    21614265.7554   21614274.3024
        -0.000          -0.000
  -1342616.106 9  -1038454.57447  22914603.617    22914603.8904   22914612.6034
        -0.000          -0.000
    648783.103 9    512272.02345  24320571.446    24320571.1194   24320584.3564
        -0.000          -0.000
  -1687440.012 9  -1292933.18849  20519626.365    20519625.9084   20519633.7744
        -0.000          -0.000
   1867117.516 9   1455496.07048  21549637.758    21549637.6864   21549646.8234
        -0.000          -0.000
  -5115934.224 9  -3931682.33646  24035228.107    24035228.3384   24035242.3544
        -0.000          -0.000
   4003387.292 9   3107723.92545  24504185.244    24504185.8344   24504197.7124
        -0.000          -0.000
 99  4  5 17 27 30.0010000  0  8  9  2 26 15  7 27  4 13             0.000999816
  -6196236.741 9  -4783311.51645  24562323.925    24562323.8974   24562335.2434
        -0.000          -0.000
   -700122.060 9   -527538.32148  21617080.008    21617079.5774   21617088.1694
        -0.000          -0.000
  -1329819.350 9  -1028483.10947  22917038.656    22917039.0044   22917047.7494
        -0.000          -0.000
    699970.931 9    552158.69845  24330312.198    24330311.8364   24330325.0064
        -0.000          -0.000
  -1682593.958 9  -1289157.04649  20520548.509    20520548.0504   20520555.9494
        -0.000          -0.000
   1939169.826 9   1511640.61348  21563349.012    21563348.9344   21563358.0324
        -0.000          -0.000
  -5219932.657 9  -4012719.91946  24015437.645    24015437.8894   24015452.0634
        -0.000          -0.000
   4104061.203 9   3186170.92545  24523343.024    24523343.4634   24523355.5044
        -0.000          -0.000
 99  4  5 17 28  0.0010000  0  8  9  2 26 15  7 27  4 13             0.000999815
  -6294903.422 9  -4860194.63445  24543548.291    24543548.2454   24543559.5404
        -0.000          -0.000
   -685198.239 9   -515909.40548  21619919.993    21619919.5414   21619928.1394
        -0.000          -0.000
  -1316507.831 9  -1018110.53247  22919571.843    22919572.1804   22919580.8124
        -0.000          -0.000
    751702.065 9    592468.73345  24340156.266    24340155.9604   24340168.9634
        -0.000          -0.000
  -1677275.144 9  -1285012.52149  20521560.664    20521560.2104   20521568.1304
        -0.000          -0.000
   2011670.336 9   1568134.40748  21577145.560    21577145.4534   21577154.5414
        -0.000          -0.000
  -5323875.890 9  -4093714.49046  23995657.707    23995658.0724   23995672.2334
        -0.000          -0.000
   4204741.140 9   3264622.62045  24542501.947    24542502.4194   24542514.3884
        -0.000          -0.000
 99  4  5 17 28 30.0010000  0  8  9  2 26 15  7 27  4 13             0.000999828
  -6393476.593 9  -4937004.87346  24524790.491    24524790.4504   24524801.7404
        -0.000          -0.000
   -670141.513 9   -504176.93448  21622785.273    21622784.8074   21622793.3944
        -0.000          -0.000
  -1302707.791 9  -1007357.29247  22922198.013    22922198.3234   22922206.9124
        -0.000          -0.000
    803967.392 9    633195.00745  24350102.063    24350101.7454   24350114.7564
        -0.000          -0.000
  -1671499.762 9  -1280512.23249  20522659.670    20522659.2194   20522667.1284
        -0.000          -0.000
   2084590.576 9   1624955.26248  21591021.949    21591021.8364   21591030.9434
        -0.000          -0.000
  -5427774.592 9  -4174674.35146  23975886.375    23975886.6594   23975900.8754
        -0.000          -0.000
   4305422.527 9   3343075.44245  24561661.284    24561661.7654   24561673.5454
        -0.000          -0.000
 99  4  5 17 29  0.0010000  0  8  9  2 26 15  7 27  4 13             0.000999858
  -6491949.361 9  -5013736.87646  24506051.836    24506051.8134   24506063.0554
        -0.000          -0.000
   -654927.913 9   -492322.22448  21625680.364    21625679.9134   21625688.4944
        -0.000          -0.000
  -1288415.807 9   -996220.72247  22924917.731    22924918.0294   22924926.5774
        -0.000          -0.000
    856773.415 9    674342.59545  24360150.757    24360150.3394   24360163.3064
        -0.000          -0.000
  -1665277.734 9  -1275663.90749  20523843.734    20523843.2794   20523851.1344
        -0.000          -0.000
   2157940.567 9   1682110.98148  21604980.066    21604979.9534   21604989.1044
        -0.000          -0.000
  -5531639.446 9  -4255607.84946  23956121.428    23956121.6924   23956135.7214
        -0.000          -0.000
   4406111.774 9   3421534.39945  24580822.016    24580822.4004   24580834.1864
        -0.000          -0.000
 99  4  5 17 29 30.0010000  0  8  9  2 26 15  7 27  4 13             0.000999895
  -6590324.902 8  -5090393.13246  24487331.661    24487331.6434   24487342.7784
        -0.000          -0.000
   -639564.652 9   -480350.88948  21628603.975    21628603.5194   21628612.0994
        -0.000          -0.000
  -1273645.995 9   -984711.81547  22927728.378    22927728.6244   22927737.2034
        -0.000          -0.000
    910100.606 9    715896.30445  24370298.549    24370298.1144   24370311.1294
        -0.000          -0.000
  -1658644.036 9  -1270494.79849  20525106.094    20525105.6354   20525113.4834
        -0.000          -0.000
   2231726.439 9   1739606.34648  21619021.134    21619021.0234   21619030.2484
        -0.000          -0.000
  -5635495.856 9  -4336534.77446  23936358.057    23936358.2544   23936372.2014
        -0.000          -0.000
   4506780.637 8   3499977.46845  24599978.795    24599979.2394   24599990.9634
        -0.000          -0.000
 99  4  5 17 30  0.0010000  0  8  9  2 26 15  7 27  4 13             0.000999925
  -6688621.748 9  -5166988.06445  24468626.333    24468626.3534   24468637.4224
        -0.000          -0.000
   -624055.433 9   -468265.82048  21631555.313    21631554.8564   21631563.4604
        -0.000          -0.000
  -1258412.179 9   -972841.35547  22930627.257    22930627.4874   22930636.1294
        -0.000          -0.000
    963929.421 9    757840.88245  24380541.804    24380541.2734   24380554.5224
        -0.000          -0.000
  -1651620.870 9  -1265022.20649  20526442.545    20526442.0904   20526449.9624
        -0.000          -0.000
   2305944.820 9   1797438.73548  21633144.479    21633144.3864   21633153.7164
        -0.000          -0.000
  -5739357.275 9  -4417465.57946  23916593.795    23916594.1674   23916607.7884
        -0.000          -0.000
   4607395.811 9   3578378.69245  24619125.368    24619125.8044   24619137.5744
        -0.000          -0.000
 99  4  5 17 30 30.0010000  0  8  9  2 26 15  7 27  4 13             0.000999948
  -6786842.240 8  -5243523.49945  24449935.576    24449935.5624   24449946.7674
        -0.000          -0.000
   -608392.934 9   -456061.31448  21634535.809    21634535.3634   21634544.0144
        -0.000          -0.000
  -1242680.197 9   -960582.71147  22933620.895    22933621.2044   22933629.8634
        -0.000          -0.000
   1018264.125 9    800179.66145  24390881.306    24390880.8244   24390894.1124
        -0.000          -0.000
  -1644209.160 9  -1259246.85449  20527852.948    20527852.4944   20527860.3834
        -0.000          -0.000
   2380605.044 9   1855615.41448  21647351.921    21647351.8104   21647361.1994
        -0.000          -0.000
  -5843224.235 9  -4498400.71946  23896828.542    23896828.8904   23896842.4144
        -0.000          -0.000
   4707944.321 9   3656727.99045  24638259.277    24638259.7184   24638271.6004
        -0.000          -0.000
 99  4  5 17 31  0.0010000  0  8  9  2 26 15  7 27  4 13             0.000999958
  -6884983.433 8  -5319997.12645  24431259.908    24431259.9104   24431270.9944
        -0.000          -0.000
   -592587.637 9   -443745.53848  21637543.492    21637543.0504   21637551.7514
        -0.000          -0.000
  -1226437.934 9   -947926.44847  22936711.770    22936712.0544   22936720.7484
        -0.000          -0.000
   1073091.961 8    842902.69845  24401314.609    24401314.0234   24401327.4594
        -0.000          -0.000
  -1636412.265 9  -1253171.36549  20529336.612    20529336.1664   20529344.0774
        -0.000          -0.000
   2455706.172 9   1914135.65248  21661643.298    21661643.1964   21661652.5964
        -0.000          -0.000
  -5947096.610 9  -4579340.08246  23877062.182    23877062.5144   23877076.0004
        -0.000          -0.000
   4808414.585 9   3735016.28645  24657378.260    24657378.7214   24657390.7204
        -0.000          -0.000
 99  4  5 17 31 30.0010000  0  8  9  2 26 15  7 27  4 13             0.000999958
  -6983036.376 9  -5396401.99845  24412601.137    24412601.1284   24412612.1024
        -0.000          -0.000
   -576670.421 9   -431342.55948  21640572.522    21640572.0834   21640580.7984
        -0.000          -0.000
  -1209685.870 9   -934872.94347  22939899.623    22939899.8884   22939908.5784
        -0.000          -0.000
   1128400.816 8    886000.55745  24411839.444    24411838.9354   24411852.1754
        -0.000          -0.000
  -1628224.962 9  -1246791.66049  20530894.650    20530894.2184   20530902.0674
        -0.000          -0.000
   2531225.490 9   1972981.74748  21676014.242    21676014.1374   21676023.5144
        -0.000          -0.000
  -6050952.963 9  -4660266.96946  23857298.704    23857299.1564   23857312.7294
        -0.000          -0.000
   4908796.567 9   3813235.80845  24676480.537    24676480.9474   24676493.0574
        -0.000          -0.000
 99  4  5 17 32  0.0010000  0  8  9  2 26 15  7 27  4 13             0.000999958
  -7080985.575 8  -5472726.02745  24393961.993    24393961.9314   24393972.7834
        -0.000          -0.000
   -560638.489 9   -418850.19248  21643623.395    21643622.9614   21643631.6344
        -0.000          -0.000
  -1192415.109 9   -921415.25047  22943186.203    22943186.4924   22943195.1634
        -0.000          -0.000
   1184204.284 8    929483.82845  24422458.409    24422457.9344   24422471.1534
        -0.000          -0.000
  -1619624.113 9  -1240089.71749  20532531.376    20532530.9254   20532538.7684
        -0.000          -0.000
   2607161.570 9   2032152.58948  21690464.488    21690464.3644   21690473.7854
        -0.000          -0.000
  -6154762.450 9  -4741157.33846  23837544.175    23837544.6024   23837558.2754
        -0.000          -0.000
   5009101.879 9   3891395.57745  24695568.295    24695568.5534   24695580.7064
        -0.000          -0.000
 99  4  5 17 32 30.0010000  0  8  9  2 26 15  7 27  4 13             0.000999953
  -7178840.660 9  -5548976.72445  24375340.755    24375340.6834   24375351.6714
        -0.000          -0.000
   -544511.098 9   -406283.43848  21646692.412    21646691.9774   21646700.6044
        -0.000          -0.000
  -1174640.123 9   -907564.66047  22946568.726    22946569.0114   22946577.6854
        -0.000          -0.000
   1240490.483 8    973343.23045  24433169.196    24433168.6904   24433182.0094
        -0.000          -0.000
  -1610616.147 9  -1233070.54249  20534245.566    20534245.1184   20534252.9774
        -0.000          -0.000
   2683500.313 9   2091637.19648  21704991.305    21704991.2074   21705000.6804
        -0.000          -0.000
  -6258537.134 9  -4822020.59146  23817796.402    23817796.7224   23817810.4994
        -0.000          -0.000
   5109339.531 9   3969502.62645  24714643.122    24714643.4484   24714655.5364
        -0.000          -0.000
 99  4  5 17 33  0.0010000  0  8  9  2 26 15  7 27  4 13             0.000999959
  -7276582.122 9  -5625138.88345  24356741.149    24356741.0894   24356752.0834
        -0.000          -0.000
   -528278.359 9   -393634.59448  21649781.451    21649781.0184   21649789.6374
        -0.000          -0.000
  -1156368.153 9   -893326.80147  22950045.823    22950046.0744   22950054.8604
        -0.000          -0.000
   1297274.035 8   1017590.17845  24443974.752    24443974.1194   24443987.5384
        -0.000          -0.000
  -1601183.350 9  -1225720.33549  20536040.601    20536040.1554   20536048.0254
        -0.000          -0.000
   2760250.909 9   2151442.72348  21719596.624    21719596.4764   21719605.9564
        -0.000          -0.000
  -6362245.414 9  -4902832.09946  23798061.332    23798061.6454   23798075.2764
        -0.000          -0.000
   5209539.519 9   4047580.32245  24733710.759    24733711.0084   24733723.1374
        -0.000          -0.000
 99  4  5 17 33 30.0010000  0  8  9  2 26 15  7 27  4 13             0.000999975
  -7374229.230 9  -5701227.52045  24338159.490    24338159.4434   24338170.4114
        -0.000          -0.000
   -511934.535 9   -380899.19548  21652891.621    21652891.1754   21652899.7864
        -0.000          -0.000
  -1137613.528 9   -878712.84147  22953614.625    22953614.8734   22953623.9034
        -0.000          -0.000
   1354556.997 8   1062226.29645  24454875.374    24454874.7724   24454888.2244
        -0.000          -0.000
  -1591335.575 9  -1218046.76949  20537914.598    20537914.1484   20537922.0034
        -0.000          -0.000
   2837418.063 9   2211572.84448  21734281.139    21734280.9904   21734290.4734
        -0.000          -0.000
  -6465879.506 9  -4983585.80046  23778340.373    23778340.6574   23778354.2704
        -0.000          -0.000
   5309709.457 8   4125634.60145  24752772.514    24752772.8424   24752785.0304
        -0.000          -0.000
 99  4  5 17 34  0.0010000  0  8  9  2 26 15  7 27  4 13             0.000999992
  -7471804.829 8  -5777260.43145  24319591.374    24319591.3384   24319602.3864
        -0.000          -0.000
   -495456.885 9   -368059.51848  21656027.298    21656026.8544   21656035.4544
        -0.000          -0.000
  -1118394.619 9   -863737.11047  22957271.928    22957272.1914   22957281.2324
        -0.000          -0.000
   1412332.809 8   1107246.43445  24465869.726    24465869.1514   24465882.6684
        -0.000          -0.000
  -1581083.863 9  -1210058.45149  20539865.452    20539865.0074   20539872.8604
        -0.000          -0.000
   2915004.975 9   2272030.04948  21749045.468    21749045.3394   21749054.8774
        -0.000          -0.000
  -6569454.135 9  -5064293.15746  23758630.746    23758631.0624   23758644.4904
        -0.000          -0.000
   5409848.898 8   4203665.13045  24771828.424    24771828.8094   24771841.1064
        -0.000          -0.000
 99  4  5 17 34 30.0010000  0  8  9  2 26 15  7 27  4 13             0.001000014
  -7569297.252 9  -5853228.50545  24301039.077    24301039.0614   24301050.1294
        -0.000          -0.000
   -478808.955 9   -355087.15748  21659195.304    21659194.8614   21659203.5164
        -0.000          -0.000
  -1098700.797 9   -848391.32847  22961019.622    22961019.8874   22961028.8844
        -0.000          -0.000
   1470610.519 8   1152657.67145  24476959.599    24476958.9954   24476972.5104
        -0.000          -0.000
  -1570413.469 9  -1201743.88849  20541895.989    20541895.5324   20541903.4394
        -0.000          -0.000
   2993020.210 9   2332821.00648  21763891.389    21763891.2414   21763900.8244
        -0.000          -0.000
  -6672964.997 9  -5144950.82546  23738933.228    23738933.5584   23738946.7734
        -0.000          -0.000
   5509962.796 8   4281675.73545  24790879.483    24790879.9614   24790892.3524
        -0.000          -0.000
 99  4  5 17 35  0.0010000  0  8  9  2 26 15  7 27  4 13             0.001000030
  -7666711.154 9  -5929135.41445  24282501.802    24282501.7734   24282512.7274
        -0.000          -0.000
   -462000.327 9   -341989.57848  21662393.941    21662393.5174   21662402.1904
        -0.000          -0.000
  -1078547.856 9   -832687.78147  22964854.609    22964854.9114   22964863.9114
        -0.000          -0.000
   1529377.617 8   1198450.23445  24488142.616    24488142.0624   24488155.4564
        -0.000          -0.000
  -1559352.870 9  -1193125.27249  20544000.738    20544000.2754   20544008.2284
        -0.000          -0.000
   3071444.266 9   2393930.51948  21778815.068    21778814.9204   21778824.5714
        -0.000          -0.000
  -6776418.115 9  -5225563.48846  23719246.739    23719247.0374   23719260.2294
        -0.000          -0.000
   5610008.083 8   4359632.87045  24809917.578    24809918.1504   24809930.6034
        -0.000          -0.000
 99  4  5 17 35 30.0010000  0  8  9  2 26 15  7 27  4 13             0.001000037
  -7764034.016 9  -6004971.35145  24263981.881    24263981.8354   24263992.6604
        -0.000          -0.000
   -445027.805 9   -328764.28748  21665623.757    21665623.3314   21665632.0184
        -0.000          -0.000
  -1057936.400 9   -816626.95447  22968776.905    22968777.1964   22968786.2634
        -0.000          -0.000
   1588629.979 8   1244620.91445  24499417.942    24499417.3774   24499430.7554
        -0.000          -0.000
  -1547910.059 9  -1184208.82549  20546178.241    20546177.7774   20546185.7244
        -0.000          -0.000
   3150273.723 9   2455355.93348  21793815.901    21793815.7754   21793825.4934
        -0.000          -0.000
  -6879834.244 9  -5306147.32346  23699567.188    23699567.5114   23699580.6904
        -0.000          -0.000
   5709961.037 8   4437518.06145  24828938.189    24828938.5734   24828951.2634
        -0.000          -0.000
 99  4  5 17 36  0.0010000  0  8  9  2 26 15  7 27  4 13             0.001000032
  -7861236.957 9  -6080713.83646  24245484.783    24245484.7294   24245495.5534
        -0.000          -0.000
   -427885.073 9   -315406.36848  21668885.925    21668885.5034   21668894.1834
        -0.000          -0.000
  -1036855.599 9   -800200.40047  22972788.497    22972788.7894   22972797.8944
        -0.000          -0.000
   1648372.377 8   1291173.45845  24510786.541    24510786.0854   24510799.3594
        -0.000          -0.000
  -1536064.142 9  -1174978.26849  20548432.467    20548432.0164   20548439.9334
        -0.000          -0.000
   3229506.168 9   2517095.36448  21808893.455    21808893.3374   21808903.0554
        -0.000          -0.000
  -6983226.516 9  -5386712.55346  23679892.215    23679892.4524   23679905.6484
        -0.000          -0.000
   5809803.299 8   4515316.99845  24847937.769    24847938.1204   24847950.9194
        -0.000          -0.000
 99  4  5 17 36 30.0010000  0  8  9  2 26 15  7 27  4 13             0.001000026
  -7958286.197 9  -6156336.55946  24227017.027    24227017.0254   24227027.6604
        -0.000          -0.000
   -410573.756 9   -301917.07948  21672180.237    21672179.8224   21672188.4624
        -0.000          -0.000
  -1015288.720 9   -783395.08847  22976892.562    22976892.8684   22976901.9864
        -0.000          -0.000
   1708616.349 8   1338116.83945  24522250.611    24522250.0804   24522263.4004
        -0.000          -0.000
  -1523800.997 9  -1165422.59649  20550766.161    20550765.7114   20550773.5834
        -0.000          -0.000
   3309151.546 9   2579156.56148  21824049.682    21824049.5454   21824059.1744
        -0.000          -0.000
  -7086578.037 9  -5467246.02146  23660225.021    23660225.2274   23660238.3614
        -0.000          -0.000
   5909533.618 8   4593028.71445  24866916.037    24866916.1324   24866929.2054
        -0.000          -0.000
 99  4  5 17 37  0.0010000  0  8  9  2 26 15  7 27  4 13             0.001000026
  -8055177.486 9  -6231836.19546  24208579.324    24208579.3194   24208589.8154
        -0.000          -0.000
   -393105.526 9   -288305.52848  21675504.380    21675503.9414   21675512.6084
        -0.000          -0.000
   -993230.390 9   -766206.82947  22981090.100    22981090.3924   22981099.5624
        -0.000          -0.000
   1769366.173 8   1385454.42045  24533810.909    24533810.4864   24533823.7064
        -0.000          -0.000
  -1511121.383 9  -1155542.40449  20553179.079    20553178.6014   20553186.4704
        -0.000          -0.000
   3389217.747 9   2641545.67548  21839285.906    21839285.7774   21839295.3504
        -0.000          -0.000
  -7189878.234 9  -5547739.47246  23640567.494    23640567.6164   23640580.7574
        -0.000          -0.000
   6009165.860 8   4670663.98645  24885875.680    24885875.7864   24885888.8394
        -0.000          -0.000
 99  4  5 17 37 30.0010000  0  8  9  2 26 15  7 27  4 13             0.001000016
  -8151935.721 9  -6307232.15146  24190166.969    24190166.9964   24190177.3104
        -0.000          -0.000
   -375497.025 9   -274584.67148  21678855.181    21678854.7414   21678863.4604
        -0.000          -0.000
   -970700.643 9   -748651.23347  22985377.382    22985377.6844   22985386.8124
        -0.000          -0.000
   1830593.400 8   1433163.99445  24545462.012    24545461.6114   24545474.9434
        -0.000          -0.000
  -1498027.461 9  -1145339.37449  20555670.761    20555670.3054   20555678.1894
        -0.000          -0.000
   3469678.023 9   2704241.86248  21854597.047    21854596.9374   21854606.5734
        -0.000          -0.000
  -7293145.141 9  -5628206.97146  23620916.366    23620916.4804   23620929.5624
        -0.000          -0.000
   6108688.626 8   4748213.94845  24904814.501    24904814.7444   24904827.5604
        -0.000          -0.000
 99  4  5 17 38  0.0010000  0  8  9  2 26 15  7 27  4 13             0.001000018
  -8248541.952 9  -6382509.67546  24171783.550    24171783.6024   24171793.7894
        -0.000          -0.000
   -357709.899 9   -260724.62648  21682239.975    21682239.5484   21682248.2824
        -0.000          -0.000
   -947650.931 9   -730690.46847  22989763.571    22989763.8984   22989773.1264
        -0.000          -0.000
   1892333.476 8   1481273.17145  24557210.715    24557210.3764   24557223.6634
        -0.000          -0.000
  -1484483.180 9  -1134785.40749  20558248.218    20558247.7414   20558255.6134
        -0.000          -0.000
   3550565.737 9   2767271.11248  21869989.569    21869989.4614   21869999.1334
        -0.000          -0.000
  -7396311.179 9  -5708595.87246  23601284.411    23601284.5814   23601297.5804
        -0.000          -0.000
   6208139.083 8   4825707.58845  24923739.524    24923739.6644   24923752.4244
        -0.000          -0.000
 99  4  5 17 38 30.0010000  0  8  9  2 26 15  7 27  4 13             0.001000024
  -8345037.515 9  -6457700.94946  24153421.140    24153421.0344   24153431.2104
        -0.000          -0.000
   -339772.764 9   -246747.69148  21685653.320    21685652.8854   21685661.6514
        -0.000          -0.000
   -924101.767 9   -712340.52747  22994244.869    22994245.2154   22994254.4584
        -0.000          -0.000
   1954558.089 8   1529759.92145  24569051.621    24569051.3104   24569064.3764
        -0.000          -0.000
  -1470536.313 9  -1123917.73849  20560902.215    20560901.7444   20560909.6144
        -0.000          -0.000
   3631865.842 9   2830621.70348  21885460.580    21885460.4614   21885470.1854
        -0.000          -0.000
  -7499371.501 9  -5788902.38346  23581672.528    23581672.7784   23581685.7114
        -0.000          -0.000
   6307505.804 8   4903135.96345  24942648.661    24942648.7534   24942661.8664
        -0.000          -0.000
 99  4  5 17 39  0.0010000  0  8  9  2 26 15  7 27  4 13             0.001000020
  -8441461.670 9  -6532836.59746  24135072.286    24135072.2074   24135082.2474
        -0.000          -0.000
   -321704.994 9   -232668.96948  21689091.531    21689091.0854   21689099.8684
        -0.000          -0.000
   -900078.792 9   -693621.37247  22998816.388    22998816.7214   22998825.9674
        -0.000          -0.000
   2017247.364 8   1578608.72145  24580980.960    24580980.5414   24580993.6274
        -0.000          -0.000
  -1456214.009 9  -1112757.51949  20563627.648    20563627.1874   20563635.0584
        -0.000          -0.000
   3713553.083 9   2894273.96248  21901005.238    21901005.1394   21901014.8974
        -0.000          -0.000
  -7602335.571 9  -5869133.90046  23562078.897    23562079.2024   23562092.1294
        -0.000          -0.000
   6406773.771 8   4980487.38445  24961538.949    24961538.9164   24961552.4764
        -0.000          -0.000
 99  4  5 17 39 30.0010000  0  8  9  2 26 15  7 27  4 13             0.001000023
  -8537783.711 9  -6607892.67946  24116742.807    24116742.7264   24116752.7214
        -0.000          -0.000
   -303475.199 9   -218463.99048  21692560.565    21692560.1334   21692568.9454
        -0.000          -0.000
   -875561.277 9   -674516.86447  23003481.937    23003482.2714   23003491.4944
        -0.000          -0.000
   2080430.312 8   1627842.20145  24593004.208    24593003.7884   24593016.9344
        -0.000          -0.000
  -1441476.615 9  -1101273.85549  20566432.068    20566431.6264   20566439.4874
        -0.000          -0.000
   3795653.479 9   2958248.15548  21916628.571    21916628.4744   21916638.2104
        -0.000          -0.000
  -7705167.291 9  -5949262.27046  23542510.295    23542510.7404   23542523.7094
        -0.000          -0.000
   6505964.754 8   5057778.80745  24980414.550    24980414.3594   24980427.8644
        -0.000          -0.000
 99  4  5 17 40  0.0010000  0  8  9  2 26 15  7 27  4 13             0.001000020
  -8634024.328 9  -6682885.32146  24098428.735    24098428.6864   24098438.6744
        -0.000          -0.000
   -285122.450 9   -204163.20448  21696052.988    21696052.5654   21696061.3954
        -0.000          -0.000
   -850590.194 9   -655058.92747  23008233.772    23008234.1014   23008243.3144
        -0.000          -0.000
   2144079.343 8   1677438.85045  24605116.263    24605115.8634   24605129.0444
        -0.000          -0.000
  -1426369.917 9  -1089502.42049  20569306.843    20569306.3954   20569314.2394
        -0.000          -0.000
   3878145.493 9   3022527.51648  21932326.374    21932326.2964   21932336.0684
        -0.000          -0.000
  -7807892.259 9  -6029307.47546  23522962.101    23522962.5924   23522975.5734
        -0.000          -0.000
   6605056.388 8   5134992.84045  24999271.127    24999271.0644   24999284.4694
        -0.000          -0.000
 99  4  5 17 40 30.0010000  0  6  9  2 26  7 27  4                   0.001000013
  -8730154.604 9  -6757791.99846  24080135.641    24080135.6194   24080145.6544
        -0.000          -0.000
   -266643.637 9   -189764.19048  21699569.425    21699569.0114   21699577.8354
        -0.000          -0.000
   -825174.748 9   -635254.73647  23013070.246    23013070.5234   23013079.7684
        -0.000          -0.000
  -1410881.792 9  -1077433.76849  20572254.161    20572253.7054   20572261.5484
        -0.000          -0.000
   3961040.405 9   3087120.81648  21948100.834    21948100.7564   21948110.5834
        -0.000          -0.000
  -7910513.836 9  -6109272.11746  23503433.779    23503434.2414   23503447.1864
        -0.000          -0.000
 99  4  5 17 41  0.0010000  0  6  9  2 26  7 27  4                   0.001000022
  -8826122.225 9  -6832571.90746  24061873.533    24061873.5024   24061883.7114
        -0.000          -0.000
   -247990.495 9   -175229.33948  21703119.067    21703118.6534   21703127.4814
        -0.000          -0.000
   -799280.193 9   -615077.21547  23017997.812    23017998.1314   23018007.4654
        -0.000          -0.000
  -1394963.383 9  -1065029.83249  20575283.325    20575282.8584   20575290.7504
        -0.000          -0.000
   4044360.953 9   3152045.78648  21963956.281    21963956.1604   21963966.0854
        -0.000          -0.000
  -8013013.021 9  -6189141.39746  23483928.787    23483929.2244   23483942.0444
        -0.000          -0.000
 99  4  5 17 41 30.0010000  0  6  9  2 26  7 27  4                   0.001000044
  -8921924.528 9  -6907223.00346  24043642.758    24043642.7834   24043653.2674
        -0.000          -0.000
   -229172.251 9   -160565.83148  21706700.137    21706699.7344   21706708.5634
        -0.000          -0.000
   -772912.223 9   -594530.80447  23023015.497    23023015.8084   23023025.1904
        -0.000          -0.000
  -1378631.843 9  -1052303.97549  20578391.089    20578390.6374   20578398.5464
        -0.000          -0.000
   4128100.711 9   3217297.41348  21979891.515    21979891.4084   21979901.4494
        -0.000          -0.000
  -8115415.333 9  -6268935.18746  23464442.261    23464442.6054   23464455.2934
        -0.000          -0.000
 99  4  5 17 42  0.0010000  0  6  9  2 26  7 27  4                   0.001000066
  -9017585.502 9  -6981763.96346  24025438.965    24025438.9944   24025449.6474
        -0.000          -0.000
   -210220.378 9   -145798.19648  21710306.625    21710306.2084   21710315.0364
        -0.000          -0.000
   -746089.554 9   -573630.07447  23028119.766    23028120.0644   23028129.3334
        -0.000          -0.000
  -1361939.820 9  -1039297.22549  20581567.488    20581567.0484   20581574.9374
        -0.000          -0.000
   4212225.326 9   3282848.93348  21995900.038    21995899.9054   21995909.9884
        -0.000          -0.000
  -8217757.658 9  -6348682.25446  23444967.015    23444967.3674   23444979.9854
        -0.000          -0.000
 99  4  5 17 42 30.0010000  0  6  9  2 26  7 27  4                   0.001000082
  -9113095.360 9  -7056187.18246  24007263.938    24007263.9784   24007274.7534
        -0.000          -0.000
   -191112.372 9   -130908.89448  21713942.784    21713942.3704   21713951.2214
        -0.000          -0.000
   -718795.466 9   -552362.00447  23033313.742    23033314.0384   23033323.2434
        -0.000          -0.000
  -1344865.734 9  -1025992.76149  20584816.620    20584816.1684   20584824.0714
        -0.000          -0.000
   4296737.229 9   3348702.24248  22011982.234    22011982.1124   22011992.2084
        -0.000          -0.000
  -8320039.616 9  -6428382.29146  23425503.198    23425503.5724   23425516.1704
        -0.000          -0.000
 99  4  5 17 43  0.0010000  0  6  9  2 26  7 27  4                   0.001000084
  -9208474.011 9  -7130508.15946  23989113.847    23989113.8624   23989124.7954
        -0.000          -0.000
   -171851.678 9   -115900.62448  21717608.015    21717607.6034   21717616.4764
        -0.000          -0.000
   -691036.318 9   -530731.54747  23038596.141    23038596.4624   23038605.6504
        -0.000          -0.000
  -1327427.748 9  -1012404.74549  20588134.970    20588134.5314   20588142.4764
        -0.000          -0.000
   4381614.683 9   3414840.38748  22028134.047    22028133.9104   22028144.0034
        -0.000          -0.000
  -8422261.319 9  -6508035.37746  23406050.888    23406051.2984   23406063.8094
        -0.000          -0.000
 99  4  5 17 43 30.0010000  0  6  9  2 26  7 27  4                   0.001000088
  -9303706.361 9  -7204715.12846  23970991.587    23970991.6284   23971002.6914
        -0.000          -0.000
   -152441.098 9   -100775.55448  21721301.727    21721301.3064   21721310.2664
        -0.000          -0.000
   -662817.573 9   -508742.96547  23043966.080    23043966.4344   23043975.6084
        -0.000          -0.000
  -1309621.018 9   -998529.39549  20591523.500    20591523.0654   20591531.0154
        -0.000          -0.000
   4466867.914 9   3481271.33748  22044357.373    22044357.2094   22044367.2794
        -0.000          -0.000
  -8524393.140 9  -6587618.43346  23386615.837    23386616.1734   23386628.6264
        -0.000          -0.000
 99  4  5 17 44  0.0010000  0  6  9  2 26  7 27  4                   0.001000085
  -9398809.489 9  -7278821.39346  23952893.993    23952894.0284   23952905.1014
        -0.000          -0.000
   -132888.429 9    -85539.76448  21725022.507    21725022.1004   21725031.1214
        -0.000          -0.000
   -634157.774 9   -486410.70747  23049419.981    23049420.3284   23049429.4794
        -0.000          -0.000
  -1291454.158 9   -984373.42249  20594980.597    20594980.1524   20594988.0994
        -0.000          -0.000
   4552469.607 9   3547973.82648  22060646.928    22060646.7824   22060656.8744
        -0.000          -0.000
  -8626427.530 9  -6667125.57946  23367199.216    23367199.5854   23367211.9964
        -0.000          -0.000
 99  4  5 17 44 30.0010000  0  6  9  2 26  7 27  4                   0.001000084
  -9493782.898 9  -7352826.59346  23934821.075    23934821.0584   23934832.2324
        -0.000          -0.000
   -113181.565 9    -70183.82648  21728772.605    21728772.1844   21728781.2844
        -0.000          -0.000
   -605073.355 9   -463747.58347  23054954.653    23054954.9964   23054964.1324
        -0.000          -0.000
  -1272920.225 9   -969931.42549  20598507.490    20598507.0604   20598515.0304
        -0.000          -0.000
   4638430.617 9   3614956.29748  22077004.816    22077004.6784   22077014.7924
        -0.000          -0.000
  -8728341.017 9  -6746538.53146  23347805.626    23347805.9004   23347818.3494
        -0.000          -0.000
 99  4  5 17 45  0.0010000  0  6  9  2 26  7 27  4                   0.001000089
  -9588633.654 9  -7426736.20446  23916771.495    23916771.4944   23916782.6714
        -0.000          -0.000
    -93336.876 9    -54720.49548  21732548.998    21732548.5804   21732557.7294
        -0.000          -0.000
   -575567.931 9   -440756.40847  23060569.466    23060569.7304   23060578.8354
        -0.000          -0.000
  -1254039.996 9   -955219.58649  20602100.394    20602099.9434   20602107.9164
        -0.000          -0.000
   4724749.897 9   3682217.94148  22093430.949    22093430.8164   22093440.9184
        -0.000          -0.000
  -8830118.614 9  -6825845.60246  23328437.844    23328438.1294   23328450.5614
        -0.000          -0.000
 99  4  5 17 45 30.0010000  0  6  9  2 26  7 27  4                   0.001000096
  -9683353.237 9  -7500543.58946  23898746.893    23898746.8824   23898758.1014
        -0.000          -0.000
    -73364.660 9    -39157.79148  21736349.654    21736349.2284   21736358.3784
        -0.000          -0.000
   -545645.270 9   -417440.10247  23066263.526    23066263.7884   23066272.9874
        -0.000          -0.000
  -1234807.341 9   -940233.13549  20605760.256    20605759.7994   20605767.7884
        -0.000          -0.000
   4811438.049 9   3749767.02047  22109927.272    22109927.1364   22109937.2364
        -0.000          -0.000
  -8931773.349 9  -6905056.94846  23309093.389    23309093.7704   23309106.1574
        -0.000          -0.000
 99  4  5 17 46  0.0010000  0  6  9  2 26  7 27  4                   0.001000099
  -9777931.074 9  -7574240.52246  23880749.243    23880749.2424   23880760.4064
        -0.000          -0.000
    -53250.135 9    -23484.18948  21740177.385    21740176.9494   21740186.0974
        -0.000          -0.000
   -515282.883 9   -393781.15347  23072041.377    23072041.6584   23072050.8864
        -0.000          -0.000
  -1215203.688 9   -924957.59649  20609490.744    20609490.2974   20609498.2934
        -0.000          -0.000
   4898514.080 9   3817618.33748  22126497.358    22126497.2444   22126507.3634
        -0.000          -0.000
  -9033304.088 9  -6984171.68446  23289772.588    23289773.0364   23289785.3574
        -0.000          -0.000
 99  4  5 17 46 30.0010000  0  6  9  2 26  7 27  4                   0.001000100
  -9872355.911 9  -7647818.24146  23862780.762    23862780.7304   23862791.8214
        -0.000          -0.000
    -32995.315 9     -7701.27448  21744031.779    21744031.3304   21744040.4954
        -0.000          -0.000
   -484475.193 9   -369775.21647  23077903.970    23077904.2594   23077913.4794
        -0.000          -0.000
  -1195220.689 9   -909386.46549  20613293.397    20613292.9344   20613300.9184
        -0.000          -0.000
   4985993.635 9   3885784.08248  22143144.313    22143144.1904   22143154.3604
        -0.000          -0.000
  -9134713.391 9  -7063191.80646  23270475.038    23270475.4554   23270487.6774
        -0.000          -0.000
 99  4  5 17 47  0.0010000  0  6  9  2 26  7 27  4                   0.001000092
  -9966604.432 9  -7721258.57746  23844845.779    23844845.7974   23844856.7954
        -0.000          -0.000
    -12582.918 9      8204.42648  21747916.109    21747915.6914   21747924.8794
        -0.000          -0.000
   -453198.772 9   -345404.03747  23083855.747    23083856.0294   23083865.2104
        -0.000          -0.000
  -1174823.038 9   -893492.22849  20617174.966    20617174.5174   20617182.4744
        -0.000          -0.000
   5073876.811 9   3954264.33748  22159868.078    22159867.9424   22159878.1614
        -0.000          -0.000
  -9235991.356 9  -7142109.59046  23251202.400    23251202.7984   23251214.9974
        -0.000          -0.000
 99  4  5 17 47 30.0010000  0  6  9  2 26  7 27  4                   0.001000099
 -10060623.520 9  -7794520.11746  23826954.421    23826954.5134   23826965.4004
        -0.000          -0.000
      8049.616 9     24281.67048  21751842.404    21751841.9934   21751851.1794
        -0.000          -0.000
   -421411.528 9   -320634.81147  23089904.625    23089904.9414   23089914.1364
        -0.000          -0.000
  -1153947.403 9   -877225.53949  20621147.487    20621147.0474   20621155.0094
        -0.000          -0.000
   5162202.542 9   4023089.43748  22176675.984    22176675.8274   22176686.1644
        -0.000          -0.000
  -9337089.663 9  -7220887.39346  23231963.865    23231964.2664   23231976.4524
        -0.000          -0.000
 99  4  5 17 48  0.0010000  0  6  9  2 26  7 27  4                   0.001000113
 -10154435.315 9  -7867620.16446  23809102.543    23809102.6714   23809113.4914
        -0.000          -0.000
     28892.199 9     40522.59048  21755808.652    21755808.2274   21755817.4344
        -0.000          -0.000
   -389142.500 9   -295490.16947  23096045.332    23096045.6404   23096054.8104
        -0.000          -0.000
  -1132626.803 9   -860612.12949  20625204.637    20625204.1784   20625212.1924
        -0.000          -0.000
   5250923.988 9   4092222.89047  22193559.172    22193559.0584   22193569.4494
        -0.000          -0.000
  -9438015.333 9  -7299530.66846  23212758.283    23212758.6424   23212770.7484
        -0.000          -0.000
 99  4  5 17 48 30.0010000  0  6  9  2 26  7 27  4                   0.001000128
 -10248064.389 9  -7940577.81146  23791285.531    23791285.6654   23791296.3544
        -0.000          -0.000
     49933.605 9     56918.43848  21759812.771    21759812.3454   21759821.5564
        -0.000          -0.000
   -356426.298 9   -269997.08547  23102271.081    23102271.3614   23102280.4594
        -0.000          -0.000
  -1110901.281 9   -843683.19949  20629338.906    20629338.4764   20629346.5164
        -0.000          -0.000
   5339991.018 9   4161625.61547  22210508.226    22210508.1154   22210518.5094
        -0.000          -0.000
  -9538781.555 9  -7378049.69446  23193582.992    23193583.3864   23193595.3554
        -0.000          -0.000
 99  4  5 17 49  0.0010000  0  6  9  2 26  7 27  4                   0.001000157
 -10341499.516 9  -8013384.33546  23773505.452    23773505.4954   23773516.0384
        -0.000          -0.000
     71192.957 9     73484.11048  21763858.383    21763857.9754   21763867.1774
        -0.000          -0.000
   -323255.190 9   -244149.51847  23108583.416    23108583.7004   23108592.7524
        -0.000          -0.000
  -1088776.479 9   -826443.14449  20633549.126    20633548.6914   20633556.7414
        -0.000          -0.000
   5429410.468 9   4231302.96347  22227524.256    22227524.1754   22227534.5994
        -0.000          -0.000
  -9639376.175 9  -7456435.00846  23174440.429    23174440.8594   23174452.7274
        -0.000          -0.000
 99  4  5 17 49 30.0010000  0  6  9  2 26  7 27  4                   0.001000182
 -10434789.153 9  -8086077.49446  23755753.083    23755753.0654   23755763.4884
        -0.000          -0.000
     92619.085 9     90179.74048  21767935.705    21767935.2924   21767944.4734
        -0.000          -0.000
   -289664.057 9   -217974.66247  23114975.582    23114975.8854   23114984.9364
        -0.000          -0.000
  -1066333.552 9   -808955.19449  20637819.949    20637819.5154   20637827.5434
        -0.000          -0.000
   5519144.346 9   4301225.31547  22244600.107    22244600.0144   22244610.5034
        -0.000          -0.000
  -9739848.904 9  -7534725.33247  23155321.029    23155321.4254   23155333.3024
        -0.000          -0.000
 99  4  5 17 50  0.0010000  0  6  9  2 26  7 27  4                   0.001000201
 -10527948.370 9  -8158669.01946  23738025.531    23738025.5074   23738035.8454
        -0.000          -0.000
    114188.626 9    106987.11548  21772040.308    21772039.8704   21772049.0524
        -0.000          -0.000
   -255665.386 9   -191482.25547  23121445.295    23121445.6274   23121454.7244
        -0.000          -0.000
  -1043600.710 9   -791241.34249  20642145.911    20642145.4504   20642153.4914
        -0.000          -0.000
   5609188.330 9   4371389.30547  22261735.043    22261734.9514   22261745.3944
        -0.000          -0.000
  -9840210.839 9  -7612929.32547  23136222.721    23136223.1164   23136235.0094
        -0.000          -0.000
 99  4  5 17 50 30.0010000  0  6  9  2 26  7 27  4                   0.001000204
 -10620992.229 9  -8231170.64946  23720319.889    23720319.8254   23720330.0674
        -0.000          -0.000
    135886.424 9    123894.42948  21776169.345    21776168.9324   21776178.0704
        -0.000          -0.000
   -221251.989 9   -164666.68447  23127993.932    23127994.2934   23128003.5394
        -0.000          -0.000
  -1020583.175 9   -773305.65249  20646525.957    20646525.5284   20646533.5934
        -0.000          -0.000
   5699568.761 9   4441815.46447  22278933.999    22278933.8954   22278944.3964
        -0.000          -0.000
  -9940464.503 9  -7691048.95147  23117144.963    23117145.3234   23117157.3184
        -0.000          -0.000
 99  4  5 17 51  0.0010000  0  6  9  2 26  7 27  4                   0.001000180
 -10713922.523 9  -8303583.79246  23702635.797    23702635.7574   23702645.8104
        -0.000          -0.000
    157677.334 9    140874.30248  21780316.140    21780315.7114   21780324.8014
        -0.000          -0.000
   -186423.963 9   -137528.01547  23134621.519    23134621.8644   23134631.2424
        -0.000          -0.000
   -997278.186 9   -755145.96549  20650960.837    20650960.4174   20650968.4954
        -0.000          -0.000
   5790299.791 9   4512514.81147  22296199.649    22296199.5324   22296210.1124
        -0.000          -0.000
 -10040605.770 9  -7769080.97747  23098088.536    23098088.9164   23098100.9604
        -0.000          -0.000
 99  4  5 17 51 30.0010000  0  6  9  2 26  7 27  4                   0.001000158
 -10806684.717 9  -8375865.95146  23684983.703    23684983.7074   23684993.6334
        -0.000          -0.000
    179598.663 9    157955.79448  21784487.697    21784487.2634   21784496.3544
        -0.000          -0.000
   -151139.504 9   -110033.70947  23141336.063    23141336.4064   23141345.6894
        -0.000          -0.000
   -973631.265 9   -736719.84049  20655460.736    20655460.2834   20655468.3804
        -0.000          -0.000
   5881417.588 9   4583515.53247  22313538.837    22313538.7484   22313549.4134
        -0.000          -0.000
 -10140576.280 9  -7846979.94247  23079064.677    23079065.0864   23079077.1354
        -0.000          -0.000
 99  4  5 17 52  0.0010000  0  6  9  2 26  7 27  4                   0.001000140
 -10899264.129 9  -8448005.68646  23667366.393    23667366.4334   23667376.2964
        -0.000          -0.000
    201661.190 9    175147.31048  21788686.149    21788685.7274   21788694.8054
        -0.000          -0.000
   -115414.450 9    -82196.06847  23148134.487    23148134.7894   23148144.0114
        -0.000          -0.000
   -949617.444 9   -718007.81949  20660030.384    20660029.9694   20660038.1074
        -0.000          -0.000
   5972925.974 9   4654820.60347  22330952.410    22330952.3234   22330963.0634
        -0.000          -0.000
 -10240360.419 9  -7924733.69647  23060076.297    23060076.7214   23060088.7134
        -0.000          -0.000
 99  4  5 17 52 30.0010000  0  6  9  2 26  7 27  4                   0.001000124
 -10991660.042 9  -8520002.43346  23649783.989    23649783.9954   23649793.7984
        -0.000          -0.000
    223852.380 9    192439.07848  21792909.065    21792908.6334   21792917.7104
        -0.000          -0.000
    -79277.489 9    -54037.45947  23155011.149    23155011.4694   23155020.7584
        -0.000          -0.000
   -925258.225 9   -699026.66249  20664665.856    20664665.4304   20664673.5934
        -0.000          -0.000
   6064794.359 9   4726406.19547  22348434.513    22348434.4304   22348445.1984
        -0.000          -0.000
 -10339981.069 9  -8002360.03947  23041119.125    23041119.4664   23041131.4484
        -0.000          -0.000
 99  4  5 17 53  0.0010000  0  6  9  2 26  7 27  4                   0.001000128
 -11083845.178 9  -8591834.95146  23632241.698    23632241.7304   23632251.5104
        -0.000          -0.000
    246190.092 9    209845.02848  21797159.790    21797159.3614   21797168.4904
        -0.000          -0.000
    -42740.139 9    -25566.85947  23161963.955    23161964.3254   23161973.6674
        -0.000          -0.000
   -900549.419 9   -679773.09149  20669367.866    20669367.4054   20669375.5804
        -0.000          -0.000
   6157008.380 9   4798261.10547  22365982.416    22365982.3124   22365993.1274
        -0.000          -0.000
 -10439432.072 9  -8079854.19847  23022194.193    23022194.4674   23022206.3874
        -0.000          -0.000
 99  4  5 17 53 30.0010000  0  6  9  2 26  7 27  4                   0.001000154
 -11175821.161 9  -8663504.49946  23614739.241    23614739.2964   23614749.0294
        -0.000          -0.000
    268707.959 9    227391.35048  21801444.806    21801444.3844   21801453.5704
        -0.000          -0.000
     -5801.550 9      3216.38547  23168993.132    23168993.5104   23169002.9214
        -0.000          -0.000
   -875492.027 9   -660247.89249  20674136.128    20674135.7044   20674143.8714
        -0.000          -0.000
   6249568.927 9   4870386.03647  22383596.206    22383596.0894   22383607.0014
        -0.000          -0.000
 -10538725.625 9  -8157225.66647  23003299.171    23003299.4584   23003311.2624
        -0.000          -0.000
 99  4  5 17 54  0.0010000  0  6  9  2 26  7 27  4                   0.001000172
 -11267618.796 9  -8735035.07246  23597270.675    23597270.6994   23597280.6164
        -0.000          -0.000
    291375.711 9    245054.47048  21805758.416    21805757.9984   21805767.1954
        -0.000          -0.000
     31511.201 9     32291.19647  23176093.498    23176093.8844   23176103.4314
        -0.000          -0.000
   -850111.441 9   -640470.85049  20678965.982    20678965.5404   20678973.6924
        -0.000          -0.000
   6342449.724 9   4942760.51047  22401270.912    22401270.8434   22401281.7854
        -0.000          -0.000
 -10637902.354 9  -8234506.10347  22984426.336    22984426.6334   22984438.4124
        -0.000          -0.000
 99  4  5 17 54 30.0010000  0  6  9  2 26  7 27  4                   0.001000166
 -11359240.287 9  -8806428.38046  23579835.670    23579835.7094   23579845.6714
        -0.000          -0.000
    314189.858 9    262831.66048  21810099.812    21810099.3924   21810108.6384
        -0.000          -0.000
     69208.580 9     61665.70547  23183267.118    23183267.4884   23183277.1344
        -0.000          -0.000
   -824397.174 9   -620433.79949  20683859.300    20683858.8624   20683867.0064
        -0.000          -0.000
   6435638.312 9   5015374.81147  22419004.199    22419004.1664   22419015.1444
        -0.000          -0.000
 -10736961.400 9  -8311694.84547  22965575.873    22965576.1834   22965588.0174
        -0.000          -0.000
 99  4  5 17 55  0.0010000  0  6  9  2 26  7 27  4                   0.001000145
 -11450658.384 9  -8877663.20846  23562439.351    23562439.3534   23562449.4904
        -0.000          -0.000
    337198.861 9    280760.69448  21814478.335    21814477.9414   21814487.1924
        -0.000          -0.000
    107343.734 9     91381.33447  23190524.021    23190524.3454   23190534.1284
        -0.000          -0.000
   -798297.265 9   -600096.24049  20688826.015    20688825.5644   20688833.7164
        -0.000          -0.000
   6529178.731 9   5088263.25847  22436804.489    22436804.4334   22436815.5114
        -0.000          -0.000
 -10835846.144 9  -8388747.75547  22946758.570    22946758.8904   22946770.7794
        -0.000          -0.000
 99  4  5 17 55 30.0010000  0  6  9  2 26  7 27  4                   0.001000126
 -11541840.055 9  -8948713.80746  23545088.056    23545088.0544   23545098.2514
        -0.000          -0.000
    360445.101 9    298874.58348  21818902.060    21818901.6494   21818910.9064
        -0.000          -0.000
    145962.755 9    121474.00847  23197872.983    23197873.3174   23197883.2174
        -0.000          -0.000
   -771769.037 9   -579424.92949  20693874.211    20693873.7694   20693881.9334
        -0.000          -0.000
   6623111.842 9   5161457.69447  22454679.513    22454679.4584   22454690.5884
        -0.000          -0.000
 -10934508.585 9  -8465627.46347  22927983.570    22927983.9274   22927995.8324
        -0.000          -0.000
 99  4  5 17 56  0.0010000  0  6  9  2 26  7 27  4                   0.001000113
 -11632781.785 9  -9019577.43546  23527782.413    23527782.3864   23527792.6354
        -0.000          -0.000
    383904.357 9    317154.46448  21823366.303    21823365.8784   21823375.1734
        -0.000          -0.000
    185032.410 9    151917.82847  23205307.741    23205308.1294   23205317.9844
        -0.000          -0.000
   -744832.916 9   -558435.76849  20699000.009    20698999.5814   20699007.7354
        -0.000          -0.000
   6717407.679 9   5234934.77647  22472623.600    22472623.5164   22472634.6864
        -0.000          -0.000
 -11032947.552 9  -8542333.02347  22909251.172    22909251.5454   22909263.3824
        -0.000          -0.000
 99  4  5 17 56 30.0010000  0  6  9  2 26  7 27  4                   0.001000104
 -11723504.058 9  -9090270.05346  23510518.473    23510518.4974   23510528.7474
        -0.000          -0.000
    407568.818 9    335594.24248  21827869.512    21827869.1004   21827878.4614
        -0.000          -0.000
    224523.677 9    182690.17847  23212822.709    23212823.1074   23212832.9504
        -0.000          -0.000
   -717519.063 9   -537152.27049  20704197.727    20704197.2724   20704205.4334
        -0.000          -0.000
   6812043.672 9   5308676.91747  22490632.347    22490632.2994   22490643.4774
        -0.000          -0.000
 -11131159.605 9  -8618861.77447  22890562.050    22890562.4044   22890574.1574
        -0.000          -0.000
 99  4  5 17 57  0.0010000  0  6  9  2 26  7 27  4                   0.001000094
 -11814039.343 9  -9160816.95846  23493290.171    23493290.1544   23493300.4834
        -0.000          -0.000
    431406.341 9    354168.86648  21832405.670    21832405.2704   21832414.6784
        -0.000          -0.000
    264389.230 9    213754.17447  23220408.933    23220409.3354   23220419.1244
        -0.000          -0.000
   -689875.082 9   -515611.52549  20709458.181    20709457.7414   20709465.8914
        -0.000          -0.000
   6906998.644 9   5382667.60647  22508701.801    22508701.7604   22508712.9624
        -0.000          -0.000
 -11229169.729 9  -8695233.17847  22871911.223    22871911.5554   22871923.2754
        -0.000          -0.000
 99  4  5 17 57 30.0010000  0  6  9  2 26  7 27  4                   0.001000089
 -11904365.703 9  -9231201.06946  23476101.602    23476101.5844   23476111.8984
        -0.000          -0.000
    455423.184 9    372883.23048  21836975.953    21836975.5374   21836985.0004
        -0.000          -0.000
    304639.856 9    245118.23047  23228068.457    23228068.8424   23228078.6144
        -0.000          -0.000
   -661887.480 9   -493803.01849  20714784.063    20714783.6144   20714791.7414
        -0.000          -0.000
   7002278.501 9   5456911.45347  22526833.134    22526833.0684   22526844.2844
        -0.000          -0.000
 -11326968.027 9  -8771439.52047  22853300.724    22853301.0994   22853312.7474
        -0.000          -0.000
 99  4  5 17 58  0.0010000  0  6  9  2 26  7 27  4                   0.001000092
 -11994470.737 9  -9301412.70546  23458955.163    23458955.1134   23458965.4154
        -0.000          -0.000
    479623.057 9    391740.20948  21841580.984    21841580.5884   21841590.1164
        -0.000          -0.000
    345284.244 9    276789.09747  23235802.948    23235803.3474   23235812.9684
        -0.000          -0.000
   -633551.458 9   -471723.01749  20720176.273    20720175.8314   20720183.9614
        -0.000          -0.000
   7097887.069 9   5531411.44447  22545027.037    22545026.9424   22545038.1304
        -0.000          -0.000
 -11424546.723 9  -8847474.74847  22834732.051    22834732.4244   22834744.0354
        -0.000          -0.000
 99  4  5 17 58 30.0010000  0  6  9  2 26  7 27  4                   0.001000078
 -12084382.316 9  -9371473.58446  23441845.439    23441845.3394   23441855.7594
        -0.000          -0.000
    503996.789 9    410732.65548  21846219.172    21846218.7874   21846228.3854
        -0.000          -0.000
    386327.320 9    308770.63447  23243613.269    23243613.6314   23243623.2054
        -0.000          -0.000
   -604875.917 9   -449378.45849  20725633.087    20725632.6334   20725640.8054
        -0.000          -0.000
   7193818.819 9   5606163.24747  22563282.444    22563282.3444   22563293.5164
        -0.000          -0.000
 -11521913.441 9  -8923344.79847  22816203.777    22816204.0614   22816215.6794
        -0.000          -0.000
 99  4  5 17 59  0.0010000  0  6  9  2 26  7 27  4                   0.001000074
 -12174053.709 9  -9441347.31046  23424781.443    23424781.3414   23424791.7504
        -0.000          -0.000
    528578.507 9    429887.17348  21850896.989    21850896.5894   21850906.2434
        -0.000          -0.000
    427817.482 9    341100.55947  23251508.635    23251508.9654   23251518.5844
        -0.000          -0.000
   -575825.899 9   -426742.09549  20731161.102    20731160.6464   20731168.8254
        -0.000          -0.000
   7290117.282 9   5681200.81047  22581607.507    22581607.4094   22581618.7134
        -0.000          -0.000
 -11619037.562 9  -8999025.81247  22797721.566    22797721.8664   22797733.4314
        -0.000          -0.000
 99  4  5 17 59 30.0010000  0  6  9  2 26  7 27  4                   0.001000069
 -12263497.370 9  -9511043.57046  23407760.760    23407760.6954   23407771.0564
        -0.000          -0.000
    553347.340 9    449187.48848  21855610.403    21855609.9764   21855619.7024
        -0.000          -0.000
    469744.363 9    373770.76947  23259487.116    23259487.4724   23259497.1294
        -0.000          -0.000
   -546431.127 9   -403837.09549  20736754.758    20736754.3144   20736762.4974
        -0.000          -0.000
   7386753.509 9   5756501.55747  22599996.906    22599996.8774   22600008.1674
        -0.000          -0.000
 -11715943.841 9  -9074537.10147  22779280.805    22779281.1324   22779292.6504
        -0.000          -0.000
 99  4  5 18  0  0.0010000  0  6  9  2 26  7 27  4                   0.001000074
 -12352718.165 9  -9580566.18146  23390782.459    23390782.4394   23390792.7524
        -0.000          -0.000
    578301.461 9    468632.18348  21860359.035    21860358.6284   21860368.3804
        -0.000          -0.000
    512083.357 9    406762.11347  23267544.063    23267544.4344   23267554.0194
        -0.000          -0.000
   -516703.291 9   -380672.57149  20742411.800    20742411.3574   20742419.5644
        -0.000          -0.000
   7483736.465 9   5832072.48247  22618452.377    22618452.3214   22618463.5834
        -0.000          -0.000
 -11812627.668 9  -9149875.03947  22760882.494    22760882.8394   22760894.2204
        -0.000          -0.000
 99  4  5 18  0 30.0010000  0  6  9  2 26  7 27  4                   0.001000073
 -12441747.246 9  -9649939.40846  23373840.735    23373840.7074   23373851.0024
        -0.000          -0.000
    603402.694 9    488191.51748  21865135.720    21865135.3024   21865145.0604
        -0.000          -0.000
    554791.527 9    440041.12747  23275671.305    23275671.6774   23275681.2514
        -0.000          -0.000
   -486680.496 9   -357278.20449  20748125.021    20748124.5824   20748132.7284
        -0.000          -0.000
   7581039.405 9   5907892.73847  22636968.684    22636968.6024   22636979.9024
        -0.000          -0.000
 -11909131.115 9  -9225072.41847  22742518.604    22742518.8724   22742530.1104
        -0.000          -0.000
 99  4  5 18  1  0.0010000  0  6  9  2 26  7 27  4                   0.001000080
 -12530563.908 9  -9719147.12146  23356939.400    23356939.3984   23356949.6214
        -0.000          -0.000
    628661.992 9    507874.01848  21869942.416    21869942.0044   21869951.7474
        -0.000          -0.000
    597869.860 9    473608.56747  23283868.925    23283869.3524   23283878.9424
        -0.000          -0.000
   -456356.439 9   -333649.09249  20753895.508    20753895.0474   20753903.1964
        -0.000          -0.000
   7678670.327 9   5983968.58347  22655547.326    22655547.2514   22655558.6004
        -0.000          -0.000
 -12005448.725 9  -9300125.00047  22724189.943    22724190.2204   22724201.3794
        -0.000          -0.000
 99  4  5 18  1 30.0010000  0  6  9  2 26  7 27  4                   0.001000089
 -12619170.792 9  -9788191.37246  23340078.000    23340077.9914   23340088.1434
        -0.000          -0.000
    654084.111 9    527683.38648  21874780.150    21874779.7454   21874789.4174
        -0.000          -0.000
    641301.136 9    507451.03947  23292133.732    23292134.1314   23292143.7364
        -0.000          -0.000
   -425724.789 9   -309780.30249  20759724.537    20759724.1024   20759732.2324
        -0.000          -0.000
   7776619.573 9   6060292.45347  22674186.605    22674186.5074   22674197.9134
        -0.000          -0.000
 -12101580.750 9  -9375032.97347  22705896.461    22705896.7854   22705907.9464
        -0.000          -0.000
 99  4  5 18  2  0.0010000  0  6  9  2 26  7 27  4                   0.001000100
 -12707561.739 9  -9857067.35646  23323257.669    23323257.6354   23323267.7694
        -0.000          -0.000
    679676.360 9    547625.32648  21879650.266    21879649.8434   21879659.4704
        -0.000          -0.000
    685089.457 9    541571.70847  23300466.442    23300466.8824   23300476.4054
        -0.000          -0.000
   -394779.319 9   -285666.97949  20765613.306    20765612.8554   20765621.0224
        -0.000          -0.000
   7874889.194 9   6136865.96747  22692886.951    22692886.8114   22692898.2184
        -0.000          -0.000
 -12197518.441 9  -9449789.51147  22687639.937    22687640.3144   22687651.4794
        -0.000          -0.000
 99  4  5 18  2 30.0010000  0  6  9  2 26  7 27  4                   0.001000112
 -12795724.614 9  -9925765.64347  23306480.744    23306480.6994   23306490.7254
        -0.000          -0.000
    705438.792 9    567699.88048  21884552.789    21884552.3694   21884561.9604
        -0.000          -0.000
    729250.955 9    575983.17747  23308870.226    23308870.6444   23308880.1254
        -0.000          -0.000
   -363523.139 9   -261311.54649  20771561.206    20771560.7574   20771568.9224
        -0.000          -0.000
   7973459.925 9   6213674.11247  22711644.465    22711644.2964   22711655.7914
        -0.000          -0.000
 -12293254.970 9  -9524389.30747  22669421.808    22669422.1564   22669433.3394
        -0.000          -0.000
 99  4  5 18  3  0.0010000  0  6  9  2 26  7 27  4                   0.001000123
 -12883642.487 9  -9994273.00547  23289750.468    23289750.4324   23289760.4164
        -0.000          -0.000
    731372.147 9    587907.62048  21889487.829    21889487.4034   21889497.0254
        -0.000          -0.000
    773797.806 9    610694.91247  23317347.283    23317347.6864   23317357.2244
        -0.000          -0.000
   -331943.102 9   -236703.75649  20777570.729    20777570.2874   20777578.4154
        -0.000          -0.000
   8072320.401 9   6290708.03347  22730457.009    22730456.9414   22730468.5634
        -0.000          -0.000
 -12388761.314 9  -9598809.73147  22651247.492    22651247.8784   22651258.9884
        -0.000          -0.000
 99  4  5 18  3 30.0010000  0  6  9  2 26  7 27  4                   0.001000122
 -12971323.519 9 -10062595.82147  23273065.275    23273065.2424   23273075.2014
        -0.000          -0.000
    757451.270 9    608228.94148  21894450.549    21894450.1374   21894459.7714
        -0.000          -0.000
    818712.327 9    645693.14247  23325894.331    23325894.7094   23325904.2904
        -0.000          -0.000
   -300056.048 9   -211856.74049  20783638.634    20783638.1774   20783646.3674
        -0.000          -0.000
   8171454.366 9   6367955.06147  22749321.703    22749321.6724   22749333.3324
        -0.000          -0.000
 -12484041.837 9  -9673054.19747  22633116.202    22633116.5794   22633127.6254
        -0.000          -0.000
 99  4  5 18  4  0.0010000  0  6  9  2 26  7 27  4                   0.001000129
 -13058739.567 9 -10130712.14647  23256430.462    23256430.4584   23256440.4794
        -0.000          -0.000
    783700.064 9    628682.48048  21899445.608    21899445.1994   21899454.8354
        -0.000          -0.000
    864026.945 9    681003.13747  23334517.435    23334517.8204   23334527.4804
        -0.000          -0.000
   -267843.514 9   -186756.10349  20789768.478    20789768.0434   20789776.2944
        -0.000          -0.000
   8270886.645 9   6445434.52547  22768243.335    22768243.2524   22768254.8774
        -0.000          -0.000
 -12579059.005 9  -9747093.45747  22615035.012    22615035.3574   22615046.4234
        -0.000          -0.000
 99  4  5 18  4 30.0010000  0  6  9  2 26  7 27  4                   0.001000146
 -13145880.253 9 -10198613.90347  23239848.084    23239848.0684   23239858.0754
        -0.000          -0.000
    810136.425 9    649282.17848  21904476.323    21904475.8974   21904485.5634
        -0.000          -0.000
    909748.250 9    716630.03047  23343217.899    23343218.2964   23343228.0264
        -0.000          -0.000
   -235287.370 9   -161387.72049  20795963.739    20795963.2944   20795971.5434
        -0.000          -0.000
   8370633.971 9   6523159.47747  22787224.963    22787224.8124   22787236.3134
        -0.000          -0.000
 -12673792.990 9  -9820912.04947  22597007.559    22597007.9274   22597019.0474
        -0.000          -0.000
 99  4  5 18  5  0.0010000  0  6  9  2 26  7 27  4                   0.001000153
 -13232776.893 9 -10266325.50947  23223312.108    23223312.0864   23223322.0644
        -0.000          -0.000
    836756.294 9    670024.86948  21909541.954    21909541.5404   21909551.1844
        -0.000          -0.000
    955849.063 9    752552.64447  23351990.598    23351991.0034   23352000.8324
        -0.000          -0.000
   -202402.302 9   -135763.02949  20802221.589    20802221.1524   20802229.3664
        -0.000          -0.000
   8470688.801 9   6601124.04847  22806264.967    22806264.8014   22806276.3474
        -0.000          -0.000
 -12768269.124 9  -9894529.71847  22579029.272    22579029.6334   22579040.7544
        -0.000          -0.000
 99  4  5 18  5 30.0010000  0  6  9  2 26  7 27  4                   0.001000167
 -13319434.342 9 -10333850.72147  23206821.689    23206821.7224   23206831.6354
        -0.000          -0.000
    863587.855 9    690932.51948  21914647.955    21914647.5254   21914657.1204
        -0.000          -0.000
   1002329.622 9    788771.16247  23360835.512    23360835.8904   23360845.8184
        -0.000          -0.000
   -169199.136 9   -109890.47049  20808539.945    20808539.5184   20808547.7384
        -0.000          -0.000
   8571059.621 9   6679334.84447  22825364.986    22825364.8984   22825376.5074
        -0.000          -0.000
 -12862484.814 9  -9967944.44047  22561100.587    22561100.9154   22561112.0374
        -0.000          -0.000
 99  4  5 18  6  0.0010000  0  6  9  2 26  7 27  4                   0.001000179
 -13405876.805 9 -10401208.41547  23190372.200    23190372.2094   23190382.2104
        -0.000          -0.000
    890629.287 9    712003.69748  21919793.826    21919793.3934   21919802.9764
        -0.000          -0.000
   1049164.054 9    825265.43647  23369747.728    23369748.1604   23369758.2284
        -0.000          -0.000
   -135706.202 9    -83792.11749  20814913.475    20814913.0464   20814921.2784
        -0.000          -0.000
   8671714.845 9   6757767.25747  22844519.166    22844519.0984   22844530.8494
        -0.000          -0.000
 -12956458.364 9 -10041170.49147  22543217.929    22543218.2454   22543229.3754
        -0.000          -0.000
 99  4  5 18  6 30.0010000  0  6  9  2 26  7 27  4                   0.001000191
 -13492103.752 9 -10468398.15747  23173963.769    23173963.7394   23173973.7444
        -0.000          -0.000
    917876.486 9    733235.22048  21924978.784    21924978.3834   21924987.9734
        -0.000          -0.000
   1096337.998 9    862024.25547  23378724.640    23378725.0454   23378735.2154
        -0.000          -0.000
   -101934.566 9    -57476.60349  20821340.047    20821339.6264   20821347.8914
        -0.000          -0.000
   8772645.911 9   6836414.59647  22863725.890    22863725.8624   22863737.7234
        -0.000          -0.000
 -13050194.710 9 -10114211.71447  22525380.383    22525380.6744   22525391.9004
        -0.000          -0.000
 99  4  5 18  7  0.0010000  0  6  9  2 26  7 27  4                   0.001000184
 -13578145.259 9 -10535443.41447  23157590.546    23157590.5244   23157600.5454
        -0.000          -0.000
    945283.650 9    754591.38948  21930194.258    21930193.8534   21930203.4464
        -0.000          -0.000
   1143804.012 9    899010.65647  23387757.244    23387757.6024   23387767.7584
        -0.000          -0.000
    -67934.111 9    -30982.78649  20827810.171    20827809.7474   20827818.0104
        -0.000          -0.000
   8873798.292 9   6915234.39647  22882974.862    22882974.7564   22882986.6914
        -0.000          -0.000
 -13143726.620 9 -10187093.62847  22507581.692    22507582.0354   22507593.3044
        -0.000          -0.000
 99  4  5 18  7 30.0010000  0  6  9  2 26  7 27  4                   0.001000181
 -13663954.731 9 -10602307.85747  23141261.576    23141261.5084   23141271.5524
        -0.000          -0.000
    972862.930 9    776081.67248  21935442.454    21935442.0394   21935451.6534
        -0.000          -0.000
   1191588.563 9    936245.27547  23396850.464    23396850.8374   23396860.9494
        -0.000          -0.000
    -33674.207 9     -4286.79849  20834329.660    20834329.2144   20834337.4594
        -0.000          -0.000
   8975201.934 9   6994249.97347  22902271.587    22902271.4474   22902283.3644
        -0.000          -0.000
 -13237018.320 9 -10259788.37147  22489828.741    22489829.1254   22489840.3444
        -0.000          -0.000
 99  4  5 18  8  0.0010000  0  6  9  2 26  7 27  4                   0.001000161
 -13749540.556 9 -10668998.03247  23124975.096    23124975.0234   23124985.0874
        -0.000          -0.000
   1000590.629 9    797687.60848  21940718.925    21940718.5064   21940728.1534
        -0.000          -0.000
   1239667.204 9    973709.05447  23405999.640    23406000.0334   23406010.1684
        -0.000          -0.000
       847.650 9     22613.30449  20840898.962    20840898.5064   20840906.8244
        -0.000          -0.000
   9076851.051 9   7073456.82747  22921614.860    22921614.7564   22921626.7784
        -0.000          -0.000
 -13330086.435 9 -10332308.88847  22472118.474    22472118.8064   22472130.0084
        -0.000          -0.000
 99  4  5 18  8 30.0010000  0  6  9  2 26  7 27  4                   0.001000135
 -13834869.620 9 -10735488.14747  23108737.433    23108737.4144   23108747.4124
        -0.000          -0.000
   1028483.466 9    819422.22348  21946026.753    21946026.3524   21946036.0294
        -0.000          -0.000
   1288072.140 9   1011427.09047  23415210.984    23415211.3364   23415221.4704
        -0.000          -0.000
     35673.602 9     49750.35749  20847526.048    20847525.6184   20847534.0004
        -0.000          -0.000
   9178787.615 9   7152887.67647  22941012.847    22941012.7574   22941024.8724
        -0.000          -0.000
 -13422896.718 9 -10404628.50147  22454457.196    22454457.5524   22454468.6574
        -0.000          -0.000
 99  4  5 18  9  0.0010000  0  6  9  2 26  7 27  4                   0.001000117
 -13919897.634 9 -10801743.67147  23092557.057    23092557.0454   23092567.0934
        -0.000          -0.000
   1056585.133 9    841319.56448  21951374.407    21951374.0104   21951383.7214
        -0.000          -0.000
   1336854.317 9   1049439.07647  23424494.193    23424494.4404   23424504.5184
        -0.000          -0.000
     70857.421 9     77166.27049  20854221.368    20854220.9334   20854229.3384
        -0.000          -0.000
   9281057.004 9   7232577.85447  22960474.321    22960474.1844   22960486.3404
        -0.000          -0.000
 -13515394.635 9 -10476704.70747  22436855.456    22436855.7484   22436866.8104
        -0.000          -0.000
 99  4  5 18  9 30.0010000  0  6  9  2 26  7 27  4                   0.001000099
 -14004640.315 9 -10867776.85947  23076430.975    23076430.9494   23076441.0174
        -0.000          -0.000
   1084889.887 9    863375.15648  21956760.664    21956760.2514   21956770.0584
        -0.000          -0.000
   1386013.907 9   1087745.16347  23433848.998    23433849.2634   23433859.3364
        -0.000          -0.000
    106392.905 9    104856.20849  20860983.599    20860983.1524   20860991.5714
        -0.000          -0.000
   9383661.598 9   7312529.25147  22979999.482    22979999.3674   22980011.5354
        -0.000          -0.000
 -13607592.661 9 -10548547.23047  22419310.683    22419310.9544   22419322.0414
        -0.000          -0.000
 99  4  5 18 10  0.0010000  0  6  9  2 26  7 27  4                   0.001000082
 -14089097.058 9 -10933587.22747  23060359.386    23060359.3464   23060369.3674
        -0.000          -0.000
   1113410.094 9    885598.64048  21962187.889    21962187.5044   21962197.3974
        -0.000          -0.000
   1435561.501 9   1126353.58147  23443277.697    23443277.9764   23443287.9944
        -0.000          -0.000
    142272.355 9    132814.17149  20867811.255    20867810.8254   20867819.2474
        -0.000          -0.000
   9486592.051 9   7392734.55447  22999586.628    22999586.5074   22999598.7634
        -0.000          -0.000
 -13699472.479 9 -10620141.79847  22401826.377    22401826.6894   22401837.8354
        -0.000          -0.000
 99  4  5 18 10 30.0010000  0  6  9  2 26  7 27  4                   0.001000079
 -14173246.467 9 -10999158.12047  23044346.326    23044346.3014   23044356.2554
        -0.000          -0.000
   1142154.034 9    907996.46348  21967657.766    21967657.3874   21967667.2344
        -0.000          -0.000
   1485523.576 9   1165284.97247  23452785.323    23452785.5544   23452795.5194
        -0.000          -0.000
    178491.837 9    161037.09549  20874703.644    20874703.2044   20874711.5814
        -0.000          -0.000
   9589847.588 9   7473193.18347  23019235.675    23019235.5444   23019247.8414
        -0.000          -0.000
 -13791007.714 9 -10691467.85747  22384407.659    22384407.9874   22384419.2054
        -0.000          -0.000
 99  4  5 18 11  0.0010000  0  6  9  2 26  7 27  4                   0.001000065
 -14257125.284 9 -11064518.16147  23028384.682    23028384.6424   23028394.6024
        -0.000          -0.000
   1171089.079 9    930543.18648  21973164.055    21973163.6454   21973173.4144
        -0.000          -0.000
   1535855.816 9   1204504.80347  23462363.204    23462363.4934   23462373.5404
        -0.000          -0.000
    215003.465 9    189487.66349  20881651.556    20881651.1144   20881659.4394
        -0.000          -0.000
   9693370.609 9   7553860.21547  23038935.588    23038935.4764   23038947.8584
        -0.000          -0.000
 -13882249.171 9 -10762565.00547  22367044.916    22367045.2274   22367056.4324
        -0.000          -0.000
 99  4  5 18 11 30.0010000  0  6  9  2 26  7 27  4                   0.001000054
 -14340717.803 9 -11129655.11447  23012477.487    23012477.4734   23012487.4134
        -0.000          -0.000
   1200235.320 9    953254.48548  21978710.470    21978710.0564   21978719.7604
        -0.000          -0.000
   1586553.903 9   1244009.70847  23472010.796    23472011.0744   23472021.1974
        -0.000          -0.000
    251811.562 9    218169.25049  20888655.951    20888655.5254   20888663.8114
        -0.000          -0.000
   9797159.315 9   7634734.29146  23058686.075    23058685.9644   23058698.4004
        -0.000          -0.000
 -13973196.525 9 -10833432.97947  22349738.159    22349738.4884   22349749.6174
        -0.000          -0.000
 99  4  5 18 12  0.0010000  0  6  9  2 26  7 27  4                   0.001000040
 -14424014.778 9 -11194561.77347  22996626.486    22996626.5174   22996636.3934
        -0.000          -0.000
   1229594.058 9    976131.37548  21984297.264    21984296.8584   21984306.5634
        -0.000          -0.000
   1637610.458 9   1283793.94047  23481726.677    23481726.9494   23481737.0114
        -0.000          -0.000
    288918.330 9    247083.57149  20895717.229    20895716.7864   20895725.0564
        -0.000          -0.000
   9901199.994 9   7715804.69646  23078484.572    23078484.4174   23078496.9044
        -0.000          -0.000
 -14063843.944 9 -10904067.23147  22332488.475    22332488.8404   22332499.8074
        -0.000          -0.000
 99  4  5 18 12 30.0010000  0  6  9  2 26  7 27  4                   0.001000010
 -14507037.433 9 -11259254.69147  22980827.779    22980827.7844   22980837.6014
        -0.000          -0.000
   1259145.049 9    999158.06948  21989920.664    21989920.2754   21989929.9504
        -0.000          -0.000
   1688988.644 9   1323828.78347  23491503.717    23491503.9904   23491514.0724
        -0.000          -0.000
    326307.601 9    276218.02049  20902832.250    20902831.8114   20902840.1394
        -0.000          -0.000
  10005470.902 9   7797054.49646  23098326.884    23098326.7214   23098339.2654
        -0.000          -0.000
 -14154225.796 9 -10974494.55047  22315289.371    22315289.6874   22315300.5954
        -0.000          -0.000
 99  4  5 18 13  0.0010000  0  6  9  2 26  7 27  4                   0.000999982
 -14589763.162 9 -11323716.23447  22965085.579    22965085.6024   22965095.3344
        -0.000          -0.000
   1288922.505 9   1022361.23648  21995587.201    21995586.8224   21995596.4894
        -0.000          -0.000
   1740692.211 9   1364117.17747  23501342.682    23501342.9594   23501352.9774
        -0.000          -0.000
    364006.467 9    305593.72049  20910006.179    20910005.7444   20910014.0834
        -0.000          -0.000
  10109996.048 9   7878502.39246  23118217.555    23118217.3414   23118230.0344
        -0.000          -0.000
 -14244327.748 9 -11044703.76647  22298143.528    22298143.8064   22298154.6804
        -0.000          -0.000
 99  4  5 18 13 30.0010000  0  6  9  2 26  7 27  4                   0.000999969
 -14672193.035 9 -11387947.22747  22949399.646    22949399.6414   22949409.3834
        -0.000          -0.000
   1318903.876 9   1045723.28448  22001292.562    22001292.1824   22001301.8474
        -0.000          -0.000
   1792712.198 9   1404652.14347  23511241.795    23511242.0964   23511252.1614
        -0.000          -0.000
    401992.468 9    335193.15749  20917234.711    20917234.2804   20917242.5964
        -0.000          -0.000
  10214781.260 9   7960152.94446  23138157.646    23138157.4674   23138170.2504
        -0.000          -0.000
 -14334148.497 9 -11114693.86147  22281051.070    22281051.4194   22281062.2804
        -0.000          -0.000
 99  4  5 18 14  0.0010000  0  6  9  2 26  7 27  4                   0.000999974
 -14754329.136 9 -11451949.32147  22933769.605    22933769.6024   22933779.3404
        -0.000          -0.000
   1349063.623 9   1069224.33248  22007031.892    22007031.5194   22007041.2084
        -0.000          -0.000
   1845039.411 9   1445426.49947  23521199.434    23521199.7524   23521209.7884
        -0.000          -0.000
    440253.086 9    365006.58449  20924515.513    20924515.0804   20924523.4024
        -0.000          -0.000
  10319834.608 9   8042012.41846  23158148.791    23158148.6574   23158161.5354
        -0.000          -0.000
 -14423689.191 9 -11184465.73447  22264011.941    22264012.3254   22264023.1124
        -0.000          -0.000
 99  4  5 18 14 30.0010000  0  6  9  2 26  7 27  4                   0.000999996
 -14836192.340 9 -11515738.76247  22918191.578    22918191.5274   22918201.2394
        -0.000          -0.000
   1379371.370 9   1092840.69748  22012799.310    22012798.9164   22012808.6474
        -0.000          -0.000
   1897627.809 9   1486404.36147  23531206.845    23531207.1154   23531217.1264
        -0.000          -0.000
    478749.856 9    395004.02949  20931841.227    20931840.7984   20931849.1494
        -0.000          -0.000
  10425131.775 9   8124061.88746  23178186.413    23178186.2854   23178199.2034
        -0.000          -0.000
 -14512974.797 9 -11254038.84047  22247021.407    22247021.7574   22247032.4244
        -0.000          -0.000
 99  4  5 18 15  0.0010000  0  6  9  2 26  7 27  4                   0.001000024
 -14917785.220 9 -11579317.57547  22902664.983    22902664.9254   22902674.5734
        -0.000          -0.000
   1409801.529 9   1116552.44448  22018590.049    22018589.6584   22018599.4074
        -0.000          -0.000
   1950475.391 9   1527584.19247  23541263.516    23541263.7924   23541273.7984
        -0.000          -0.000
    517470.245 9    425175.71449  20939209.533    20939209.0974   20939217.4814
        -0.000          -0.000
  10530660.999 9   8206292.18646  23198268.176    23198268.0234   23198281.0274
        -0.000          -0.000
 -14602009.453 9 -11323416.40947  22230078.633    22230079.0164   22230089.5704
        -0.000          -0.000
 99  4  5 18 15 30.0010000  0  6  9  2 26  7 27  4                   0.001000052
 -14999087.432 9 -11642669.89147  22887193.654    22887193.5764   22887203.1584
        -0.000          -0.000
   1440363.232 9   1140366.70048  22024405.777    22024405.3624   22024415.1554
        -0.000          -0.000
   2003617.796 9   1568993.74947  23551376.235    23551376.5314   23551386.5654
        -0.000          -0.000
    556436.765 9    455539.19149  20946624.676    20946624.2344   20946632.6424
        -0.000          -0.000
  10636436.433 9   8288714.32846  23218396.819    23218396.6984   23218409.7144
        -0.000          -0.000
 -14690760.373 9 -11392572.86947  22213189.886    22213190.2184   22213200.7834
        -0.000          -0.000
 99  4  5 18 16  0.0010000  0  6  9  2 26  7 27  4                   0.001000070
 -15080083.432 9 -11705783.60247  22871780.613    22871780.5264   22871790.1204
        -0.000          -0.000
   1471097.957 9   1164315.76948  22030254.363    22030253.9834   22030263.8214
        -0.000          -0.000
   2057083.651 9   1610655.34647  23561550.472    23561550.8374   23561560.9014
        -0.000          -0.000
    595685.831 9    486122.83449  20954093.566    20954093.1234   20954101.5444
        -0.000          -0.000
  10742462.774 9   8371331.98446  23238573.258    23238573.1204   23238586.1664
        -0.000          -0.000
 -14779197.923 9 -11461485.15547  22196360.723    22196361.0394   22196371.6654
        -0.000          -0.000
 99  4  5 18 16 30.0010000  0  6  9  2 26  7 27  4                   0.001000082
 -15160758.260 9 -11768647.04547  22856428.621    22856428.5744   22856438.2294
        -0.000          -0.000
   1502035.077 9   1188422.54948  22036141.567    22036141.1874   22036151.0414
        -0.000          -0.000
   2110913.301 9   1652600.41447  23571793.957    23571794.3464   23571804.3604
        -0.000          -0.000
    635233.997 9    516939.54149  20961619.348    20961618.8834   20961627.3304
        -0.000          -0.000
  10848749.077 9   8454152.20146  23258799.067    23258798.9484   23258812.0724
        -0.000          -0.000
 -14867299.175 9 -11530135.38847  22179595.510    22179595.8464   22179606.4854
        -0.000          -0.000
 99  4  5 18 17  0.0010000  0  6  9  2 26  7 27  4                   0.001000084
 -15241102.929 9 -11831253.23047  22841139.485    22841139.4284   22841149.1494
        -0.000          -0.000
   1533202.700 9   1212708.95148  22042072.631    22042072.2414   22042082.1464
        -0.000          -0.000
   2165140.174 9   1694855.00946  23582113.057    23582113.4124   23582123.4534
        -0.000          -0.000
    675109.129 9    548011.02649  20969207.333    20969206.9004   20969215.3624
        -0.000          -0.000
  10955307.583 9   8537184.52646  23279076.631    23279076.5314   23279089.7914
        -0.000          -0.000
 -14955043.695 9 -11598507.64847  22162898.224    22162898.5654   22162909.1444
        -0.000          -0.000
 99  4  5 18 17 30.0010000  0  6  9  2 26  7 27  4                   0.001000086
 -15321128.271 9 -11893610.58847  22825911.120    22825911.0614   22825920.7784
        -0.000          -0.000
   1564623.502 9   1237192.63048  22048051.807    22048051.4124   22048061.4334
        -0.000          -0.000
   2219738.931 9   1737399.38846  23592502.907    23592503.2604   23592513.4074
        -0.000          -0.000
    715302.149 9    579330.21949  20976855.831    20976855.3954   20976863.8884
        -0.000          -0.000
  11062132.885 9   8620424.73146  23299404.917    23299404.7984   23299418.2054
        -0.000          -0.000
 -15042432.793 9 -11666602.95147  22146268.594    22146268.9274   22146279.4314
        -0.000          -0.000
 99  4  5 18 18  0.0010000  0  6  9  2 26  7 27  4                   0.001000097
 -15400834.230 9 -11955719.07647  22810743.476    22810743.4414   22810753.1284
        -0.000          -0.000
   1596307.850 9   1261881.68448  22054081.180    22054080.7784   22054090.8624
        -0.000          -0.000
   2274687.215 9   1780216.14646  23602959.212    23602959.5914   23602969.8674
        -0.000          -0.000
    755805.095 9    610890.90949  20984563.354    20984562.8894   20984571.4454
        -0.000          -0.000
  11169223.004 9   8703871.28846  23319783.709    23319783.6094   23319797.0874
        -0.000          -0.000
 -15129465.099 9 -11734420.23347  22129706.804    22129707.1534   22129717.6394
        -0.000          -0.000
 99  4  5 18 18 30.0010000  0  6  9  2 26  7 27  4                   0.001000106
 -15480228.771 9 -12017584.89447  22795635.122    22795635.1004   22795644.8334
        -0.000          -0.000
   1628245.962 9   1286768.46148  22060158.819    22060158.4204   22060168.5154
        -0.000          -0.000
   2329951.298 9   1823278.95246  23613475.634    23613476.0004   23613486.3694
        -0.000          -0.000
    796610.750 9    642687.47149  20992328.367    20992327.9344   20992336.5484
        -0.000          -0.000
  11276563.272 9   8787512.75446  23340210.177    23340210.0484   23340223.5654
        -0.000          -0.000
 -15216144.140 9 -11801962.24147  22113212.258    22113212.6124   22113223.1474
        -0.000          -0.000
 99  4  5 18 19  0.0010000  0  6  9  2 26  7 27  4                   0.001000086
 -15559329.298 9 -12079221.61047  22780582.692    22780582.6714   22780592.4834
        -0.000          -0.000
   1660436.048 9   1311851.59248  22066284.364    22066283.9794   22066294.0674
        -0.000          -0.000
   2385491.732 9   1866557.09746  23624044.813    23624045.1644   23624055.4634
        -0.000          -0.000
    837713.152 9    674715.26649  21000149.917    21000149.4894   21000158.1124
        -0.000          -0.000
  11384135.136 9   8871334.70246  23360680.693    23360680.5674   23360694.1064
        -0.000          -0.000
 -15302460.745 9 -11869221.82547  22096786.691    22096787.0434   22096797.6054
        -0.000          -0.000
 99  4  5 18 19 30.0010000  0  6  9  2 26  7 27  4                   0.001000060
 -15638114.338 9 -12140612.49847  22765590.280    22765590.2804   22765600.1314
        -0.000          -0.000
   1692897.028 9   1337145.79848  22072461.544    22072461.1534   22072471.2534
        -0.000          -0.000
   2441323.658 9   1910062.39746  23634669.421    23634669.7294   23634680.0724
        -0.000          -0.000
    879116.882 9    706977.86749  21008028.864    21008028.4244   21008037.0054
        -0.000          -0.000
  11491967.539 9   8955359.64446  23381200.790    23381200.6614   23381214.2174
        -0.000          -0.000
 -15388382.333 9 -11936173.60347  22080436.255    22080436.6224   22080447.1864
        -0.000          -0.000
 99  4  5 18 20  0.0010000  0  6  9  2 26  7 27  4                   0.001000016
 -15716593.010 9 -12201764.65747  22750656.278    22750656.2684   22750666.0784
        -0.000          -0.000
   1725602.003 9   1362630.13648  22078685.172    22078684.7654   22078694.9094
        -0.000          -0.000
   2497445.453 9   1953793.56346  23645349.127    23645349.4554   23645359.9054
        -0.000          -0.000
    920809.527 9    739465.59149  21015962.769    21015962.3324   21015970.8884
        -0.000          -0.000
  11600054.091 9   9039582.63346  23401769.344    23401769.1714   23401782.7014
        -0.000          -0.000
 -15473908.555 9 -12002817.30848  22064161.093    22064161.4394   22064171.9404
        -0.000          -0.000
 99  4  5 18 20 30.0010000  0  6  9  2 26  7 27  4                   0.000999966
 -15794739.041 9 -12262657.62347  22735785.580    22735785.5824   22735795.2734
        -0.000          -0.000
   1758563.238 9   1388314.15748  22084957.520    22084957.1224   22084967.2754
        -0.000          -0.000
   2553873.757 9   1997763.55546  23656087.149    23656087.4314   23656098.0394
        -0.000          -0.000
    962810.195 9    772193.32849  21023955.262    21023954.8194   21023963.3954
        -0.000          -0.000
  11708417.840 9   9124021.61146  23422390.585    23422390.3564   23422403.9454
        -0.000          -0.000
 -15559023.453 9 -12069140.50248  22047964.206    22047964.5924   22047974.9684
        -0.000          -0.000
 99  4  5 18 21  0.0010000  0  6  9  2 26  7 27  4                   0.000999938
 -15872543.469 9 -12323284.39747  22720979.879    22720979.8534   22720989.5104
        -0.000          -0.000
   1791762.619 9   1414183.75348  22091275.193    22091274.7894   22091284.9774
        -0.000          -0.000
   2610607.348 9   2041971.42746  23666883.305    23666883.5974   23666894.2074
        -0.000          -0.000
   1005089.464 9    805138.15549  21032000.781    21032000.3294   21032008.9574
        -0.000          -0.000
  11817059.326 9   9208677.01646  23443064.496    23443064.2934   23443077.9394
        -0.000          -0.000
 -15643741.105 9 -12135154.14648  22031842.941    22031843.3124   22031853.6074
        -0.000          -0.000
 99  4  5 18 21 30.0010000  0  6  9  2 26  7 27  4                   0.000999951
 -15950013.363 9 -12383650.48947  22706237.813    22706237.7784   22706247.4054
        -0.000          -0.000
   1825160.121 9   1440207.72748  22097630.491    22097630.1094   22097640.3504
        -0.000          -0.000
   2667625.930 9   2086401.38146  23677733.584    23677733.9064   23677744.5504
        -0.000          -0.000
   1047600.501 9    838263.58149  21040090.338    21040089.9194   21040098.5934
        -0.000          -0.000
  11925946.925 9   9293524.19746  23463785.281    23463785.1294   23463798.8164
        -0.000          -0.000
 -15728120.150 9 -12200903.93448  22015786.091    22015786.4384   22015796.7424
        -0.000          -0.000
 99  4  5 18 22  0.0010000  0  6  9  2 26  7 27  4                   0.000999977
 -16027180.649 9 -12443780.79047  22691553.302    22691553.2654   22691562.8834
        -0.000          -0.000
   1858696.099 9   1466339.59948  22104012.242    22104011.8514   22104022.0534
        -0.000          -0.000
   2724874.539 9   2131010.57046  23688627.666    23688627.9454   23688638.6934
        -0.000          -0.000
   1090294.783 9    871531.79249  21048214.810    21048214.3944   21048223.1054
        -0.000          -0.000
  12035012.880 9   9378510.34646  23484540.042    23484539.9214   23484553.7044
        -0.000          -0.000
 -15812228.786 9 -12266443.02448  21999780.584    21999780.9494   21999791.2914
        -0.000          -0.000
 99  4  5 18 22 30.0010000  0  7  9  2 26 24  7 27  4                0.001000287
 -16104173.868 9 -12503775.45547  22676901.960    22676901.9484   22676911.4844
        -0.000          -0.000
   1892234.082 9   1492473.02948  22110394.373    22110393.9734   22110404.1304
        -0.000          -0.000
   2782216.841 9   2175692.76846  23699539.649    23699539.9204   23699550.7474
        -0.000          -0.000
  -2711995.328 8   -560446.16742         0.000           0.0004          0.0004
        -0.000          -0.000
   1133016.684 9    904821.52449  21056344.593    21056344.1664   21056352.9194
        -0.000          -0.000
  12144099.242 9   9463512.40046  23505298.635    23505298.5404   23505312.3844
        -0.000          -0.000
 -15896216.291 9 -12331887.71448  21983798.188    21983798.5434   21983808.8934
        -0.000          -0.000
 99  4  5 18 23  0.0010000  0  7  9  2 26 24  7 27  4                0.001000217
 -16180875.736 9 -12563543.09447  22662306.118    22662306.1324   22662315.5484
        -0.000          -0.000
   1925898.582 9   1518705.04248  22116800.566    22116800.1784   22116810.2914
        -0.000          -0.000
   2839788.371 9   2220553.58746  23710495.202    23710495.4954   23710506.4284
        -0.000          -0.000
  -2821345.344 8   -645653.83352         0.000           0.0004          0.0005
        -0.000          -0.000
   1175875.766 9    938218.14749  21064500.458    21064500.0204   21064508.7634
        -0.000          -0.000
  12253321.076 9   9548620.01146  23526083.006    23526082.8614   23526096.9104
        -0.000          -0.000
 -15979957.724 9 -12397140.67548  21967862.613    21967862.9354   21967873.3254
        -0.000          -0.000
 99  4  5 18 23 30.0010000  0  7  9  2 26 24  7 27  4                0.001000187
 -16257196.977 9 -12623014.13847  22647782.654    22647782.6664   22647792.0194
        -0.000          -0.000
   1959788.399 9   1545112.62948  22123249.608    22123249.2334   22123259.3684
        -0.000          -0.000
   2897692.012 9   2265673.19246  23721513.971    23721514.2684   23721525.2484
        -0.000          -0.000
  -2930703.51018   -730867.85444         0.000           0.0005   24668742.0754
        -0.000          -0.000
   1218981.380 9    971806.87249  21072703.234    21072702.8114   21072711.5534
        -0.000          -0.000
  12362773.550 9   9633907.34346  23546911.319    23546911.1524   23546925.3454
        -0.000          -0.000
 -16063348.953 9 -12462120.75048  21951993.662    21951994.0114   21952004.4034
        -0.000          -0.000
 99  4  5 18 24  0.0010000  0  7  9  2 26 24  7 27  4                0.001000147
 -16333207.198 9 -12682242.84047  22633318.372    22633318.3594   22633327.6464
        -0.000          -0.000
   1993843.772 9   1571649.21348  22129730.235    22129729.8564   22129739.9674
        -0.000          -0.000
   2955860.388 9   2310999.09046  23732583.078    23732583.4154   23732594.3324
        -0.000          -0.000
  -3040109.346 8   -816119.08845  24647906.431    24647906.5894   24647922.6054
        -0.000          -0.000
   1262286.263 9   1005550.87349  21080943.927    21080943.4964   21080952.2074
        -0.000          -0.000
  12472401.582 9   9719331.47346  23567773.077    23567772.9304   23567787.1214
        -0.000          -0.000
 -16146425.379 9 -12526855.51948  21936184.694    21936185.0154   21936195.4074
        -0.000          -0.000
 99  4  5 18 24 30.0010000  0  7  9  2 26 24  7 27  4                0.001000112
 -16408879.347 9 -12741208.09747  22618918.429    22618918.4384   22618927.6674
        -0.000          -0.000
   2028103.947 9   1598345.39848  22136249.815    22136249.4134   22136259.5134
        -0.000          -0.000
   3014326.161 9   2356556.71446  23743708.706    23743709.0624   23743720.0634
        -0.000          -0.000
  -3149503.504 8   -901361.19645  24627089.382    24627090.3504   24627106.4124
        -0.000          -0.000
   1305830.523 9   1039481.40249  21089230.207    21089229.7704   21089238.4514
        -0.000          -0.000
  12582249.703 9   9804927.08246  23588676.763    23588676.5984   23588690.8814
        -0.000          -0.000
 -16229128.126 9 -12591299.11648  21920446.791    21920447.1204   21920457.5034
        -0.000          -0.000
 99  4  5 18 25  0.0010000  0  7  9  2 26 24  7 27  4                0.001000072
 -16484229.606 9 -12799922.52647  22604579.699    22604579.6854   22604588.9584
        -0.000          -0.000
   2062552.551 9   1625188.40248  22142805.232    22142804.8254   22142814.9204
        -0.000          -0.000
   3073062.692 9   2402325.32246  23754886.018    23754886.3244   23754897.3994
        -0.000          -0.000
  -3258892.954 8   -986599.64945  24606273.230    24606273.1324   24606289.9184
        -0.000          -0.000
   1349620.579 9   1073603.46149  21097563.225    21097562.7814   21097571.4784
        -0.000          -0.000
  12692314.247 9   9890691.33846  23609621.584    23609621.4984   23609635.7694
        -0.000          -0.000
 -16311469.349 9 -12655461.01248  21904777.680    21904778.0284   21904788.3614
        -0.000          -0.000
 99  4  5 18 25 30.0010000  0  7  9  2 26 24  7 27  4                0.001000036
 -16559235.958 9 -12858368.97747  22590306.380    22590306.3964   22590315.7044
        -0.000          -0.000
   2097203.181 9   1652188.82048  22149399.081    22149398.6404   22149408.7474
        -0.000          -0.000
   3132074.055 9   2448308.06946  23766115.644    23766115.9604   23766127.0894
        -0.000          -0.000
  -3368254.405 8  -1071816.28845  24585462.236    24585462.1394   24585478.8604
        -0.000          -0.000
   1393692.063 9   1107944.81349  21105949.840    21105949.3954   21105958.1104
        -0.000          -0.000
  12802614.948 9   9976639.60746  23630611.339    23630611.3184   23630625.6024
        -0.000          -0.000
 -16393428.739 9 -12719325.37748  21889181.301    21889181.6554   21889191.9294
        -0.000          -0.000
 99  4  5 18 26  0.0010000  0  7  9  2 26 24  7 27  4                0.001000011
 -16633872.505 9 -12916527.27147  22576103.487    22576103.4794   22576112.7864
        -0.000          -0.000
   2132091.424 9   1679374.39748  22156038.094    22156037.6544   22156047.8314
        -0.000          -0.000
   3191365.390 9   2494509.00146  23777398.430    23777398.7394   23777410.0244
        -0.000          -0.000
  -3477574.679 8  -1157000.83445  24564659.209    24564659.2294   24564675.8844
        -0.000          -0.000
   1438063.329 9   1142519.76849  21114393.447    21114393.0004   21114401.6734
        -0.000          -0.000
  12913161.220 9  10062779.22846  23651647.819    23651647.7554   23651662.0914
        -0.000          -0.000
 -16474972.692 9 -12782866.01848  21873663.978    21873664.3074   21873674.5114
        -0.000          -0.000
 99  4  5 18 26 30.0010000  0  7  9  2 26 24  7 27  4                0.001000004
 -16708111.865 9 -12974376.07247  22561976.212    22561976.1994   22561985.4134
        -0.000          -0.000
   2167244.183 9   1706766.08348  22162727.492    22162727.0534   22162737.2624
        -0.000          -0.000
   3250956.521 9   2540943.53346  23788738.253    23788738.5994   23788749.9414
        -0.000          -0.000
  -3586847.351 8  -1242148.29545  24543865.245    24543865.1964   24543881.8644
        -0.000          -0.000
   1482757.734 9   1177346.51849  21122898.533    21122898.0924   21122906.7584
        -0.000          -0.000
  13023960.375 9  10149115.89146  23672732.418    23672732.3884   23672746.7034
        -0.000          -0.000
 -16556081.640 9 -12846067.70348  21858229.403    21858229.7234   21858239.9264
        -0.000          -0.000
 99  4  5 18 27  0.0010000  0  7  9  2 26 24  7 27  4                0.000999987
 -16782001.626 9 -13031952.46047  22547915.394    22547915.3534   22547924.6124
        -0.000          -0.000
   2202628.515 9   1734338.22248  22169461.026    22169460.5914   22169470.7974
        -0.000          -0.000
   3310799.572 9   2587574.36346  23800126.202    23800126.5154   23800137.8464
        -0.000          -0.000
  -3696126.891 8  -1327301.12345  24523069.938    24523069.8424   24523086.5334
        -0.000          -0.000
   1527732.188 9   1212391.48949  21131456.860    21131456.4274   21131465.1294
        -0.000          -0.000
  13134958.546 9  10235607.63046  23693855.009    23693854.8954   23693869.2824
        -0.000          -0.000
 -16636803.652 9 -12908967.88248  21842868.405    21842868.7674   21842878.9484
        -0.000          -0.000
 99  4  5 18 27 30.0010000  0  7  9  2 26 24  7 27  4                0.000999974
 -16855487.869 9 -13089214.41947  22533931.300    22533931.3044   22533940.6204
        -0.000          -0.000
   2238305.308 9   1762138.24848  22176250.113    22176249.6914   22176259.9554
        -0.000          -0.000
   3370937.553 9   2634435.00146  23811570.305    23811570.5724   23811581.8974
        -0.000          -0.000
  -3805355.909 8  -1412414.55845  24502284.220    24502284.1614   24502300.8424
        -0.000          -0.000
   1573028.301 9   1247687.10649  21140076.472    21140076.0604   21140084.7804
        -0.000          -0.000
  13246191.928 9  10322282.65246  23715022.406    23715022.2214   23715036.6854
        -0.000          -0.000
 -16717062.527 9 -12971507.17748  21827595.606    21827596.0004   21827606.1144
        -0.000          -0.000
 99  4  5 18 28  0.0010000  0  7  9  2 26 24  7 27  4                0.000999957
 -16928582.479 9 -13146171.20747  22520021.768    22520021.8034   22520031.1684
        -0.000          -0.000
   2274261.968 9   1790156.35448  22183092.495    22183092.0854   22183102.4084
        -0.000          -0.000
   3431346.071 9   2681506.45046  23823065.817    23823066.0544   23823077.3734
        -0.000          -0.000
  -3914559.572 8  -1497508.24445  24481503.321    24481503.5984   24481520.1794
        -0.000          -0.000
   1618612.037 9   1283206.84949  21148750.855    21148750.4254   21148759.1814
        -0.000          -0.000
  13357636.612 9  10409122.31346  23736229.959    23736229.7094   23736244.2804
        -0.000          -0.000
 -16796874.040 9 -13033697.87748  21812408.048    21812408.3844   21812418.4124
        -0.000          -0.000
 99  4  5 18 28 30.0010000  0  7  9  2 26 24  7 27  4                0.000999943
 -17001298.062 9 -13202832.64847  22506184.430    22506184.4834   22506193.8704
        -0.000          -0.000
   2310481.000 9   1818378.90548  22189984.745    22189984.3734   22189994.7704
        -0.000          -0.000
   3492019.812 9   2728784.57546  23834611.689    23834611.9614   23834623.3694
        -0.000          -0.000
  -4023732.583 8  -1582578.04645  24460728.234    24460728.5314   24460745.0064
        -0.000          -0.000
   1664473.292 9   1318942.83949  21157478.090    21157477.6434   21157486.4464
        -0.000          -0.000
  13469289.857 9  10496124.49946  23757477.072    23757476.8704   23757491.5494
        -0.000          -0.000
 -16876256.174 9 -13095553.99848  21797302.022    21797302.3624   21797312.4114
        -0.000          -0.000
 99  4  5 18 29  0.0010000  0  7  9  2 26 24  7 27  4                0.000999943
 -17073635.758 9 -13259199.64047  22492418.991    22492419.0224   22492428.4164
        -0.000          -0.000
   2346950.669 9   1846796.74448  22196924.816    22196924.4294   22196934.8254
        -0.000          -0.000
   3552951.163 9   2776263.42546  23846206.558    23846206.8644   23846218.3144
        -0.000          -0.000
  -4132859.296 8  -1667611.77245  24439962.172    24439962.3264   24439978.9194
        -0.000          -0.000
   1710598.485 9   1354884.49049  21166255.445    21166254.9964   21166263.8424
        -0.000          -0.000
  13581158.625 9  10583294.61846  23778765.167    23778765.0524   23778779.8724
        -0.000          -0.000
 -16955215.356 9 -13157080.55548  21782276.478    21782276.8344   21782286.9024
        -0.000          -0.000
 99  4  5 18 29 30.0010000  0  7  9  2 26 24  7 27  4                0.000999963
 -17145585.380 9 -13315264.24447  22478727.397    22478727.4214   22478736.7944
        -0.000          -0.000
   2383651.657 9   1875394.84148  22203908.889    22203908.5044   22203918.8664
        -0.000          -0.000
   3614138.904 9   2823942.06346  23857850.320    23857850.5944   23857861.9344
        -0.000          -0.000
  -4241946.825 8  -1752614.95045  24419203.550    24419203.5874   24419220.0924
        -0.000          -0.000
   1756965.356 9   1391014.46249  21175078.799    21175078.3584   21175087.2264
        -0.000          -0.000
  13693235.354 9  10670626.78746  23800092.782    23800092.7884   23800107.6844
        -0.000          -0.000
 -17033763.252 9 -13218286.62848  21767329.225    21767329.5814   21767339.6264
        -0.000          -0.000
 99  4  5 18 30  0.0010000  0  7  9  2 26 24  7 27  4                0.001000004
 -17217175.319 9 -13371048.57747  22465104.231    22465104.2724   22465113.6634
        -0.000          -0.000
   2420560.828 9   1904155.15348  22210932.457    22210932.0624   22210942.5024
        -0.000          -0.000
   3675568.728 9   2871809.33846  23869540.177    23869540.4314   23869551.7664
        -0.000          -0.000
  -4351027.162 9  -1837612.50345  24398446.251    24398446.2474   24398462.6354
        -0.000          -0.000
   1803539.185 9   1427305.70449  21183941.563    21183941.1334   21183949.9574
        -0.000          -0.000
  13805496.998 9  10758103.03446  23821455.638    23821455.6694   23821470.7354
        -0.000          -0.000
 -17111944.615 9 -13279207.09448  21752451.783    21752452.1114   21752462.0864
        -0.000          -0.000
 99  4  5 18 30 30.0010000  0  7  9  2 26 24  7 27  4                0.001000053
 -17288426.264 9 -13426568.75047  22451545.616    22451545.6584   22451555.0654
        -0.000          -0.000
   2457661.573 9   1933064.74648  22217992.519    22217992.1544   22218002.6564
        -0.000          -0.000
   3737224.334 9   2919852.55446  23881272.942    23881273.1684   23881284.6074
        -0.000          -0.000
  -4460113.976 8  -1922615.07645  24377687.680    24377687.6194   24377703.9744
        -0.000          -0.000
   1850302.111 9   1463744.29949  21192840.315    21192839.8824   21192848.6344
        -0.000          -0.000
  13917913.974 9  10845700.31246  23842848.172    23842848.1494   23842863.3604
        -0.000          -0.000
 -17189778.222 9 -13339856.58148  21737640.523    21737640.8354   21737650.7504
        -0.000          -0.000
 99  4  5 18 31  0.0010000  0  7  9  2 26 24  7 27  4                0.001000071
 -17359376.003 9 -13481854.22348  22438044.352    22438044.3954   22438053.8294
        -0.000          -0.000
   2494903.819 9   1962084.60148  22225079.612    22225079.2374   22225089.7104
        -0.000          -0.000
   3799058.559 9   2968034.94246  23893039.640    23893039.9024   23893051.3084
        -0.000          -0.000
  -4569275.324 8  -2007675.71845  24356914.777    24356914.7494   24356931.1524
        -0.000          -0.000
   1897197.030 9   1500285.74849  21201764.228    21201763.7844   21201772.5154
        -0.000          -0.000
  14030425.160 9  10933370.99546  23864258.685    23864258.6374   23864273.8864
        -0.000          -0.000
 -17267308.966 9 -13400270.07548  21722886.831    21722887.1584   21722897.0464
        -0.000          -0.000
 99  4  5 18 31 30.0010000  0  7  9  2 26 24  7 27  4                0.001000082
 -17429967.069 9 -13536860.21148  22424611.323    22424611.3354   22424620.7954
        -0.000          -0.000
   2532363.377 9   1991273.78648  22232208.070    22232207.6834   22232218.0734
        -0.000          -0.000
   3861124.043 9   3016397.53846  23904850.269    23904850.6264   23904861.9684
        -0.000          -0.000
  -4678456.070 8  -2092751.45445  24336138.223    24336138.2624   24336154.6584
        -0.000          -0.000
   1944274.110 9   1536969.13849  21210722.739    21210722.2924   21210731.0444
        -0.000          -0.000
  14143072.809 9  11021148.00146  23885695.243    23885695.1274   23885710.3524
        -0.000          -0.000
 -17344462.980 9 -13460390.01148  21708204.791    21708205.1124   21708215.0464
        -0.000          -0.000
 99  4  5 18 32  0.0010000  0  7  9  2 26 24  7 27  4                0.001000065
 -17500218.662 9 -13591601.68248  22411242.882    22411242.8904   22411252.3004
        -0.000          -0.000
   2570034.135 9   2020627.54948  22239376.630    22239376.2304   22239386.6114
        -0.000          -0.000
   3923397.800 9   3064922.41146  23916700.659    23916701.0424   23916712.3744
        -0.000          -0.000
  -4787648.695 9  -2177836.43245  24315359.407    24315359.5574   24315375.9154
        -0.000          -0.000
   1991527.697 9   1573790.06549  21219714.853    21219714.4174   21219723.2104
        -0.000          -0.000
  14255838.115 8  11109016.70346  23907154.144    23907154.0314   23907169.4124
        -0.000          -0.000
 -17421236.531 9 -13520213.48648  21693595.192    21693595.5074   21693605.4674
        -0.000          -0.000
 99  4  5 18 32 30.0010000  0  7  9  2 26 24  7 27  4                0.001000033
 -17570084.389 9 -13646042.47048  22397947.808    22397947.8144   22397957.2584
        -0.000          -0.000
   2607939.285 9   2050163.94548  22246589.782    22246589.4064   22246599.7944
        -0.000          -0.000
   3985917.070 9   3113638.59846  23928597.800    23928598.1864   23928609.4924
        -0.000          -0.000
  -4896807.476 8  -2262895.02745  24294587.125    24294587.1984   24294603.5984
        -0.000          -0.000
   2039007.573 9   1610787.31749  21228750.064    21228749.6224   21228758.4594
        -0.000          -0.000
  14368760.234 8  11197007.57046  23928642.680    23928642.6754   23928658.1674
        -0.000          -0.000
 -17497579.508 9 -13579701.44948  21679067.517    21679067.8244   21679077.8084
        -0.000          -0.000
 99  4  5 18 33  0.0010000  0  7  9  2 26 24  7 27  4                0.001000000
 -17639543.977 9 -13700166.78848  22384730.000    22384730.0244   22384739.5104
        -0.000          -0.000
   2646094.442 9   2079895.15848  22253850.576    22253850.1804   22253860.5734
        -0.000          -0.000
   4048689.827 9   3162552.30746  23940543.239    23940543.6464   23940554.8754
        -0.000          -0.000
  -5005910.643 9  -2347910.29145  24273825.448    24273825.4214   24273841.8194
        -0.000          -0.000
   2086724.307 9   1647969.14048  21237830.269    21237829.8164   21237838.6674
        -0.000          -0.000
  14481867.759 8  11285142.91346  23950166.522    23950166.5744   23950182.2174
        -0.000          -0.000
 -17573466.462 9 -13638834.07148  21664626.594    21664626.9414   21664636.9014
        -0.000          -0.000
 99  4  5 18 33 30.0010000  0  7  9  2 26 24  7 27  4                0.000999971
 -17708608.600 9 -13753983.34448  22371587.360    22371587.4034   22371596.8684
        -0.000          -0.000
   2684496.942 9   2109819.10348  22261158.401    22261158.0014   22261168.4144
        -0.000          -0.000
   4111697.907 9   3211649.38846  23952533.389    23952533.7964   23952545.0114
        -0.000          -0.000
  -5114935.526 9  -2432864.55045  24253078.693    24253078.6134   24253094.9474
        -0.000          -0.000
   2134670.618 9   1685329.85048  21246954.157    21246953.7004   21246962.5534
        -0.000          -0.000
  14595159.773 8  11373422.00945  23971725.415    23971725.4994   23971741.2834
        -0.000          -0.000
 -17648901.510 9 -13697614.56748  21650271.762    21650272.1194   21650281.9824
        -0.000          -0.000
 99  4  5 18 34  0.0010000  0  7  9  2 26 24  7 27  4                0.000999960
 -17777281.161 9 -13807494.39448  22358519.402    22358519.4294   22358528.8604
        -0.000          -0.000
   2723127.376 9   2139920.65848  22268509.539    22268509.1624   22268519.5944
        -0.000          -0.000
   4174933.114 9   3260923.42846  23964566.767    23964567.1554   23964578.3924
        -0.000          -0.000
  -5223890.624 9  -2517764.42745  24232345.212    24232345.1374   24232361.4174
        -0.000          -0.000
   2182851.715 9   1722873.50948  21256122.723    21256122.2734   21256131.1424
        -0.000          -0.000
  14708649.136 8  11461854.87345  23993321.962    23993322.0394   23993337.8814
        -0.000          -0.000
 -17723904.551 9 -13756058.43348  21635999.212    21635999.5394   21636009.3144
        -0.000          -0.000
 99  4  5 18 34 30.0010000  0  7  9  2 26 24  7 27  4                0.000999967
 -17845579.500 9 -13860713.84448  22345522.658    22345522.6674   22345532.1114
        -0.000          -0.000
   2761966.351 9   2170184.70348  22275900.354    22275899.9664   22275910.3854
        -0.000          -0.000
   4238365.107 9   3310350.82246  23976637.538    23976637.9194   23976649.2924
        -0.000          -0.000
  -5332808.681 9  -2602635.44545  24211618.720    24211618.5464   24211634.7414
        -0.000          -0.000
   2231245.464 9   1760582.86848  21265331.704    21265331.2574   21265340.1944
        -0.000          -0.000
  14822323.607 8  11550431.98645  24014953.817    24014953.8234   24014969.7864
        -0.000          -0.000
 -17798504.172 9 -13814187.95048  21621803.337    21621803.6474   21621813.4344
        -0.000          -0.000
 99  4  5 18 35  0.0010000  0  7  9  2 26 24  7 27  4                0.000999986
 -17913516.657 9 -13913651.85648  22332594.614    22332594.6274   22332604.0484
        -0.000          -0.000
   2801011.072 9   2200609.07648  22283330.372    22283330.0024   22283340.3854
        -0.000          -0.000
   4301959.179 9   3359904.50746  23988739.128    23988739.5514   23988751.0384
        -0.000          -0.000
  -5441703.328 9  -2687488.24146  24190896.533    24190896.4514   24190912.5204
        -0.000          -0.000
   2279827.856 9   1798439.22448  21274576.655    21274576.2174   21274585.1784
        -0.000          -0.000
  14936158.685 8  11639134.23245  24036616.326    24036616.1664   24036632.3034
        -0.000          -0.000
 -17872718.327 9 -13872017.10648  21607680.716    21607681.0644   21607690.8814
        -0.000          -0.000
 99  4  5 18 35 30.0010000  0  7  9  2 26 24  7 27  4                0.001000008
 -17981102.707 9 -13966316.28848  22319733.399    22319733.4204   22319742.7394
        -0.000          -0.000
   2840241.520 9   2231178.17248  22290795.757    22290795.3834   22290805.7824
        -0.000          -0.000
   4365710.668 9   3409580.87246  24000870.785    24000871.2224   24000882.6904
        -0.000          -0.000
  -5550578.423 9  -2772325.80646  24170178.101    24170177.9444   24170194.0934
        -0.000          -0.000
   2328591.572 9   1836436.87148  21283856.162    21283855.7234   21283864.6754
        -0.000          -0.000
  15050132.573 8  11727944.63645  24058305.168    24058304.9314   24058321.1924
        -0.000          -0.000
 -17946560.912 9 -13929556.73248  21593628.863    21593629.2124   21593639.0624
        -0.000          -0.000
 99  4  5 18 36  0.0010000  0  7  9  2 26 24  7 27  4                0.001000035
 -18048316.672 9 -14018690.77748  22306942.932    22306942.9754   22306952.2084
        -0.000          -0.000
   2879679.885 9   2261909.27748  22298300.677    22298300.3084   22298310.7124
        -0.000          -0.000
   4429640.220 9   3459395.97846  24013036.311    24013036.7804   24013048.2214
        -0.000          -0.000
  -5659426.944 9  -2857142.68346  24149464.798    24149464.6644   24149480.8024
        -0.000          -0.000
   2377562.535 9   1874596.00948  21293175.068    21293174.6324   21293183.6034
        -0.000          -0.000
  15164252.584 8  11816868.89745  24080021.833    24080021.6674   24080037.8944
        -0.000          -0.000
 -18020008.491 9 -13986788.55648  21579652.223    21579652.5684   21579662.4204
        -0.000          -0.000
 99  4  5 18 36 30.0010000  0  7  9  2 26 24  7 27  4                0.001000048
 -18115150.166 9 -14070768.79048  22294224.935    22294224.9394   22294234.1164
        -0.000          -0.000
   2919334.590 9   2292808.95648  22305846.822    22305846.4344   22305856.8454
        -0.000          -0.000
   4493758.840 9   3509358.41346  24025237.846    24025238.2734   24025249.7694
        -0.000          -0.000
  -5768231.944 9  -2941925.64746  24128759.892    24128759.6874   24128775.8244
        -0.000          -0.000
   2426735.192 9   1912912.30848  21302532.371    21302531.9344   21302540.9334
        -0.000          -0.000
  15278496.466 8  11905889.67545  24101762.016    24101761.8774   24101778.1884
        -0.000          -0.000
 -18093040.177 9 -14043696.31848  21565754.757    21565755.0984   21565764.9404
        -0.000          -0.000
 99  4  5 18 37  0.0010000  0  7  9  2 26 24  7 27  4                0.001000050
 -18181580.163 9 -14122532.39448  22281583.750    22281583.7714   22281592.8024
        -0.000          -0.000
   2959218.092 9   2323886.91847  22313436.446    22313436.0604   22313446.5224
        -0.000          -0.000
   4558096.721 9   3559491.69246  24037481.176    24037481.5374   24037492.9964
        -0.000          -0.000
  -5876960.138 9  -3026648.77546  24108069.463    24108069.2914   24108085.4184
        -0.000          -0.000
   2476121.524 9   1951395.10948  21311930.352    21311929.9284   21311938.9344
        -0.000          -0.000
  15392867.470 8  11995009.50045  24123526.422    24123526.3994   24123542.7064
        -0.000          -0.000
 -18165629.951 9 -14100259.72848  21551941.332    21551941.6814   21551951.5134
        -0.000          -0.000
 99  4  5 18 37 30.0010000  0  7  9  2 26 24  7 27  4                0.001000045
 -18247582.161 9 -14173962.49148  22269024.035    22269024.0554   22269032.9614
        -0.000          -0.000
   2999356.888 9   2355163.81047  22321074.598    22321074.2224   22321084.7674
        -0.000          -0.000
   4622680.715 9   3609816.76546  24049771.240    24049771.6194   24049783.0584
        -0.000          -0.000
  -5985585.924 9  -3111292.10446  24087398.539    24087398.4514   24087414.5904
        -0.000          -0.000
   2525737.181 9   1990056.60948  21321371.967    21321371.5424   21321380.5444
        -0.000          -0.000
  15507389.467 8  12084246.97645  24145319.656    24145319.5824   24145336.0144
        -0.000          -0.000
 -18237736.135 9 -14156446.31848  21538219.950    21538220.2914   21538230.1264
        -0.000          -0.000
 99  4  5 18 38  0.0010000  0  7  9  2 26 24  7 27  4                0.001000010
 -18313179.797 9 -14225077.50048  22256541.318    22256541.3074   22256550.1154
        -0.000          -0.000
   3039729.684 9   2386623.03448  22328757.398    22328757.0134   22328767.6354
        -0.000          -0.000
   4687473.831 9   3660304.77446  24062101.060    24062101.3544   24062112.9024
        -0.000          -0.000
  -6094142.961 9  -3195881.88046  24066740.637    24066740.6424   24066756.7914
        -0.000          -0.000
   2575545.542 9   2028868.26748  21330850.223    21330849.7704   21330858.7754
        -0.000          -0.000
  15622033.057 8  12173579.19145  24167135.972    24167135.8494   24167152.4914
        -0.000          -0.000
 -18309376.951 9 -14212270.28548  21524587.070    21524587.4084   21524597.2554
        -0.000          -0.000
 99  4  5 18 38 30.0010000  0  7  9  2 26 24  7 27  4                0.000999979
 -18378338.150 9 -14275850.21848  22244142.183    22244142.1614   22244150.8414
        -0.000          -0.000
   3080359.734 9   2418282.71748  22336489.076    22336488.7014   22336499.4424
        -0.000          -0.000
   4752508.654 9   3710981.13046  24074476.802    24074477.1564   24074488.7704
        -0.000          -0.000
  -6202596.991 9  -3280391.39246  24046102.481    24046102.4804   24046118.5404
        -0.000          -0.000
   2625560.337 9   2067840.78048  21340367.694    21340367.2614   21340376.2944
        -0.000          -0.000
  15736838.206 8  12263037.29545  24188982.910    24188982.8954   24188999.6184
        -0.000          -0.000
 -18380530.260 9 -14267714.37948  21511047.008    21511047.3724   21511057.2264
        -0.000          -0.000
 99  4  5 18 39  0.0010000  0  7  9  2 26 24  7 27  4                0.000999954
 -18443079.177 9 -14326297.74048  22231822.444    22231822.4094   22231831.0234
        -0.000          -0.000
   3121234.260 9   2450132.91148  22344267.218    22344266.8664   22344277.7504
        -0.000          -0.000
   4817751.680 9   3761819.73346  24086892.301    24086892.6214   24086904.3384
        -0.000          -0.000
  -6310976.882 9  -3364843.12146  24025478.418    24025478.3284   24025494.4404
        -0.000          -0.000
   2675762.893 9   2106959.60048  21349920.977    21349920.5574   21349929.5754
        -0.000          -0.000
  15851800.024 8  12352617.47545  24210859.669    24210859.7304   24210876.3694
        -0.000          -0.000
 -18451219.537 9 -14322796.88648  21497595.272    21497595.6144   21497605.4584
        -0.000          -0.000
 99  4  5 18 39 30.0010000  0  7  9  2 26 24  7 27  4                0.000999942
 -18507417.234 9 -14376431.26748  22219579.324    22219579.3054   22219587.8994
        -0.000          -0.000
   3162355.875 9   2482175.62748  22352092.522    22352092.1684   22352103.0264
        -0.000          -0.000
   4883175.742 9   3812799.37946  24099342.248    24099342.6324   24099354.2914
        -0.000          -0.000
  -6419299.280 9  -3449250.05546  24004865.373    24004865.2574   24004881.3654
        -0.000          -0.000
   2726151.794 9   2146223.62448  21359509.746    21359509.3094   21359518.3074
        -0.000          -0.000
  15966917.319 8  12442318.79845  24232766.085    24232766.0754   24232782.8334
        -0.000          -0.000
 -18521460.256 9 -14377529.87748  21484228.901    21484229.2584   21484239.0624
        -0.000          -0.000
 99  4  5 18 40  0.0010000  0  7  9  2 26 24  7 27  4                0.000999946
 -18571378.557 9 -14426271.23748  22207407.852    22207407.8424   22207416.3964
        -0.000          -0.000
   3203699.507 9   2514391.35148  22359960.089    22359959.7124   22359970.5304
        -0.000          -0.000
   4948766.838 9   3863909.19746  24111823.899    24111824.2924   24111836.0944
        -0.000          -0.000
  -6527581.649 9  -3533625.77946  23984259.758    23984259.6134   23984275.8304
        -0.000          -0.000
   2776719.813 9   2185627.22048  21369132.555    21369132.1284   21369141.1434
        -0.000          -0.000
  16082177.050 8  12532131.10845  24254699.710    24254699.6794   24254716.5484
        -0.000          -0.000
 -18591285.470 9 -14431939.09548  21470941.644    21470941.9664   21470951.7544
        -0.000          -0.000
 99  4  5 18 40 30.0010000  0  7  9  2 26 24  7 27  4                0.000999954
 -18634972.694 9 -14475825.08148  22195306.276    22195306.2694   22195314.8624
        -0.000          -0.000
   3245265.792 9   2546780.56248  22367869.950    22367869.5764   22367880.4294
        -0.000          -0.000
   5014502.991 9   3915132.03146  24124333.127    24124333.5714   24124345.4024
        -0.000          -0.000
  -6635834.300 9  -3617978.34646  23963659.596    23963659.6044   23963675.8984
        -0.000          -0.000
   2827470.189 9   2225172.91148  21378789.997    21378789.5824   21378798.6654
        -0.000          -0.000
  16197558.471 8  12622038.23745  24276656.449    24276656.3704   24276673.2634
        -0.000          -0.000
 -18660698.690 9 -14486027.28248  21457732.686    21457733.0304   21457742.8114
        -0.000          -0.000
 99  4  5 18 41  0.0010000  0  7  9  2 26 24  7 27  4                0.000999954
 -18698182.497 9 -14525079.45048  22183277.845    22183277.8364   22183286.4744
        -0.000          -0.000
   3287082.312 9   2579364.76748  22375827.365    22375826.9874   22375837.9264
        -0.000          -0.000
   5080375.339 9   3966460.99446  24136868.275    24136868.7244   24136880.6544
        -0.000          -0.000
  -6744047.276 9  -3702299.99546  23943067.071    23943067.1804   23943083.4844
        -0.000          -0.000
   2878429.987 9   2264881.78548  21388487.338    21388486.9394   21388496.0634
        -0.000          -0.000
  16313057.681 8  12712037.14345  24298635.576    24298635.4144   24298652.4384
        -0.000          -0.000
 -18729666.273 9 -14539768.21548  21444608.572    21444608.9064   21444618.7134
        -0.000          -0.000
 99  4  5 18 41 30.0010000  0  7  9  2 26 24  7 27  4                0.000999944
 -18760981.508 9 -14574013.71448  22171327.535    22171327.5294   22171336.2794
        -0.000          -0.000
   3329147.859 9   2612143.00748  22383832.301    22383831.9354   22383842.8564
        -0.000          -0.000
   5146402.433 9   4017910.53446  24149432.871    24149433.3554   24149445.3534
        -0.000          -0.000
  -6852199.471 9  -3786574.26246  23922486.233    23922486.3474   23922502.6434
        -0.000          -0.000
   2929607.195 9   2304760.07448  21398226.108    21398225.6774   21398234.8144
        -0.000          -0.000
  16428671.782 8  12802125.57945  24320636.591    24320636.4834   24320653.4894
        -0.000          -0.000
 -18798170.872 9 -14593148.38348  21431572.529    21431572.8614   21431582.6624
        -0.000          -0.000
 99  4  5 18 42  0.0010000  0  8  9  2 26 24  5  7 27  4             0.000999926
 -18823322.968 9 -14622591.44948  22159464.285    22159464.3024   22159473.0714
        -0.000          -0.000
   3371472.385 9   2645123.04647  22391886.518    22391886.1404   22391897.0164
        -0.000          -0.000
   5212618.251 9   4069507.12746  24162033.460    24162033.9424   24162045.7984
        -0.000          -0.000
  -6960253.808 9  -3870772.27346  23901924.174    23901924.2024   23901940.4404
        -0.000          -0.000
  -4590660.099 8  -3531809.14245  24904674.328    24904673.8844   24904685.8564
        -0.000          -0.000
   2981019.578 9   2344821.61848  21408009.655    21408009.2234   21408018.3364
        -0.000          -0.000
  16544412.914 9  12892313.00045  24342661.786    24342661.6154   24342678.7554
        -0.000          -0.000
 -18866173.718 9 -14646137.57748  21418632.035    21418632.3594   21418642.1084
        -0.000          -0.000
 99  4  5 18 42 30.0010000  0  8  9  2 26 24  5  7 27  4             0.000999912
 -18885199.855 9 -14670807.18148  22147689.445    22147689.4444   22147698.2484
        -0.000          -0.000
   3414044.951 9   2678296.36147  22399987.870    22399987.4914   22399998.4204
        -0.000          -0.000
   5278999.463 9   4121232.60246  24174665.536    24174665.8774   24174677.7434
        -0.000          -0.000
  -7068210.440 9  -3954894.14646  23881380.577    23881380.6944   23881396.8024
        -0.000          -0.000
  -4671790.396 8  -3595027.62645  24889235.656    24889235.2024   24889247.4484
        -0.000          -0.000
   3032648.934 9   2385052.22848  21417834.464    21417834.0124   21417843.0974
        -0.000          -0.000
  16660258.653 8  12982581.91845  24364706.883    24364706.8144   24364724.0724
        -0.000          -0.000
 -18933682.025 9 -14698741.41348  21405785.654    21405785.9834   21405795.6274
        -0.000          -0.000
 99  4  5 18 43  0.0010000  0  8  9  2 26 24  5  7 27  4             0.000999905
 -18946590.084 9 -14718643.70548  22136007.187    22136007.1914   22136016.0644
        -0.000          -0.000
   3456861.668 9   2711659.91347  22408135.652    22408135.2904   22408146.2624
        -0.000          -0.000
   5345586.685 9   4173118.61746  24187336.728    24187336.9954   24187348.9814
        -0.000          -0.000
  -7176028.200 9  -4038907.80146  23860863.467    23860863.6084   23860879.5894
        -0.000          -0.000
  -4752923.707 8  -3658248.45445  24873796.482    24873795.9894   24873808.3644
        -0.000          -0.000
   3084510.754 9   2425463.97548  21427703.474    21427703.0404   21427712.1734
        -0.000          -0.000
  16776250.263 8  13072964.51345  24386779.725    24386779.7024   24386797.0884
        -0.000          -0.000
 -19000683.664 9 -14750950.44748  21393035.651    21393035.9694   21393045.5614
        -0.000          -0.000
 99  4  5 18 43 30.0010000  0  8  9  2 26 24  5  7 27  4             0.000999898
 -19007522.777 9 -14766123.70248  22124412.086    22124412.0694   22124420.9894
        -0.000          -0.000
   3499877.330 9   2745178.49847  22416321.398    22416321.0034   22416331.9594
        -0.000          -0.000
   5412370.730 9   4225157.99046  24200045.323    24200045.6364   24200057.6404
        -0.000          -0.000
  -7283715.390 9  -4122819.71246  23840371.350    23840371.3454   23840387.2004
        -0.000          -0.000
  -4834076.394 8  -3721484.36745  24858353.541    24858353.2004   24858365.5794
        -0.000          -0.000
   3136570.954 9   2466030.30648  21437610.250    21437609.8024   21437619.0064
        -0.000          -0.000
  16892377.198 8  13163452.54045  24408878.317    24408878.3644   24408895.9584
        -0.000          -0.000
 -19067209.663 9 -14802788.85348  21380376.125    21380376.4634   21380386.0334
        -0.000          -0.000
 99  4  5 18 44  0.0010000  0  8  9  2 26 24  5  7 27  4             0.000999903
 -19068011.260 9 -14813257.56248  22112901.476    22112901.4574   22112910.4224
        -0.000          -0.000
   3543104.337 9   2778861.77347  22424547.421    22424547.0294   22424557.9004
        -0.000          -0.000
   5479342.010 9   4277343.25246  24212789.530    24212789.9044   24212801.9774
        -0.000          -0.000
  -7391273.624 9  -4206631.13546  23819903.737    23819903.6544   23819919.3064
        -0.000          -0.000
  -4915242.749 8  -3784730.94745  24842908.023    24842907.6334   24842920.4384
        -0.000          -0.000
   3188827.350 9   2506749.52148  21447554.346    21447553.9274   21447563.1054
        -0.000          -0.000
  17008648.961 8  13254053.42745  24431004.426    24431004.3884   24431022.1814
        -0.000          -0.000
 -19133258.543 9 -14854255.47648  21367807.391    21367807.7254   21367817.3314
        -0.000          -0.000
 99  4  5 18 44 30.0010000  0  8  9  2 26 24  5  7 27  4             0.000999922
 -19128072.689 9 -14860058.65748  22101472.119    22101472.0894   22101481.0884
        -0.000          -0.000
   3586554.100 9   2812718.61947  22432815.698    22432815.3054   22432826.1364
        -0.000          -0.000
   5546492.408 9   4329668.09846  24225567.771    24225568.2284   24225580.3824
        -0.000          -0.000
  -7498716.318 9  -4290352.53046  23799458.012    23799457.8584   23799473.4584
        -0.000          -0.000
  -4996436.034 8  -3847998.48845  24827457.450    24827457.1094   24827469.9274
        -0.000          -0.000
   3241264.826 9   2547609.84248  21457532.974    21457532.5294   21457541.6674
        -0.000          -0.000
  17125064.837 8  13344766.59645  24453157.959    24453157.9994   24453175.8284
        -0.000          -0.000
 -19198839.587 9 -14905357.55348  21355327.659    21355327.9944   21355337.6184
        -0.000          -0.000
 99  4  5 18 45  0.0010000  0  8  9  2 26 24  5  7 27  4             0.000999942
 -19187721.290 9 -14906538.06048  22090121.383    22090121.3474   22090130.3504
        -0.000          -0.000
   3630219.741 9   2846743.68647  22441125.068    22441124.6724   22441135.5614
        -0.000          -0.000
   5613809.781 9   4382123.05246  24238377.848    24238378.3204   24238390.5434
        -0.000          -0.000
  -7606060.338 9  -4373997.05246  23779030.955    23779030.8604   23779046.3484
        -0.000          -0.000
  -5077684.738 8  -3911309.21145  24811996.352    24811996.0824   24812009.0014
        -0.000          -0.000
   3293861.083 9   2588593.88848  21467541.766    21467541.3004   21467550.4464
        -0.000          -0.000
  17241606.743 8  13435577.96745  24475335.468    24475335.6674   24475353.4104
        -0.000          -0.000
 -19263963.988 9 -14956103.80548  21342934.834    21342935.1844   21342944.8474
        -0.000          -0.000
 99  4  5 18 45 30.0010000  0  8  9  2 26 24  5  7 27  4             0.000999960
 -19246949.763 9 -14952690.09248  22078850.528    22078850.5104   22078859.5264
        -0.000          -0.000
   3674130.543 9   2880959.78147  22449481.137    22449480.7384   22449491.6384
        -0.000          -0.000
   5681273.916 9   4434692.34746  24251216.001    24251216.4624   24251228.7034
        -0.000          -0.000
  -7713309.238 9  -4457567.45246  23758622.024    23758621.9684   23758637.3614
        -0.000          -0.000
  -5158987.906 8  -3974662.37145  24796524.920    24796524.8124   24796537.5384
        -0.000          -0.000
   3346605.615 9   2629693.46848  21477578.674    21477578.2424   21477587.4294
        -0.000          -0.000
  17358254.621 8  13526471.91645  24497533.116    24497533.0504   24497550.8524
        -0.000          -0.000
 -19328619.328 9 -15006484.54748  21330631.307    21330631.6714   21330641.3334
        -0.000          -0.000
 99  4  5 18 46  0.0010000  0  8  9  2 26 24  5  7 27  4             0.000999969
 -19305758.518 9 -14998515.06848  22067659.556    22067659.5474   22067668.5624
        -0.000          -0.000
   3718292.331 9   2915371.44447  22457884.987    22457884.5704   22457895.4784
        -0.000          -0.000
   5748861.548 9   4487357.88446  24264077.631    24264077.9984   24264090.2874
        -0.000          -0.000
  -7820474.816 9  -4541072.93046  23738229.005    23738228.9164   23738244.1864
        -0.000          -0.000
  -5240353.831 8  -4038064.42145  24781041.658    24781041.6124   24781054.2864
        -0.000          -0.000
   3399486.939 9   2670899.63848  21487641.733    21487641.3054   21487650.5194
        -0.000          -0.000
  17474985.262 8  13617430.34345  24519746.604    24519746.5624   24519764.5554
        -0.000          -0.000
 -19392812.940 9 -15056505.49748  21318415.671    21318416.0574   21318425.6274
        -0.000          -0.000
 99  4  5 18 46 30.0010000  0  8  9  2 26 24  5  7 27  4             0.000999972
 -19364134.618 9 -15044002.91148  22056550.964    22056550.9584   22056559.9414
        -0.000          -0.000
   3762715.509 9   2949986.78847  22466338.446    22466338.0384   22466349.0404
        -0.000          -0.000
   5816573.083 9   4540119.95646  24276962.814    24276963.1884   24276975.5994
        -0.000          -0.000
  -7927545.750 9  -4624504.66346  23717853.927    23717853.8224   23717868.9984
        -0.000          -0.000
  -5321768.300 8  -4101504.29945  24765549.041    24765548.7674   24765561.6934
        -0.000          -0.000
   3452510.267 9   2712216.46648  21497731.776    21497731.3504   21497740.5764
        -0.000          -0.000
  17591796.146 8  13708451.28845  24541975.278    24541975.3034   24541993.4704
        -0.000          -0.000
 -19456533.450 9 -15106157.79248  21306290.071    21306290.4224   21306299.9264
        -0.000          -0.000
 99  4  5 18 47  0.0010000  0  8  9  2 26 24  5  7 27  4             0.000999969
 -19422096.565 9 -15089168.03848  22045521.212    22045521.2234   22045530.1064
        -0.000          -0.000
   3807384.669 9   2984793.82147  22474838.703    22474838.3334   22474849.4254
        -0.000          -0.000
   5884396.946 9   4592969.56046  24289869.362    24289869.7934   24289882.2294
        -0.000          -0.000
  -8034525.759 9  -4707865.55546  23697496.098    23697496.0854   23697511.2114
        -0.000          -0.000
  -5403223.751 8  -4164976.10045  24750048.699    24750048.4684   24750061.3634
        -0.000          -0.000
   3505675.368 9   2753643.76048  21507848.792    21507848.3664   21507857.6164
        -0.000          -0.000
  17708676.610 8  13799526.46145  24564217.239    24564217.1864   24564235.8814
        -0.000          -0.000
 -19519780.734 9 -15155441.33848  21294254.451    21294254.8044   21294264.2854
        -0.000          -0.000
 99  4  5 18 47 30.0010000  0  8  9  2 26 24  5  7 27  4             0.000999970
 -19479633.216 9 -15134001.76748  22034572.308    22034572.3034   22034581.1804
        -0.000          -0.000
   3852313.302 9   3019803.02347  22483388.471    22483388.0844   22483399.1634
        -0.000          -0.000
   5952345.469 9   4645916.30946  24302799.671    24302800.1324   24302812.5834
        -0.000          -0.000
  -8141407.372 9  -4791149.76446  23677156.976    23677156.9654   23677172.1174
        -0.000          -0.000
  -5484703.253 8  -4228466.64145  24734543.797    24734543.5014   24734556.2404
        -0.000          -0.000
   3558997.607 9   2795193.49648  21517995.751    21517995.2924   21518004.5634
        -0.000          -0.000
  17825641.674 8  13890667.54645  24586475.377    24586475.2464   24586493.9394
        -0.000          -0.000
 -19582532.986 9 -15204339.14548  21282313.069    21282313.4314   21282322.9044
        -0.000          -0.000
 99  4  5 18 48  0.0010000  0  8  9  2 26 24  5  7 27  4             0.000999969
 -19536744.514 9 -15178504.05648  22023704.331    22023704.3574   22023713.2114
        -0.000          -0.000
   3897492.027 9   3055007.10447  22491985.777    22491985.3734   22491996.5614
        -0.000          -0.000
   6020430.924 9   4698969.75946  24315756.025    24315756.4424   24315768.9594
        -0.000          -0.000
  -8248195.465 9  -4874361.11146  23656835.687    23656835.7634   23656850.8564
        -0.000          -0.000
  -5566212.079 8  -4291980.03145  24719033.293    24719033.0794   24719045.5634
        -0.000          -0.000
   3612482.896 9   2836870.28948  21528173.683    21528173.2464   21528182.4594
        -0.000          -0.000
  17942693.203 8  13981875.98445  24608749.955    24608749.7264   24608768.5514
        -0.000          -0.000
 -19644784.212 9 -15252846.53748  21270467.061    21270467.4324   21270476.8534
        -0.000          -0.000
 99  4  5 18 48 30.0010000  0  8  9  2 26 24  5  7 27  4             0.000999978
 -19593413.275 9 -15222661.51448  22012920.630    22012920.6524   22012929.4984
        -0.000          -0.000
   3942931.258 9   3090414.18647  22500632.576    22500632.2064   22500643.4334
        -0.000          -0.000
   6088681.366 9   4752151.76746  24328743.934    24328744.3204   24328756.7034
        -0.000          -0.000
  -8354871.710 9  -4957485.30846  23636535.731    23636535.7784   23636550.9094
        -0.000          -0.000
  -5647734.230 8  -4355503.80245  24703520.237    24703519.9684   24703532.2224
        -0.000          -0.000
   3666153.855 9   2878691.76948  21538387.001    21538386.5554   21538395.6764
        -0.000          -0.000
  18059845.740 8  14073163.15145  24631043.765    24631043.4924   24631062.4664
        -0.000          -0.000
 -19706518.211 9 -15300950.89248  21258719.455    21258719.8154   21258729.1954
        -0.000          -0.000
 99  4  5 18 49  0.0010000  0  8  9  2 26 24  5  7 27  4             0.000999975
 -19649659.734 9 -15266489.91148  22002217.294    22002217.3124   22002226.1574
        -0.000          -0.000
   3988592.195 9   3125994.01847  22509321.659    22509321.2714   22509332.4974
        -0.000          -0.000
   6157073.494 9   4805444.17946  24341758.883    24341759.1214   24341771.3124
        -0.000          -0.000
  -8461450.324 9  -5040533.41846  23616254.305    23616254.3574   23616269.4514
        -0.000          -0.000
  -5729301.744 8  -4419062.90245  24687998.674    24687998.4144   24688010.3634
        -0.000          -0.000
   3719996.969 9   2920647.39148  21548633.049    21548632.5724   21548641.7074
        -0.000          -0.000
  18177067.174 8  14164504.01445  24653350.675    24653350.5794   24653369.5724
        -0.000          -0.000
 -19767765.464 9 -15348675.96048  21247064.414    21247064.7734   21247074.1594
        -0.000          -0.000
 99  4  5 18 49 30.0010000  0  7  9  2 26 24  5  7  4                0.000999953
 -19705416.402 9 -15309936.64948  21991607.081    21991607.0974   21991615.9574
        -0.000          -0.000
   4034517.146 9   3161779.58147  22518060.986    22518060.6214   22518071.8334
        -0.000          -0.000
   6225642.338 9   4858874.30246  24354807.272    24354807.5374   24354819.6504
        -0.000          -0.000
  -8567883.500 9  -5123468.19546  23596000.616    23596000.7194   23596015.7524
        -0.000          -0.000
  -5810871.420 8  -4482623.68045  24672476.602    24672476.3604   24672488.3184
        -0.000          -0.000
   3774059.338 9   2962773.85748  21558920.784    21558920.3204   21558929.5094
        -0.000          -0.000
 -19828484.001 9 -15395989.04148  21235510.037    21235510.3924   21235519.7724
        -0.000          -0.000
 99  4  5 18 50  0.0010000  0  7  9  2 26 24  5  7  4                0.000999963
 -19760699.609 9 -15353014.45348  21981087.021    21981087.0504   21981095.9354
        -0.000          -0.000
   4080675.308 9   3197746.86847  22526844.721    22526844.3404   22526855.5974
        -0.000          -0.000
   6294357.627 9   4912418.52546  24367883.529    24367883.7544   24367895.8554
        -0.000          -0.000
  -8674184.952 9  -5206300.33246  23575771.970    23575772.1024   23575787.1474
        -0.000          -0.000
  -5892460.712 8  -4546199.76445  24656950.638    24656950.3194   24656962.2774
        -0.000          -0.000
   3828320.290 9   3005055.05848  21569246.317    21569245.8624   21569255.0984
        -0.000          -0.000
 -19888708.792 9 -15442917.38048  21224049.606    21224049.9364   21224059.3354
        -0.000          -0.000
 99  4  5 18 50 30.0010000  0  7  9  2 26 24  5  7  4                0.000999965
 -19815514.633 9 -15395727.44248  21970656.065    21970656.0714   21970664.9804
        -0.000          -0.000
   4127062.035 9   3233892.26547  22535671.931    22535671.5394   22535682.8184
        -0.000          -0.000
   6363204.299 9   4966065.13546  24380984.811    24380985.0854   24380997.1044
        -0.000          -0.000
  -8780357.064 9  -5289031.67246  23555567.960    23555568.0504   23555583.0694
        -0.000          -0.000
  -5974082.013 8  -4609800.79345  24641418.611    24641418.4114   24641430.2384
        -0.000          -0.000
   3882766.151 9   3047480.34548  21579607.030    21579606.5794   21579615.8434
        -0.000          -0.000
 -19948449.764 9 -15489468.71948  21212681.228    21212681.5564   21212690.9994
        -0.000          -0.000
 99  4  5 18 51  0.0010000  0  7  9  2 26 24  5  7  4                0.000999950
 -19869850.839 9 -15438067.32848  21960316.221    21960316.2194   21960325.1424
        -0.000          -0.000
   4173685.433 9   3270222.08247  22544544.101    22544543.7574   22544555.0404
        -0.000          -0.000
   6432164.660 9   5019800.32446  24394107.810    24394108.0304   24394120.0494
        -0.000          -0.000
  -8886398.909 9  -5371661.50146  23535388.861    23535388.8994   23535403.8634
        -0.000          -0.000
  -6055753.945 8  -4673441.26945  24625877.011    24625876.7514   24625888.7624
        -0.000          -0.000
   3937380.053 9   3090036.57448  21589999.833    21589999.3744   21590008.6384
        -0.000          -0.000
 -20007702.817 9 -15535639.86748  21201405.650    21201405.9924   21201415.4684
        -0.000          -0.000
 99  4  5 18 51 30.0010000  0  7  9  2 26 24  5  7  4                0.000999924
 -19923683.981 9 -15480015.20748  21950072.043    21950072.0314   21950080.9774
        -0.000          -0.000
   4220569.629 9   3306755.10947  22553466.061    22553465.7004   22553476.9424
        -0.000          -0.000
   6501251.513 9   5073634.08446  24407254.839    24407254.9794   24407266.8854
        -0.000          -0.000
  -8992300.107 9  -5454181.72146  23515236.468    23515236.4014   23515251.3084
        -0.000          -0.000
  -6137463.288 8  -4737110.90445  24610328.259    24610327.9054   24610339.9984
        -0.000          -0.000
   3992152.201 9   3132716.10948  21600422.659    21600422.1994   21600431.4774
        -0.000          -0.000
 -20066447.350 9 -15581414.76348  21190226.870    21190227.2014   21190236.7064
        -0.000          -0.000
 99  4  5 18 52  0.0010000  0  7  9  2 26 24  5  7  4                0.000999892
 -19977027.376 9 -15521581.47448  21939921.036    21939921.0694   21939929.9934
        -0.000          -0.000
   4267717.945 9   3343493.96747  22562438.249    22562437.8594   22562449.1414
        -0.000          -0.000
   6570462.163 9   5127564.30446  24420425.253    24420425.4314   24420437.3744
        -0.000          -0.000
  -9098049.398 9  -5536583.56546  23495112.904    23495112.8424   23495127.6714
        -0.000          -0.000
  -6219213.587 9  -4800812.46745  24594771.643    24594771.3044   24594783.2264
        -0.000          -0.000
   4047066.827 9   3175506.66248  21610872.601    21610872.1644   21610881.4624
        -0.000          -0.000
 -20124676.775 9 -15626788.27548  21179146.165    21179146.5024   21179155.9674
        -0.000          -0.000
 99  4  5 18 52 30.0010000  0  7  9  2 26 24  5  7  4                0.000999868
 -20029879.338 9 -15562764.80748  21929863.665    21929863.6814   21929872.5774
        -0.000          -0.000
   4315151.473 9   3380455.05947  22571464.628    22571464.2504   22571475.5804
        -0.000          -0.000
   6639795.384 9   5181590.04446  24433618.811    24433619.0774   24433631.2014
        -0.000          -0.000
  -9203622.299 9  -5618847.96446  23475022.793    23475022.7514   23475037.6754
        -0.000          -0.000
  -6300988.622 9  -4864533.29845  24579210.353    24579210.0774   24579221.9474
        -0.000          -0.000
   4102129.591 9   3218412.64148  21621350.706    21621350.2814   21621359.6184
        -0.000          -0.000
 -20182361.940 9 -15671737.68948  21168168.994    21168169.3214   21168178.7264
        -0.000          -0.000
 99  4  5 18 53  0.0010000  0  7  9  2 26 24  5  7  4                0.000999858
 -20082265.211 9 -15603584.94448  21919894.982    21919894.9824   21919903.9124
        -0.000          -0.000
   4362853.296 9   3417625.20847  22580542.097    22580541.7264   22580553.0404
        -0.000          -0.000
   6709221.880 9   5235688.45246  24446830.156    24446830.5114   24446842.9344
        -0.000          -0.000
  -9309030.977 9  -5700984.37746  23454963.814    23454963.8874   23454978.8324
        -0.000          -0.000
  -6382778.648 8  -4928265.81045  24563646.269    24563645.9924   24563657.6584
        -0.000          -0.000
   4157333.533 9   3261428.62248  21631855.661    21631855.2384   21631864.6334
        -0.000          -0.000
 -20239523.174 9 -15716278.84448  21157291.521    21157291.8624   21157301.2274
        -0.000          -0.000
 99  4  5 18 53 30.0010000  0  7  9  2 26 24  5  7  4                0.000999858
 -20134243.319 9 -15644087.34548  21910003.872    21910003.8704   21910012.8144
        -0.000          -0.000
   4410785.491 9   3454974.86847  22589663.424    22589663.0414   22589674.3594
        -0.000          -0.000
   6778710.879 9   5289835.56446  24460053.578    24460053.9574   24460066.4704
        -0.000          -0.000
  -9414315.630 9  -5783024.15146  23434928.458    23434928.6174   23434943.6574
        -0.000          -0.000
  -6464591.148 9  -4992015.81645  24548077.923    24548077.4804   24548089.4064
        -0.000          -0.000
   4212654.470 9   3304535.77248  21642382.944    21642382.5204   21642391.9774
        -0.000          -0.000
 -20296185.220 9 -15760431.02548  21146509.054    21146509.4164   21146518.7454
        -0.000          -0.000
 99  4  5 18 54  0.0010000  0  7  9  2 26 24  5  7  4                0.000999887
 -20185801.362 9 -15684262.42848  21900192.733    21900192.7324   21900201.6484
        -0.000          -0.000
   4458977.698 9   3492527.14247  22598834.185    22598833.7834   22598845.1884
        -0.000          -0.000
   6848280.219 9   5344045.27946  24473292.300    24473292.7624   24473305.3404
        -0.000          -0.000
  -9519448.144 9  -5864945.35246  23414922.251    23414922.3774   23414937.4964
        -0.000          -0.000
  -6546398.230 8  -5055761.60645  24532510.366    24532509.8284   24532522.1174
        -0.000          -0.000
   4268120.558 9   3347756.02548  21652937.895    21652937.4534   21652946.8954
        -0.000          -0.000
 -20352314.204 9 -15804167.83648  21135828.053    21135828.3914   21135837.6844
        -0.000          -0.000
 99  4  5 18 54 30.0010000  0  8  9  2 26 24  8  5  7  4             0.000999993
 -20236987.632 9 -15724147.82348  21890452.305    21890452.2854   21890461.2244
        -0.000          -0.000
   4507372.425 9   3530237.20947  22608043.379    22608042.9874   22608054.4964
        -0.000          -0.000
   6917872.718 8   5398273.03645  24486535.212    24486535.7454   24486548.5384
        -0.000          -0.000
  -9624498.082 9  -5946802.21746  23394931.887    23394931.9464   23394947.0254
        -0.000          -0.000
  -7205799.397 8  -5206559.17545  24503984.687    24503984.2554   24503996.8814
        -0.000          -0.000
  -6628259.202 8  -5119549.40145  24516932.434    24516931.9714   24516944.5004
        -0.000          -0.000
   4323686.104 9   3391053.78248  21663511.736    21663511.2934   21663520.7254
        -0.000          -0.000
 -20407975.975 9 -15847540.58148  21125235.924    21125236.2534   21125245.5304
        -0.000          -0.000
 99  4  5 18 55  0.0010000  0  8  9  2 26 24  8  5  7  4             0.000999998
 -20287729.432 9 -15763686.87648  21880796.387    21880796.4204   21880805.3854
        -0.000          -0.000
   4556018.982 9   3568143.50747  22617300.545    22617300.1594   22617311.6064
        -0.000          -0.000
   6987564.350 9   5452578.04346  24499797.032    24499797.6334   24499810.6524
        -0.000          -0.000
  -9729415.433 9  -6028555.75846  23374966.769    23374966.6984   23374981.7434
        -0.000          -0.000
  -7312055.760 8  -5289356.31245  24483764.798    24483764.3134   24483777.0494
        -0.000          -0.000
  -6710125.711 8  -5183341.50445  24501353.564    24501353.2774   24501365.7374
        -0.000          -0.000
   4379410.382 9   3434475.22048  21674115.746    21674115.3024   21674124.7964
        -0.000          -0.000
 -20463118.440 9 -15890508.68048  21114742.532    21114742.8984   21114752.1854
        -0.000          -0.000
 99  4  5 18 55 30.0010000  0  8  9  2 26 24  8  5  7  4             0.001000001
 -20337994.730 9 -15802854.62948  21871231.211    21871231.2524   21871240.2414
        -0.000          -0.000
   4604922.674 9   3606250.16947  22626606.758    22626606.3464   22626617.7244
        -0.000          -0.000
   7057376.677 9   5506977.08546  24513082.214    24513082.7054   24513095.7674
        -0.000          -0.000
  -9834173.692 9  -6110185.32546  23355031.806    23355031.7494   23355046.7414
        -0.000          -0.000
  -7418150.389 8  -5372027.42945  24463575.677    24463575.1894   24463588.0514
        -0.000          -0.000
  -6792005.476 8  -5247143.91345  24485772.242    24485771.8834   24485784.7184
        -0.000          -0.000
   4435286.643 9   3478015.08148  21684748.712    21684748.2614   21684757.8304
        -0.000          -0.000
 -20517718.460 9 -15933054.09548  21104352.456    21104352.8214   21104362.1144
        -0.000          -0.000
 99  4  5 18 56  0.0010000  0  8  9  2 26 24  8  5  7  4             0.000999997
 -20387770.926 9 -15841641.26148  21861759.110    21861759.1294   21861768.1424
        -0.000          -0.000
   4654061.703 9   3644540.19747  22635957.602    22635957.1934   22635968.6774
        -0.000          -0.000
   7127300.411 9   5561462.95346  24526388.376    24526388.8054   24526402.0734
        -0.000          -0.000
  -9938761.345 9  -6191681.95746  23335129.274    23335129.2464   23335144.1844
        -0.000          -0.000
  -7524066.043 8  -5454559.06545  24443420.477    24443419.9824   24443433.0374
        -0.000          -0.000
  -6873916.618 8  -5310970.76645  24470185.120    24470184.7734   24470197.7484
        -0.000          -0.000
   4491307.220 9   3521667.39748  21695409.133    21695408.6914   21695418.2874
        -0.000          -0.000
 -20571799.528 9 -15975195.12948  21094061.139    21094061.4954   21094070.7494
        -0.000          -0.000
 99  4  5 18 56 30.0010000  0  8  9  2 26 24  8  5  7  4             0.000999989
 -20437039.069 9 -15880032.01448  21852383.689    21852383.7294   21852392.7294
        -0.000          -0.000
   4703433.830 9   3683011.85147  22645352.838    22645352.4594   22645364.0594
        -0.000          -0.000
   7197349.315 9   5616046.35846  24539718.245    24539718.7864   24539732.0834
        -0.000          -0.000
 -10043164.492 9  -6273034.82546  23315261.822    23315261.8504   23315276.6534
        -0.000          -0.000
  -7629786.388 8  -5536938.52245  24423302.469    24423302.1104   24423315.1794
        -0.000          -0.000
  -6955842.255 8  -5374808.91145  24454595.257    24454594.7964   24454607.7844
        -0.000          -0.000
   4547495.394 9   3565450.31348  21706101.498    21706101.0694   21706110.6194
        -0.000          -0.000
 -20625355.364 9 -16016926.89748  21083869.775    21083870.1204   21083879.3674
        -0.000          -0.000
 99  4  5 18 57  0.0010000  0  8  9  2 26 24  8  5  7  4             0.000999975
 -20485818.466 9 -15918041.92448  21843101.285    21843101.3254   21843110.2894
        -0.000          -0.000
   4753023.103 9   3721652.71847  22654789.553    22654789.1154   22654800.6554
        -0.000          -0.000
   7267506.215 9   5670713.90146  24553068.887    24553069.3134   24553082.6324
        -0.000          -0.000
 -10147380.058 9  -6354241.53146  23295430.065    23295430.1204   23295444.8514
        -0.000          -0.000
  -7735311.870 8  -5619166.14645  24403221.583    24403221.1824   24403234.3534
        -0.000          -0.000
  -7037800.076 8  -5438672.14545  24438999.150    24438998.8334   24439011.7344
        -0.000          -0.000
   4603821.720 9   3609340.88248  21716820.142    21716819.6794   21716829.2034
        -0.000          -0.000
 -20678393.541 9 -16058255.30249  21073776.908    21073777.2684   21073786.4954
        -0.000          -0.000
 99  4  5 18 57 30.0010000  0  8  9  2 26 24  8  5  7  4             0.000999972
 -20534100.942 9 -15955664.61748  21833913.475    21833913.4964   21833922.4674
        -0.000          -0.000
   4802844.905 9   3760474.79647  22664270.494    22664270.0124   22664281.5354
        -0.000          -0.000
   7337765.485 9   5725461.22546  24566439.067    24566439.5484   24566452.6404
        -0.000          -0.000
 -10251389.742 9  -6435287.81546  23275637.469    23275637.5524   23275652.2024
        -0.000          -0.000
  -7840614.922 8  -5701220.42645  24383183.006    24383182.5044   24383195.8394
        -0.000          -0.000
  -7119774.355 8  -5502548.18145  24423399.987    24423399.6824   24423412.6554
        -0.000          -0.000
   4660293.022 9   3653344.41948  21727566.319    21727565.8594   21727575.3984
        -0.000          -0.000
 -20730908.152 9 -16099175.73549  21063783.685    21063784.0564   21063793.2464
        -0.000          -0.000
 99  4  5 18 58  0.0010000  0  8  9  2 26 24  8  5  7  4             0.000999976
 -20581894.082 9 -15992906.02148  21824818.787    21824818.8024   21824827.7224
        -0.000          -0.000
   4852907.668 9   3799484.63247  22673797.230    22673796.7174   22673808.3274
        -0.000          -0.000
   7408107.997 9   5780273.41846  24579824.917    24579825.3014   24579838.5214
        -0.000          -0.000
 -10355207.151 9  -6516184.27946  23255881.463    23255881.5194   23255896.1304
        -0.000          -0.000
  -7945703.895 8  -5783107.88345  24363185.170    24363184.5984   24363198.1764
        -0.000          -0.000
  -7201774.487 8  -5566444.37245  24407795.805    24407795.6154   24407808.5804
        -0.000          -0.000
   4716919.491 9   3697468.86848  21738342.050    21738341.6094   21738351.1714
        -0.000          -0.000
 -20782911.556 9 -16139697.81849  21053887.800    21053888.1374   21053897.2454
        -0.000          -0.000
 99  4  5 18 58 30.0010000  0  8  9  2 26 24  8  5  7  4             0.000999984
 -20629206.372 9 -16029772.72948  21815815.574    21815815.5954   21815824.4804
        -0.000          -0.000
   4903228.069 9   3838695.21847  22683372.906    22683372.4484   22683384.1114
        -0.000          -0.000
   7478518.694 9   5835138.74446  24593223.801    24593224.1854   24593237.3154
        -0.000          -0.000
 -10458846.857 9  -6596942.28746  23236159.356    23236159.4324   23236173.9314
        -0.000          -0.000
  -8050596.318 8  -5864842.19845  24343224.831    24343224.2074   24343237.7984
        -0.000          -0.000
  -7283813.291 8  -5630370.67345  24392184.466    24392184.1924   24392197.1844
        -0.000          -0.000
   4773682.596 9   3741699.78848  21749143.752    21749143.3014   21749152.9214
        -0.000          -0.000
 -20834392.290 9 -16179812.62849  21044091.323    21044091.6594   21044100.7784
        -0.000          -0.000
 99  4  5 18 59  0.0010000  0  8  9  2 26 24  8  5  7  4             0.001000002
 -20676020.588 9 -16066251.33648  21806907.121    21806907.1424   21806916.0124
        -0.000          -0.000
   4953829.492 9   3878124.78347  22693002.129    22693001.7014   22693013.4124
        -0.000          -0.000
   7549004.965 9   5890062.94646  24606637.157    24606637.4994   24606650.5254
        -0.000          -0.000
 -10562294.538 9  -6677550.67346  23216473.863    23216473.8704   23216488.3254
        -0.000          -0.000
  -8155287.479 8  -5946419.67045  24323302.785    24323302.2484   24323315.7314
        -0.000          -0.000
  -7365885.794 9  -5694323.24145  24376566.709    24376566.3044   24376579.3124
        -0.000          -0.000
   4830591.315 9   3786044.16848  21759973.095    21759972.6544   21759982.2954
        -0.000          -0.000
 -20885342.280 9 -16219513.87549  21034395.807    21034396.1614   21034405.2634
        -0.000          -0.000
 99  4  5 18 59 30.0010000  0  8  9  2 26 24  8  5  7  4             0.000999987
 -20722390.074 9 -16102383.39648  21798083.292    21798083.3214   21798092.1234
        -0.000          -0.000
   5004658.990 9   3917732.06947  22702674.658    22702674.2564   22702686.0034
        -0.000          -0.000
   7619499.234 9   5944993.38746  24620051.941    24620052.2524   24620065.3564
        -0.000          -0.000
 -10665621.857 9  -6758065.28747  23196811.281    23196811.2224   23196825.6014
        -0.000          -0.000
  -8259838.952 8  -6027888.29245  24303407.249    24303406.7624   24303420.3214
        -0.000          -0.000
  -7448051.033 8  -5758348.05945  24360931.205    24360930.9384   24360943.7954
        -0.000          -0.000
   4887592.190 9   3830460.36548  21770820.034    21770819.5754   21770829.2124
        -0.000          -0.000
 -20935817.275 9 -16258844.99449  21024790.752    21024791.0604   21024800.1524
        -0.000          -0.000
 99  4  5 19  0  0.0010000  0  8  9  2 26 24  8  5  7  4             0.000999959
 -20768278.183 9 -16138140.35948  21789351.094    21789351.1064   21789359.8494
        -0.000          -0.000
   5055757.777 9   3957549.19847  22712398.478    22712398.1244   22712409.9544
        -0.000          -0.000
   7690036.798 9   5999957.57146  24633474.955    24633475.1804   24633488.3664
        -0.000          -0.000
 -10768801.513 9  -6838464.84447  23177176.765    23177176.7154   23177191.0214
        -0.000          -0.000
  -8364211.173 8  -6109217.23445  24283545.779    24283545.4314   24283558.9834
        -0.000          -0.000
  -7530274.394 8  -5822418.17445  24345284.713    24345284.4204   24345297.1514
        -0.000          -0.000
   4944721.634 9   3874976.75248  21781691.409    21781690.9594   21781700.5914
        -0.000          -0.000
 -20985761.777 9 -16297762.74449  21015286.554    21015286.8704   21015295.9434
        -0.000          -0.000
 99  4  5 19  0 30.0010000  0  8  9  2 26 24  8  5  7  4             0.000999939
 -20813669.197 9 -16173509.97748  21780713.490    21780713.4764   21780722.2124
        -0.000          -0.000
   5107140.457 9   3997587.53847  22722176.372    22722176.0354   22722187.9734
        -0.000          -0.000
   7760655.088 9   6054984.63746  24646913.288    24646913.4564   24646926.8014
        -0.000          -0.000
 -10871797.477 9  -6918721.28547  23157577.128    23157577.1034   23157591.3624
        -0.000          -0.000
  -8468375.462 8  -6190384.14045  24263723.927    24263723.6834   24263737.2544
        -0.000          -0.000
  -7612513.707 9  -5886500.71845  24329635.171    24329634.8844   24329647.2304
        -0.000          -0.000
   5001996.567 9   3919606.50248  21792590.516    21792590.0744   21792599.7484
        -0.000          -0.000
 -21035136.429 9 -16336236.45549  21005890.878    21005891.2244   21005900.2784
        -0.000          -0.000
 99  4  5 19  1  0.0010000  0  8  9  2 26 24  8  5  7  4             0.000999936
 -20858559.117 9 -16208489.13248  21772171.209    21772171.2004   21772179.8924
        -0.000          -0.000
   5158801.326 9   4037842.64347  22732007.198    22732006.8494   22732018.8694
        -0.000          -0.000
   7831361.760 8   6110080.58545  24660368.346    24660368.5824   24660381.9644
        -0.000          -0.000
 -10974589.410 9  -6998818.74247  23138016.348    23138016.3654   23138030.5584
        -0.000          -0.000
  -8572310.908 8  -6271372.72445  24243945.693    24243945.3364   24243958.9124
        -0.000          -0.000
  -7694763.560 9  -5950591.46445  24313983.594    24313983.1994   24313995.4064
        -0.000          -0.000
   5059425.548 9   3964356.28348  21803518.968    21803518.4984   21803528.2384
        -0.000          -0.000
 -21083938.802 9 -16374264.22949  20996604.121    20996604.4334   20996613.4804
        -0.000          -0.000
 99  4  5 19  1 30.0010000  0  8  9  2 26 24  8  5  7  4             0.000999941
 -20902966.927 9 -16243092.61648  21763720.654    21763720.6404   21763729.2914
        -0.000          -0.000
   5210721.564 9   4078299.85947  22741887.308    22741886.9594   22741899.0294
        -0.000          -0.000
   7902137.712 8   6165230.51245  24673836.492    24673836.8384   24673850.3024
        -0.000          -0.000
 -11077187.261 9  -7078764.97647  23118492.526    23118492.6014   23118506.6684
        -0.000          -0.000
  -8676014.310 8  -6352180.49745  24224211.417    24224210.9784   24224224.7104
        -0.000          -0.000
  -7777026.703 9  -6014692.57345  24298329.424    24298329.1174   24298341.0514
        -0.000          -0.000
   5116986.069 9   4009208.56248  21814472.484    21814472.0054   21814481.7374
        -0.000          -0.000
 -21132162.646 9 -16411841.20249  20987427.355    20987427.6664   20987436.7454
        -0.000          -0.000
 99  4  5 19  2  0.0010000  0  8  9  2 26 24  8  5  7  4             0.000999948
 -20946899.890 9 -16277326.08948  21755360.439    21755360.4474   21755369.0984
        -0.000          -0.000
   5262883.849 9   4118945.68947  22751813.525    22751813.1774   22751825.2334
        -0.000          -0.000
   7972974.127 8   6220427.54345  24687316.271    24687316.5864   24687330.2194
        -0.000          -0.000
 -11179588.496 9  -7158558.01947  23099006.166    23099006.2214   23099020.1404
        -0.000          -0.000
  -8779496.200 8  -6432815.65945  24204519.502    24204519.1904   24204532.7454
        -0.000          -0.000
  -7859299.286 9  -6078801.05645  24282673.450    24282673.2254   24282685.0544
        -0.000          -0.000
   5174671.532 9   4054158.20948  21825449.760    21825449.2864   21825459.0144
        -0.000          -0.000
 -21179807.999 9 -16448967.39848  20978360.638    20978360.9634   20978370.0694
        -0.000          -0.000
 99  4  5 19  2 30.0010000  0  8  9  2 26 24  8  5  7  4             0.000999956
 -20990353.246 9 -16311185.84048  21747091.522    21747091.5324   21747100.2004
        -0.000          -0.000
   5315287.158 9   4159779.32547  22761785.647    22761785.2944   22761797.3434
        -0.000          -0.000
   8043872.471 8   6275672.84945  24700807.916    24700808.2264   24700822.0064
        -0.000          -0.000
 -11281773.250 9  -7238182.36847  23079561.000    23079560.9634   23079574.8474
        -0.000          -0.000
  -8882762.282 9  -6513282.67445  24184868.678    24184868.1644   24184881.8404
        -0.000          -0.000
  -7941585.088 9  -6142919.83746  24267015.090    24267014.8454   24267026.7414
        -0.000          -0.000
   5232483.045 9   4099206.07148  21836450.961    21836450.5004   21836460.2624
        -0.000          -0.000
 -21226880.060 9 -16485646.87148  20969403.075    20969403.4144   20969412.5094
        -0.000          -0.000
 99  4  5 19  3  0.0010000  0  8  9  2 26 24  8  5  7  4             0.000999956
 -21033317.241 9 -16344664.27048  21738915.739    21738915.7524   21738924.4384
        -0.000          -0.000
   5367937.151 9   4200805.16947  22771804.700    22771804.2884   22771816.4424
        -0.000          -0.000
   8114809.084 8   6330947.95345  24714306.728    24714307.0414   24714320.9394
        -0.000          -0.000
 -11383755.444 9  -7317648.89547  23060154.356    23060154.3284   23060168.1574
        -0.000          -0.000
  -8985818.526 9  -6593586.16445  24165257.794    24165257.3214   24165271.0254
        -0.000          -0.000
  -8023889.090 9  -6207052.78746  24251353.333    24251353.0884   24251364.8594
        -0.000          -0.000
   5290415.215 9   4144347.95348  21847475.111    21847474.6784   21847484.4474
        -0.000          -0.000
 -21273387.111 9 -16521886.07748  20960553.004    20960553.3514   20960562.4434
        -0.000          -0.000
 99  4  5 19  3 30.0010000  0  8  9  2 26 24  8  5  7  4             0.000999949
 -21075757.760 9 -16377734.80248  21730839.628    21730839.6634   21730848.2684
        -0.000          -0.000
   5420857.158 9   4242041.42747  22781875.085    22781874.7064   22781886.8464
        -0.000          -0.000
   8185791.436 9   6386258.70845  24727814.343    24727814.5894   24727828.5764
        -0.000          -0.000
 -11485535.355 9  -7396957.80547  23040786.164    23040786.1364   23040799.9724
        -0.000          -0.000
  -9088656.039 9  -6673719.22045  24145688.446    24145687.9584   24145701.5544
        -0.000          -0.000
  -8106179.939 9  -6271175.49546  24235693.922    24235693.6984   24235705.2384
        -0.000          -0.000
   5348489.752 9   4189600.76348  21858526.360    21858525.9374   21858535.7544
        -0.000          -0.000
 -21319316.705 9 -16557675.31848  20951812.797    20951813.1824   20951822.2924
        -0.000          -0.000
 99  4  5 19  4  0.0010000  0  8  9  2 26 24  8  5  7  4             0.000999946
 -21117640.303 9 -16410370.54448  21722869.658    21722869.6804   21722878.2704
        -0.000          -0.000
   5474062.527 9   4283500.02647  22791999.908    22791999.4974   22792011.5644
        -0.000          -0.000
   8256841.861 9   6441622.50245  24741335.051    24741335.3004   24741349.1674
        -0.000          -0.000
 -11587095.263 9  -7476095.27547  23021459.852    23021459.8554   23021473.5774
        -0.000          -0.000
  -9191252.495 8  -6753664.42945  24126164.951    24126164.5244   24126177.9364
        -0.000          -0.000
  -8188453.030 9  -6335284.35146  24220037.790    24220037.4874   24220048.9924
        -0.000          -0.000
   5406722.616 9   4234976.94648  21869607.773    21869607.3464   21869617.1954
        -0.000          -0.000
 -21364670.566 9 -16593015.92548  20943182.230    20943182.5774   20943191.6964
        -0.000          -0.000
 99  4  5 19  4 30.0010000  0  8  9  2 26 24  8  5  7  4             0.000999953
 -21158946.643 9 -16442557.29448  21715009.298    21715009.3224   21715017.8954
        -0.000          -0.000
   5527564.675 9   4325189.89047  22802181.116    22802180.6994   22802192.7804
        -0.000          -0.000
   8327971.194 8   6497047.77445  24754870.730    24754870.9494   24754884.7454
        -0.000          -0.000
 -11688432.179 9  -7555059.00747  23002176.067    23002176.0554   23002189.6554
        -0.000          -0.000
  -9293586.300 8  -6833404.96545  24106691.385    24106690.8964   24106704.3854
        -0.000          -0.000
  -8270707.045 9  -6399378.33846  24204385.226    24204384.9734   24204396.4984
        -0.000          -0.000
   5465108.094 9   4280472.04848  21880718.257    21880717.8144   21880727.6374
        -0.000          -0.000
 -21409449.885 9 -16627908.84248  20934660.935    20934661.3154   20934670.3804
        -0.000          -0.000
 99  4  5 19  5  0.0010000  0  8  9  2 26 24  8  5  7  4             0.000999948
 -21199710.984 9 -16474321.70748  21707252.086    21707252.1024   21707260.7034
        -0.000          -0.000
   5581323.435 9   4367079.71847  22812411.070    22812410.7064   22812422.8364
        -0.000          -0.000
   8399141.727 9   6552505.15845  24768414.091    24768414.3334   24768428.2374
        -0.000          -0.000
 -11789599.843 9  -7633890.84347  22982924.450    22982924.3934   22982937.9854
        -0.000          -0.000
  -9395688.564 8  -6912965.08145  24087261.905    24087261.4454   24087274.9614
        -0.000          -0.000
  -8352968.650 9  -6463478.24845  24188731.254    24188730.9604   24188742.6874
        -0.000          -0.000
   5523599.107 9   4326049.38948  21891848.806    21891848.3694   21891858.1334
        -0.000          -0.000
 -21453701.019 9 -16662390.18948  20926240.197    20926240.5354   20926249.5654
        -0.000          -0.000
 99  4  5 19  5 30.0010000  0  8  9  2 26 24  8  5  7  4             0.000999942
 -21239927.957 9 -16505659.59348  21699598.989    21699599.0104   21699607.6804
        -0.000          -0.000
   5635340.843 9   4409171.08247  22822690.373    22822690.0304   22822702.1594
        -0.000          -0.000
   8470374.572 9   6608011.10445  24781969.460    24781969.7294   24781983.5784
        -0.000          -0.000
 -11890577.247 9  -7712574.43147  22963708.969    22963708.8864   22963722.4534
        -0.000          -0.000
  -9497545.557 9  -6992334.09445  24067879.135    24067878.7344   24067892.0094
        -0.000          -0.000
  -8435232.934 9  -6527580.24746  24173076.887    24173076.5084   24173088.1054
        -0.000          -0.000
   5582198.018 9   4371710.79248  21902999.844    21902999.4194   21903009.1494
        -0.000          -0.000
 -21497415.003 9 -16696452.98148  20917921.669    20917922.0144   20917931.0404
        -0.000          -0.000
 99  4  5 19  6  0.0010000  0  8  9  2 26 24  8  5  7  4             0.000999947
 -21279601.554 9 -16536574.07548  21692049.319    21692049.3474   21692057.9904
        -0.000          -0.000
   5689622.094 9   4451468.02047  22833019.876    22833019.5194   22833031.6314
        -0.000          -0.000
   8541690.669 9   6663581.90146  24795540.720    24795540.9244   24795554.7944
        -0.000          -0.000
 -11991333.424 9  -7791085.65147  22944535.614    22944535.5194   22944549.0554
        -0.000          -0.000
  -9599140.275 9  -7071498.73645  24048546.284    24048545.8984   24048558.9994
        -0.000          -0.000
  -8517493.966 9  -6591679.70846  24157423.117    24157422.7254   24157434.2824
        -0.000          -0.000
   5640910.939 9   4417461.04348  21914172.681    21914172.2444   21914181.9824
        -0.000          -0.000
 -21540568.615 9 -16730079.12448  20909709.711    20909710.0494   20909719.0724
        -0.000          -0.000
 99  4  5 19  6 30.0010000  0  8  9  2 26 24  8  5  7  4             0.000999960
 -21318772.234 9 -16567096.67048  21684595.391    21684595.3974   21684604.0434
        -0.000          -0.000
   5744155.299 9   4493961.30547  22843397.274    22843396.8954   22843409.0604
        -0.000          -0.000
   8613064.427 9   6719197.64946  24809122.867    24809123.1014   24809136.8524
        -0.000          -0.000
 -12091877.261 9  -7869431.38347  22925402.643    22925402.5544   22925416.0794
        -0.000          -0.000
  -9700495.120 8  -7150476.46645  24029259.015    24029258.6904   24029271.6784
        -0.000          -0.000
  -8599761.457 9  -6655784.20346  24141768.052    24141767.6924   24141779.2914
        -0.000          -0.000
   5699725.158 9   4463290.22648  21925364.765    21925364.3064   21925374.0184
        -0.000          -0.000
 -21583166.637 9 -16763272.33748  20901603.539    20901603.8814   20901612.8844
        -0.000          -0.000
 99  4  5 19  7  0.0010000  0  8  9  2 26 24  8  5  7  4             0.000999978
 -21357469.650 9 -16597250.48848  21677231.480    21677231.4954   21677240.1644
        -0.000          -0.000
   5798929.779 9   4536642.60047  22853820.559    22853820.1894   22853832.4424
        -0.000          -0.000
   8684471.760 9   6774839.54346  24822711.364    24822711.6544   24822725.3634
        -0.000          -0.000
 -12192208.781 9  -7947611.67147  22906310.007    22906309.9624   22906323.5614
        -0.000          -0.000
  -9801624.853 9  -7229278.79745  24010014.547    24010014.3234   24010027.0814
        -0.000          -0.000
  -8682041.582 9  -6719898.53745  24126110.453    24126110.1914   24126121.7584
        -0.000          -0.000
   5758638.227 9   4509196.43848  21936575.610    21936575.1454   21936584.8774
        -0.000          -0.000
 -21625218.060 9 -16796039.62848  20893601.372    20893601.7404   20893610.7064
        -0.000          -0.000
 99  4  5 19  7 30.0010000  0  8  9  2 26 24  8  5  7  4             0.001000003
 -21395685.602 9 -16627029.14548  21669959.233    21669959.2394   21669967.9064
        -0.000          -0.000
   5853949.503 9   4579514.97747  22864290.519    22864290.2014   22864302.4684
        -0.000          -0.000
   8755911.601 9   6830506.76946  24836306.183    24836306.4334   24836320.0664
        -0.000          -0.000
 -12292304.234 9  -8025608.01547  22887262.287    22887262.3084   22887275.9274
        -0.000          -0.000
  -9902517.259 8  -7307896.19445  23990815.288    23990814.9554   23990827.7744
        -0.000          -0.000
  -8764326.973 9  -6784016.96946  24110451.911    24110451.7424   24110463.4274
        -0.000          -0.000
   5817678.421 9   4555201.70248  21947810.666    21947810.2174   21947819.9424
        -0.000          -0.000
 -21666693.324 9 -16828357.97749  20885708.915    20885709.2544   20885718.2344
        -0.000          -0.000
 99  4  5 19  8  0.0010000  0  8  9  2 26 24  8  5  7  4             0.001000024
 -21433438.198 9 -16656446.74248  21662775.122    21662775.1434   21662783.7984
        -0.000          -0.000
   5909196.950 9   4622564.80047  22874803.900    22874803.5544   22874815.8314
        -0.000          -0.000
   8827354.841 9   6886176.62946  24849901.601    24849901.7714   24849915.4484
        -0.000          -0.000
 -12392177.261 9  -8103431.03747  22868256.943    22868256.9754   22868270.6004
        -0.000          -0.000
 -10003184.582 9  -7386338.19845  23971658.810    23971658.4864   23971671.4244
        -0.000          -0.000
  -8846630.723 9  -6848149.69446  24094790.135    24094789.9334   24094801.5614
        -0.000          -0.000
   5876842.244 9   4601303.30348  21959069.235    21959068.7834   21959078.5524
        -0.000          -0.000
 -21707604.058 9 -16860236.42949  20877923.835    20877924.1844   20877933.1934
        -0.000          -0.000
 99  4  5 19  8 30.0010000  0  8  9  2 26 24  8  5  7  4             0.001000036
 -21470720.854 9 -16685498.14848  21655680.466    21655680.4944   21655689.1694
        -0.000          -0.000
   5964678.883 9   4665797.35547  22885361.808    22885361.4644   22885373.8704
        -0.000          -0.000
   8898784.239 9   6941835.70645  24863494.306    24863494.5704   24863508.1184
        -0.000          -0.000
 -12491833.706 9  -8181085.27347  22849292.919    22849292.9144   22849306.5134
        -0.000          -0.000
 -10103633.908 8  -7464610.33745  23952543.816    23952543.5304   23952556.5534
        -0.000          -0.000
  -8928952.524 9  -6912296.48846  24079124.865    24079124.6794   24079136.2394
        -0.000          -0.000
   5936126.261 9   4647498.55948  21970350.667    21970350.2234   21970360.0204
        -0.000          -0.000
 -21747963.262 9 -16891685.12049  20870243.683    20870244.0314   20870253.0514
        -0.000          -0.000
 99  4  5 19  9  0.0010000  0  8  9  2 26 24  8  5  7  4             0.001000036
 -21507499.875 9 -16714157.11348  21648681.648    21648681.6794   21648690.3984
        -0.000          -0.000
   6020405.243 9   4709220.36147  22895966.258    22895965.9124   22895978.3994
        -0.000          -0.000
   8970200.563 9   6997484.59045  24877084.588    24877084.7424   24877098.3324
        -0.000          -0.000
 -12591259.299 9  -8258559.62447  22830372.762    22830372.7224   22830386.2394
        -0.000          -0.000
 -10203856.219 9  -7542705.57145  23933472.116    23933471.8024   23933484.7304
        -0.000          -0.000
  -9011285.701 9  -6976452.14646  24063457.293    24063457.0764   24063468.7244
        -0.000          -0.000
   5995528.164 9   4693785.67948  21981654.522    21981654.0674   21981663.9724
        -0.000          -0.000
 -21787772.179 9 -16922705.01349  20862668.266    20862668.6154   20862677.6114
        -0.000          -0.000
 99  4  5 19  9 30.0010000  0  8  9  2 26 24  8  5  7  4             0.001000028
 -21543749.795 9 -16742403.78948  21641783.579    21641783.5854   21641792.2814
        -0.000          -0.000
   6076387.777 9   4752842.95947  22906619.538    22906619.1574   22906631.6514
        -0.000          -0.000
   9041615.432 9   7053132.33245  24890674.633    24890674.7844   24890688.3494
        -0.000          -0.000
 -12690441.110 9  -8335844.00547  22811498.917    22811498.9284   22811512.4034
        -0.000          -0.000
 -10303837.525 9  -7620613.00845  23914446.307    23914446.0334   23914459.0684
        -0.000          -0.000
  -9093627.038 9  -7040614.16246  24047788.156    24047787.9034   24047799.7694
        -0.000          -0.000
   6055055.798 9   4740170.76848  21992982.243    21992981.8354   21992991.8524
        -0.000          -0.000
 -21827016.275 9 -16953284.78849  20855200.360    20855200.7054   20855209.6974
        -0.000          -0.000
 99  4  5 19 10  0.0010000  0  8  9  2 26 24  8  5  7  4             0.001000015
 -21579465.113 9 -16770233.89748  21634987.233    21634987.2304   21634995.9224
        -0.000          -0.000
   6132637.155 9   4796673.50347  22917323.551    22917323.1674   22917335.6634
        -0.000          -0.000
   9113033.343 9   7108782.46145  24904265.186    24904265.4264   24904278.9424
        -0.000          -0.000
 -12789373.792 9  -8412934.25347  22792672.496    22792672.5424   22792685.9604
        -0.000          -0.000
 -10403576.205 9  -7698331.39546  23895466.677    23895466.3234   23895479.3444
        -0.000          -0.000
  -9175982.363 9  -7104787.08146  24032116.325    24032116.0824   24032128.2304
        -0.000          -0.000
   6114689.320 9   4786638.37248  22004330.187    22004329.7694   22004339.8684
        -0.000          -0.000
 -21865707.598 9 -16983433.83249  20847837.638    20847837.9924   20847846.9444
        -0.000          -0.000
 99  4  5 19 10 30.0010000  0  8  9  2 26 24  8  5  7  4             0.001000000
 -21614631.077 9 -16797635.93648  21628295.356    21628295.3634   21628304.0634
        -0.000          -0.000
   6189172.658 9   4840726.99747  22928082.017    22928081.6594   22928094.1114
        -0.000          -0.000
   9184458.215 8   7164437.99645  24917857.015    24917857.2264   24917870.7964
        -0.000          -0.000
 -12888050.485 9  -8489825.02647  22773894.883    22773894.8814   22773908.2904
        -0.000          -0.000
 -10503064.122 9  -7775854.36846  23876534.717    23876534.3194   23876547.3434
        -0.000          -0.000
  -9258355.796 9  -7168974.10546  24016441.155    24016440.9444   24016453.0584
        -0.000          -0.000
   6174419.922 9   4833181.63048  22015696.611    22015696.1614   22015706.2744
        -0.000          -0.000
 -21903832.420 9 -17013141.44649  20840582.725    20840583.0644   20840591.9274
        -0.000          -0.000
 99  4  5 19 11  0.0010000  0  8  9  2 26 24  8  5  7  4             0.000999984
 -21649262.196 9 -16824621.21448  21621705.291    21621705.2954   21621713.9914
        -0.000          -0.000
   6245987.058 9   4884997.83047  22938893.602    22938893.2454   22938905.5924
        -0.000          -0.000
   9255888.894 9   7220098.06445  24931450.010    24931450.2164   24931463.8374
        -0.000          -0.000
 -12986468.569 9  -8566514.28047  22755166.473    22755166.4464   22755179.8414
        -0.000          -0.000
 -10602289.848 9  -7853173.03845  23857652.646    23857652.2614   23857665.2014
        -0.000          -0.000
  -9340748.684 9  -7233176.29846  24000762.253    24000762.0584   24000774.1154
        -0.000          -0.000
   6234252.878 9   4879804.64748  22027082.477    22027082.0284   22027092.1524
        -0.000          -0.000
 -21941371.009 9 -17042392.25449  20833439.365    20833439.6804   20833448.5334
        -0.000          -0.000
 99  4  5 19 11 30.0010000  0  8  9  2 26 24  8  5  7  4             0.000999966
 -21683373.633 9 -16851201.55148  21615214.057    21615214.0594   21615222.7804
        -0.000          -0.000
   6303077.414 9   4929483.67547  22949757.705    22949757.3334   22949769.6484
        -0.000          -0.000
   9327325.830 8   7275762.98045  24945044.158    24945044.3154   24945058.0974
        -0.000          -0.000
 -13084635.645 9  -8643007.94647  22736485.698    22736485.7094   22736499.1224
        -0.000          -0.000
 -10701255.414 9  -7930288.99045  23838820.040    23838819.6294   23838832.5764
        -0.000          -0.000
  -9423156.518 9  -7297390.13246  23985080.511    23985080.3454   23985092.3394
        -0.000          -0.000
   6294199.775 9   4926516.44848  22038490.044    22038489.5914   22038499.6874
        -0.000          -0.000
 -21978301.326 9 -17071169.09549  20826411.722    20826412.0454   20826420.8724
        -0.000          -0.000
 99  4  5 19 12  0.0010000  0  8  9  2 26 24  8  5  7  4             0.000999956
 -21716960.453 9 -16877373.10848  21608822.731    21608822.7434   21608831.4054
        -0.000          -0.000
   6360458.573 9   4974196.09947  22960677.038    22960676.7044   22960688.9974
        -0.000          -0.000
   9398771.140 8   7331434.40245  24958639.814    24958639.9834   24958653.9184
        -0.000          -0.000
 -13182537.974 9  -8719295.33647  22717855.380    22717855.3964   22717868.7804
        -0.000          -0.000
 -10799957.338 9  -8007199.52646  23820037.586    23820037.2214   23820050.2004
        -0.000          -0.000
  -9505564.981 9  -7361604.45946  23969398.585    23969398.2614   23969410.4954
        -0.000          -0.000
   6354259.279 9   4973315.98248  22049918.995    22049918.5594   22049928.6594
        -0.000          -0.000
 -22014619.851 9 -17099469.22149  20819500.479    20819500.8004   20819509.6584
        -0.000          -0.000
 99  4  5 19 12 30.0010000  0  8  9  2 26 24  8  5  7  4             0.000999954
 -21750009.080 9 -16903125.28648  21602533.880    21602533.8774   21602542.4604
        -0.000          -0.000
   6418135.014 9   5019138.62247  22971652.636    22971652.2764   22971664.5824
        -0.000          -0.000
   9470219.083 8   7387107.89445  24972236.018    24972236.2094   24972250.1814
        -0.000          -0.000
 -13280166.004 9  -8795368.94547  22699277.291    22699277.2784   22699290.6594
        -0.000          -0.000
 -10898377.793 9  -8083890.71446  23801308.766    23801308.3964   23801321.4114
        -0.000          -0.000
  -9587952.329 9  -7425802.33446  23953720.613    23953720.3644   23953732.7024
        -0.000          -0.000
   6414441.332 9   5020211.02048  22061371.293    22061370.8514   22061380.9614
        -0.000          -0.000
 -22050314.100 9 -17127282.88949  20812708.030    20812708.3524   20812717.2204
        -0.000          -0.000
 99  4  5 19 13  0.0010000  0  8  9  2 26 24  8  5  7  4             0.000999950
 -21782540.892 9 -16928474.74748  21596343.331    21596343.3234   21596351.9064
        -0.000          -0.000
   6476066.947 9   5064280.23647  22982676.881    22982676.4844   22982688.8694
        -0.000          -0.000
   9541654.256 8   7442771.42545  24985829.822    24985830.0904   24985844.1164
        -0.000          -0.000
 -13377542.559 9  -8871246.61547  22680747.026    22680747.0064   22680760.4054
        -0.000          -0.000
 -10996531.113 9  -8160373.73646  23782630.805    23782630.4574   23782643.3284
        -0.000          -0.000
  -9670320.191 9  -7489985.02046  23938046.455    23938046.1964   23938058.5434
        -0.000          -0.000
   6474726.150 9   5067186.14448  22072843.246    22072842.7984   22072852.8334
        -0.000          -0.000
 -22085414.603 9 -17154633.90049  20806028.584    20806028.9164   20806037.8084
        -0.000          -0.000
 99  4  5 19 13 30.0010000  0  8  9  2 26 24  8  5  7  4             0.000999944
 -21814542.867 9 -16953411.34748  21590253.558    21590253.5684   21590262.1404
        -0.000          -0.000
   6534253.506 9   5109620.24347  22993749.543    22993749.1084   22993761.5664
        -0.000          -0.000
   9613076.104 8   7498424.59845  24999420.903    24999421.3114   24999435.3264
        -0.000          -0.000
 -13474670.664 9  -8946930.69347  22662264.054    22662264.0614   22662277.4424
        -0.000          -0.000
 -11094411.143 9  -8236643.80646  23764004.851    23764004.5324   23764017.3294
        -0.000          -0.000
  -9752668.025 9  -7554152.10446  23922376.176    23922375.9144   23922388.2054
        -0.000          -0.000
   6535093.807 9   5114225.82448  22084331.009    22084330.5364   22084340.4574
        -0.000          -0.000
 -22119944.727 9 -17181540.45949  20799457.664    20799458.0154   20799466.9054
        -0.000          -0.000
 99  4  5 19 14  0.0010000  0  8  9  2 26 24  8  5  7  4             0.000999945
 -21845998.144 9 -16977921.94948  21584267.831    21584267.8424   21584276.3944
        -0.000          -0.000
   6592702.788 9   5155164.98147  23004872.121    23004871.7184   23004884.2864
        -0.000          -0.000
   9684494.649 8   7554075.18645  25013011.361    25013011.7724   25013026.0204
        -0.000          -0.000
 -13571531.180 9  -9022406.25647  22643832.013    22643832.0314   22643845.3884
        -0.000          -0.000
 -11191986.636 9  -8312676.54946  23745436.781    23745436.4574   23745449.3644
        -0.000          -0.000
  -9834992.386 9  -7618300.89846  23906710.386    23906710.1294   23906722.2914
        -0.000          -0.000
   6595544.183 9   5161329.95948  22095834.442    22095833.9724   22095843.8244
        -0.000          -0.000
 -22153911.928 9 -17208008.37449  20792993.934    20792994.2704   20793003.1644
        -0.000          -0.000
 99  4  5 19 14 30.0010000  0  8  9  2 26 24  8  5  7  4             0.000999955
 -21876927.758 9 -17002022.94448  21578382.059    21578382.0674   21578390.6244
        -0.000          -0.000
   6651398.526 9   5200901.76447  23016041.660    23016041.2464   23016053.9124
        -0.000          -0.000
   9755902.866 8   7609717.71345  25026599.919    25026600.4344   25026614.7974
        -0.000          -0.000
 -13668143.400 9  -9097688.34447  22625447.236    22625447.2484   22625460.5674
        -0.000          -0.000
 -11289257.442 9  -8388471.88546  23726926.687    23726926.3814   23726939.4054
        -0.000          -0.000
  -9917298.727 9  -7682435.64046  23891048.027    23891047.7824   23891059.9914
        -0.000          -0.000
   6656077.277 9   5208498.54248  22107353.589    22107353.0984   22107362.9934
        -0.000          -0.000
 -22187324.536 9 -17234044.13949  20786635.698    20786636.0514   20786644.9774
        -0.000          -0.000
 99  4  5 19 15  0.0010000  0  8  9  2 26 24  8  5  7  4             0.000999968
 -21907366.223 9 -17025741.22748  21572589.739    21572589.7374   21572598.3544
        -0.000          -0.000
   6710327.054 9   5246819.94047  23027255.466    23027255.0534   23027267.8264
        -0.000          -0.000
   9827289.420 8   7665343.36245  25040184.552    25040185.0014   25040199.3894
        -0.000          -0.000
 -13764531.488 9  -9172795.77647  22607105.140    22607105.1474   22607118.4084
        -0.000          -0.000
 -11386243.373 9  -8464045.23946  23708470.849    23708470.4384   23708483.4794
        -0.000          -0.000
  -9999619.850 9  -7746581.89646  23875382.861    23875382.5874   23875394.8314
        -0.000          -0.000
   6716671.010 9   5255714.37348  22118884.220    22118883.7364   22118893.6374
        -0.000          -0.000
 -22220204.582 9 -17259664.91849  20780378.822    20780379.1934   20780388.0634
        -0.000          -0.000
 99  4  5 19 15 30.0010000  0  8  9  2 26 24  8  5  7  4             0.000999980
 -21937313.998 9 -17049077.14648  21566890.817    21566890.8324   21566899.5474
        -0.000          -0.000
   6769501.697 9   5292929.89647  23038516.115    23038515.7274   23038528.6244
        -0.000          -0.000
   9898637.064 8   7720938.69645  25053761.631    25053762.0224   25053776.8174
        -0.000          -0.000
 -13860698.592 9  -9247731.01247  22588805.052    22588805.0364   22588818.2864
        -0.000          -0.000
 -11482953.241 9  -8539403.47746  23690067.542    23690067.2184   23690080.0254
        -0.000          -0.000
 -10081983.852 9  -7810761.56046  23859709.557    23859709.2574   23859721.4464
        -0.000          -0.000
   6777325.203 9   5302977.32848  22130426.373    22130425.8854   22130435.8104
        -0.000          -0.000
 -22252559.201 9 -17284876.27449  20774221.969    20774222.3154   20774231.1274
        -0.000          -0.000
 99  4  5 19 16  0.0010000  0  8  9  2 26 24  8  5  7  4             0.000999985
 -21966759.288 9 -17072021.52648  21561287.565    21561287.5814   21561296.3564
        -0.000          -0.000
   6828923.453 9   5339232.40447  23049823.824    23049823.4694   23049836.4334
        -0.000          -0.000
   9969950.513 8   7776507.39545  25067332.184    25067332.5974   25067347.4874
        -0.000          -0.000
 -13956631.682 9  -9322483.91147  22570549.503    22570549.4844   22570562.6654
        -0.000          -0.000
 -11579392.816 9  -8614551.10046  23671715.683    23671715.4034   23671728.0324
        -0.000          -0.000
 -10164387.573 9  -7874972.17246  23844028.630    23844028.2934   23844040.5114
        -0.000          -0.000
   6838060.904 9   5350303.80348  22141983.996    22141983.5334   22141993.4474
        -0.000          -0.000
 -22284361.753 9 -17309657.46049  20768170.068    20768170.4454   20768179.2884
        -0.000          -0.000
 99  4  5 19 16 30.0010000  0  8  9  2 26 24  8  5  7  4             0.000999984
 -21995680.508 9 -17094557.54048  21555783.992    21555784.0114   21555792.7954
        -0.000          -0.000
   6888600.494 9   5385733.83347  23061180.141    23061179.7974   23061192.7914
        -0.000          -0.000
  10041236.344 8   7832054.55545  25080897.610    25080897.9954   25080912.9114
        -0.000          -0.000
 -14052326.235 9  -9397050.93947  22552339.300    22552339.2714   22552352.3604
        -0.000          -0.000
 -11675559.531 9  -8689486.11246  23653415.770    23653415.3814   23653427.9764
        -0.000          -0.000
 -10246804.034 9  -7939192.71746  23828345.257    23828344.8804   23828357.0924
        -0.000          -0.000
   6898894.130 9   5397706.26148  22153560.127    22153559.6704   22153569.6844
        -0.000          -0.000
 -22315585.876 9 -17333987.91649  20762228.345    20762228.7084   20762237.5194
        -0.000          -0.000
 99  4  5 19 17  0.0010000  0  8  9  2 26 24  8  5  7  4             0.000999975
 -22024033.235 9 -17116650.57648  21550388.691    21550388.7064   21550397.4914
        -0.000          -0.000
   6948544.624 9   5432443.38347  23072587.311    23072586.9304   23072599.9514
        -0.000          -0.000
  10112517.213 8   7887597.84445  25094462.128    25094462.5354   25094477.5584
        -0.000          -0.000
 -14147749.878 9  -9471406.87347  22534180.611    22534180.6324   22534193.6574
        -0.000          -0.000
 -11771434.842 9  -8764194.04746  23635171.246    23635170.8824   23635183.4404
        -0.000          -0.000
 -10329228.499 9  -8003419.49746  23812660.408    23812660.0684   23812672.1594
        -0.000          -0.000
   6959843.564 9   5445199.26348  22165158.437    22165157.9804   22165168.1044
        -0.000          -0.000
 -22346200.854 9 -17357843.71849  20756402.499    20756402.8314   20756411.5954
        -0.000          -0.000
 99  4  5 19 17 30.0010000  0  8  9  2 26 24  8  5  7  4             0.000999965
 -22051794.911 9 -17138283.05748  21545105.856    21545105.8634   21545114.6304
        -0.000          -0.000
   7008766.452 9   5479369.32147  23084047.166    23084046.8074   23084059.9174
        -0.000          -0.000
  10183807.292 8   7943148.31545  25108028.253    25108028.7134   25108043.9224
        -0.000          -0.000
 -14242862.800 9  -9545520.69447  22516081.091    22516081.1024   22516094.0554
        -0.000          -0.000
 -11867007.447 9  -8838666.09746  23616984.341    23616984.0424   23616996.5774
        -0.000          -0.000
 -10411630.459 9  -8067628.74146  23796979.848    23796979.4644   23796991.4654
        -0.000          -0.000
   7020932.788 9   5492801.19648  22176783.326    22176782.8734   22176793.1174
        -0.000          -0.000
 -22376173.994 9 -17381199.39449  20750698.773    20750699.1104   20750707.8514
        -0.000          -0.000
 99  4  5 19 18  0.0010000  0  8  9  2 26 24  8  5  7  4             0.000999954
 -22078982.604 9 -17159468.27548  21539932.242    21539932.2454   21539940.9694
        -0.000          -0.000
   7069252.646 9   5526501.26547  23095557.481    23095557.0884   23095570.1884
        -0.000          -0.000
  10255105.110 8   7998704.80445  25121595.927    25121596.2304   25121611.6544
        -0.000          -0.000
 -14337652.580 9  -9619382.70647  22498043.171    22498043.1094   22498055.9774
        -0.000          -0.000
 -11962276.407 9  -8912901.55346  23598855.176    23598854.9334   23598867.5174
        -0.000          -0.000
 -10493993.150 9  -8131807.39146  23781306.740    23781306.3844   23781318.3054
        -0.000          -0.000
   7082141.400 9   5540496.15148  22188430.904    22188430.4794   22188440.8434
        -0.000          -0.000
 -22405494.718 9 -17404046.69249  20745119.221    20745119.5534   20745128.2744
        -0.000          -0.000
 99  4  5 19 18 30.0010000  0  8  9  2 26 24  8  5  7  4             0.000999954
 -22105598.142 9 -17180207.66248  21534867.509    21534867.5214   21534876.1594
        -0.000          -0.000
   7130028.032 9   5573858.54747  23107122.887    23107122.4324   23107135.4594
        -0.000          -0.000
  10326410.145 8   8054266.92045  25135165.136    25135165.4464   25135180.6464
        -0.000          -0.000
 -14432107.509 9  -9692983.80347  22480068.883    22480068.7924   22480081.5914
        -0.000          -0.000
 -12057226.068 9  -8986888.20446  23580786.803    23580786.5514   23580799.0674
        -0.000          -0.000
 -10576312.603 9  -8195952.34946  23765641.749    23765641.3994   23765653.3814
        -0.000          -0.000
   7143459.651 9   5588276.53748  22200099.376    22200098.9614   22200109.4464
        -0.000          -0.000
 -22434164.670 9 -17426386.90649  20739663.468    20739663.8104   20739672.5114
        -0.000          -0.000
 99  4  5 19 19  0.0010000  0  8  9  2 26 24  8  5  7  4             0.000999968
 -22131668.980 9 -17200522.60248  21529906.405    21529906.4164   21529915.0344
        -0.000          -0.000
   7191095.616 9   5621443.52347  23118743.679    23118743.2674   23118756.3854
        -0.000          -0.000
  10397713.590 8   8109827.80245  25148733.969    25148734.3634   25148749.3414
        -0.000          -0.000
 -14526217.375 9  -9766316.02247  22462160.280    22462160.2304   22462172.9794
        -0.000          -0.000
 -12151863.153 9  -9060631.28346  23562777.930    23562777.6194   23562790.1334
        -0.000          -0.000
 -10658611.000 9  -8260080.89446  23749980.861    23749980.5314   23749992.3784
        -0.000          -0.000
   7204861.400 9   5636121.98148  22211783.793    22211783.3724   22211793.8924
        -0.000          -0.000
 -22462200.166 9 -17448232.73349  20734328.538    20734328.8834   20734337.5294
        -0.000          -0.000
 99  4  5 19 19 30.0010000  0  7  9  2 24  8  5  7  4                0.000999923
 -22157177.886 9 -17220399.67348  21525052.221    21525052.2264   21525060.8194
        -0.000          -0.000
   7252481.781 9   5669276.73446  23130425.137    23130424.7504   23130437.7664
        -0.000          -0.000
 -14619960.189 9  -9839362.22747  22444321.521    22444321.4104   22444334.1084
        -0.000          -0.000
 -12246141.772 9  -9134095.06246  23544837.231    23544836.9394   23544849.3644
        -0.000          -0.000
 -10740847.696 9  -8324161.37246  23734331.634    23734331.2854   23734343.1384
        -0.000          -0.000
   7266355.139 9   5684039.12348  22223485.780    22223485.3614   22223495.7794
        -0.000          -0.000
 -22489581.419 9 -17469568.76049  20729118.085    20729118.4104   20729127.0244
        -0.000          -0.000
 99  4  5 19 20  0.0010000  0  7  9  2 24  8  5  7  4                0.000999951
 -22182193.541 9 -17239892.39548  21520291.911    21520291.9024   21520300.4544
        -0.000          -0.000
   7314095.157 9   5717287.00346  23142149.967    23142149.5434   23142162.5324
        -0.000          -0.000
 -14713441.159 9  -9912204.39847  22426532.463    22426532.3954   22426545.0734
        -0.000          -0.000
 -12340130.018 9  -9207332.55246  23526951.777    23526951.5004   23526963.8834
        -0.000          -0.000
 -10823116.027 9  -8388266.49046  23718676.366    23718676.0624   23718688.0074
        -0.000          -0.000
   7327851.965 9   5731958.67948  22235188.373    22235187.9594   22235198.2224
        -0.000          -0.000
 -22516409.242 9 -17490473.54149  20724012.912    20724013.2344   20724021.8404
        -0.000          -0.000
 99  4  5 19 20 30.0010000  0  7  9  2 24  8  5  7  4                0.000999972
 -22206675.392 9 -17258969.17148  21515633.214    21515633.2274   21515641.7364
        -0.000          -0.000
   7375948.890 9   5765484.56546  23153920.454    23153920.0244   23153933.1054
        -0.000          -0.000
 -14806649.942 9  -9984834.47947  22408795.202    22408795.2144   22408807.9104
        -0.000          -0.000
 -12433799.201 9  -9280321.42746  23509126.971    23509126.7014   23509139.0304
        -0.000          -0.000
 -10905400.031 9  -8452383.81846  23703018.149    23703017.8234   23703029.9354
        -0.000          -0.000
   7389391.374 9   5779911.41048  22246899.040    22246898.6324   22246908.8454
        -0.000          -0.000
 -22542679.959 9 -17510944.21149  20719013.725    20719014.0554   20719022.6754
        -0.000          -0.000
 99  4  5 19 21  0.0010000  0  7  9  2 24  8  5  7  4                0.000999995
 -22230580.759 9 -17277596.74049  21511084.158    21511084.1764   21511092.7114
        -0.000          -0.000
   7438049.765 9   5813874.70146  23165737.816    23165737.4134   23165750.6574
        -0.000          -0.000
 -14899559.194 9 -10057231.15947  22391115.018    22391115.0344   22391127.7034
        -0.000          -0.000
 -12527105.521 9  -9353027.56846  23491371.286    23491370.9824   23491383.2844
        -0.000          -0.000
 -10987660.639 9  -8516482.92246  23687364.379    23687364.0094   23687376.2684
        -0.000          -0.000
   7451021.656 9   5827934.94048  22258627.002    22258626.5534   22258636.7944
        -0.000          -0.000
 -22568363.137 9 -17530957.05449  20714126.368    20714126.7084   20714135.3344
        -0.000          -0.000
 99  4  5 19 21 30.0010000  0  7  9  2 24  8  5  7  4                0.000999977
 -22253946.055 9 -17295803.47649  21506637.900    21506637.9054   21506646.4774
        -0.000          -0.000
   7500341.534 9   5862413.56746  23177591.780    23177591.3874   23177604.5114
        -0.000          -0.000
 -14992232.993 9 -10129444.36747  22373479.645    22373479.6834   22373492.3284
        -0.000          -0.000
 -12620092.533 9  -9425484.86646  23473676.333    23473676.0034   23473688.4204
        -0.000          -0.000
 -11069942.450 9  -8580598.54446  23671706.504    23671706.2084   23671718.4474
        -0.000          -0.000
   7512711.221 9   5876004.65848  22270366.147    22270365.6574   22270375.9924
        -0.000          -0.000
 -22593509.984 9 -17550551.97549  20709341.051    20709341.3914   20709350.0754
        -0.000          -0.000
 99  4  5 19 22  0.0010000  0  7  9  2 24  8  5  7  4                0.000999965
 -22276717.519 9 -17313547.48349  21502304.607    21502304.6244   21502313.2524
        -0.000          -0.000
   7562903.121 9   5911162.69846  23189497.014    23189496.6064   23189509.7154
        -0.000          -0.000
 -15084603.808 9 -10201421.47947  22355902.003    22355902.0214   22355914.6974
        -0.000          -0.000
 -12712725.318 9  -9497666.15246  23456048.776    23456048.4564   23456060.9074
        -0.000          -0.000
 -11152169.689 9  -8644671.64746  23656059.107    23656058.8224   23656070.9634
        -0.000          -0.000
   7574538.444 9   5924181.64347  22282131.386    22282130.9424   22282141.3404
        -0.000          -0.000
 -22618064.449 9 -17569685.30349  20704668.472    20704668.8064   20704677.4884
        -0.000          -0.000
 99  4  5 19 22 30.0010000  0  7  9  2 24  8  5  7  4                0.000999957
 -22298938.483 9 -17330862.52949  21498076.097    21498076.1224   21498084.8064
        -0.000          -0.000
   7625723.417 9   5960113.42446  23201451.448    23201451.0494   23201464.2044
        -0.000          -0.000
 -15176683.757 9 -10273171.94547  22338379.733    22338379.7024   22338392.3344
        -0.000          -0.000
 -12805034.615 9  -9569595.36246  23438482.842    23438482.5464   23438494.9404
        -0.000          -0.000
 -11234353.170 9  -8708710.63646  23640420.031    23640419.7484   23640431.8524
        -0.000          -0.000
   7636484.884 9   5972451.53147  22293919.474    22293919.0214   22293929.4474
        -0.000          -0.000
 -22642043.972 9 -17588370.61349  20700105.318    20700105.6454   20700114.2904
        -0.000          -0.000
 99  4  5 19 23  0.0010000  0  7  9  2 24  8  5  7  4                0.000999980
 -22320593.722 9 -17347736.74949  21493955.228    21493955.2354   21493963.9804
        -0.000          -0.000
   7688853.161 9   6009305.28146  23213464.804    23213464.4034   23213477.5144
        -0.000          -0.000
 -15268436.318 9 -10344667.31547  22320919.699    22320919.6694   22320932.3024
        -0.000          -0.000
 -12896994.398 9  -9641252.23246  23420983.390    23420983.1214   23420995.3834
        -0.000          -0.000
 -11316454.487 9  -8772685.61546  23624796.622    23624796.3344   23624808.3914
        -0.000          -0.000
   7698572.712 9   6020831.59947  22305734.481    22305734.0314   22305744.4474
        -0.000          -0.000
 -22665391.823 9 -17606563.71249  20695662.349    20695662.6714   20695671.2954
        -0.000          -0.000
 99  4  5 19 23 30.0010000  0  7  9  2 24  8  5  7  4                0.000999984
 -22341785.810 9 -17364250.07349  21489922.390    21489922.4164   21489931.1974
        -0.000          -0.000
   7752218.223 9   6058680.49646  23225522.765    23225522.3864   23225535.6364
        -0.000          -0.000
 -15359948.574 9 -10415975.43447  22303505.389    22303505.3754   22303517.9514
        -0.000          -0.000
 -12988708.603 9  -9712717.75546  23403530.726    23403530.4634   23403542.5444
        -0.000          -0.000
 -11398562.494 9  -8836665.80946  23609172.024    23609171.7004   23609183.7324
        -0.000          -0.000
   7760687.463 9   6069232.64747  22317554.554    22317554.0994   22317564.5144
        -0.000          -0.000
 -22688194.349 9 -17624331.87849  20691323.150    20691323.4754   20691332.1134
        -0.000          -0.000
 99  4  5 19 24  0.0010000  0  7  9  2 24  8  5  7  4                0.000999971
 -22362500.456 9 -17380391.36449  21485980.505    21485980.5454   21485989.3904
        -0.000          -0.000
   7815830.261 9   6108248.15046  23237627.824    23237627.5054   23237640.8014
        -0.000          -0.000
 -15451199.174 9 -10487079.67847  22286140.856    22286140.8664   22286153.3614
        -0.000          -0.000
 -13080163.760 9  -9783981.41846  23386127.343    23386127.1014   23386138.9924
        -0.000          -0.000
 -11480675.481 9  -8900649.88146  23593546.412    23593546.0984   23593558.0494
        -0.000          -0.000
   7822833.744 9   6117658.26247  22329380.575    22329380.1324   22329390.5584
        -0.000          -0.000
 -22710427.049 9 -17641656.02049  20687092.382    20687092.7044   20687101.3544
        -0.000          -0.000
 99  4  5 19 24 30.0010000  0  7  9  2 24  8  5  7  4                0.000999958
 -22382671.299 9 -17396108.91049  21482142.134    21482142.1524   21482151.0394
        -0.000          -0.000
   7879734.036 9   6158043.12846  23249788.485    23249788.1264   23249801.4794
        -0.000          -0.000
 -15542136.999 9 -10557940.20847  22268835.862    22268835.8864   22268848.2434
        -0.000          -0.000
 -13171282.138 9  -9854982.67046  23368788.016    23368787.7354   23368799.5034
        -0.000          -0.000
 -11562775.776 9  -8964624.05746  23577923.178    23577922.8844   23577934.8544
        -0.000          -0.000
   7885053.406 9   6166141.05547  22341220.553    22341220.1054   22341230.6304
        -0.000          -0.000
 -22732022.911 9 -17658483.92349  20682982.810    20682983.1494   20682991.7824
        -0.000          -0.000
 99  4  5 19 25  0.0010000  0  7  9  2 24  8  5  7  4                0.000999947
 -22402253.174 9 -17411367.51949  21478415.808    21478415.8224   21478424.7324
        -0.000          -0.000
   7943942.422 9   6208075.46646  23262006.988    23262006.6384   23262020.1004
        -0.000          -0.000
 -15632729.611 9 -10628531.74047  22251596.626    22251596.6304   22251608.8994
        -0.000          -0.000
 -13262031.818 9  -9925696.61146  23351518.895    23351518.6204   23351530.3344
        -0.000          -0.000
 -11644850.292 9  -9028578.15546  23562304.773    23562304.5364   23562316.4874
        -0.000          -0.000
   7947357.949 9   6214689.97947  22353076.667    22353076.2084   22353086.8404
        -0.000          -0.000
 -22752952.141 9 -17674792.38049  20679000.074    20679000.4064   20679009.0484
        -0.000          -0.000
 99  4  5 19 25 30.0010000  0  7  9  2 24  8  5  7  4                0.000999944
 -22421220.551 9 -17426147.29749  21474806.393    21474806.4314   21474815.3094
        -0.000          -0.000
   8008448.242 9   6258339.58646  23274282.157    23274281.7204   23274295.3604
        -0.000          -0.000
 -15722956.385 9 -10698838.19847  22234427.005    22234426.9774   22234439.2324
        -0.000          -0.000
 -13352383.389 9  -9996100.33846  23334325.510    23334325.1334   23334336.8574
        -0.000          -0.000
 -11726892.300 9  -9092506.90746  23546692.647    23546692.4044   23546704.3814
        -0.000          -0.000
   8009761.891 9   6263316.35247  22364951.672    22364951.2564   22364962.0264
        -0.000          -0.000
 -22773220.543 9 -17690585.89949  20675143.083    20675143.4164   20675152.0524
        -0.000          -0.000
 99  4  5 19 26  0.0010000  0  7  9  2 24  8  5  7  4                0.000999938
 -22439586.289 9 -17440458.27549  21471311.529    21471311.5404   21471320.4174
        -0.000          -0.000
   8073217.831 9   6308809.23046  23286607.544    23286607.0974   23286620.7554
        -0.000          -0.000
 -15812826.374 9 -10768866.66047  22217325.221    22217325.2064   22217337.4564
        -0.000          -0.000
 -13442347.006 9 -10066201.77446  23317205.917    23317205.6044   23317217.1574
        -0.000          -0.000
 -11808914.187 9  -9156419.99046  23531084.321    23531084.0404   23531095.9714
        -0.000          -0.000
   8072257.807 9   6312014.39347  22376844.348    22376843.9334   22376854.7534
        -0.000          -0.000
 -22792861.042 9 -17705890.14849  20671405.568    20671405.9144   20671414.5594
        -0.000          -0.000
 99  4  5 19 26 30.0010000  0  7  9  2 24  8  5  7  4                0.000999927
 -22457376.677 9 -17454320.92449  21467926.136    21467926.1644   21467935.0294
        -0.000          -0.000
   8138226.481 9   6359465.13946  23298978.427    23298977.9534   23298991.7154
        -0.000          -0.000
 -15902347.953 9 -10838623.63648  22200289.783    22200289.7604   22200301.9944
        -0.000          -0.000
 -13531942.196 9 -10136016.12146  23300156.415    23300156.0684   23300167.5784
        -0.000          -0.000
 -11890917.250 9  -9220318.39546  23515479.548    23515479.2734   23515491.1304
        -0.000          -0.000
   8134806.316 9   6360753.41947  22388747.071    22388746.6434   22388757.4174
        -0.000          -0.000
 -22811903.786 9 -17720728.60849  20667781.816    20667782.1524   20667790.7914
        -0.000          -0.000
 99  4  5 19 27  0.0010000  0  7  9  2 24  8  5  7  4                0.000999930
 -22474599.526 9 -17467741.34049  21464648.762    21464648.7634   21464657.6154
        -0.000          -0.000
   8203478.348 9   6410310.55946  23311395.549    23311395.0264   23311408.9654
        -0.000          -0.000
 -15991506.793 9 -10908097.95848  22183323.300    22183323.3154   22183335.5504
        -0.000          -0.000
 -13621164.307 9 -10205539.75946  23283177.960    23283177.6324   23283188.9084
        -0.000          -0.000
 -11972863.057 9  -9284172.17746  23499885.660    23499885.4384   23499897.2214
        -0.000          -0.000
   8197407.945 9   6409533.83047  22400659.959    22400659.4964   22400670.2144
        -0.000          -0.000
 -22830346.965 9 -17735099.87749  20664272.112    20664272.4624   20664281.1194
        -0.000          -0.000
 99  4  5 19 27 30.0010000  0  7  9  2 24  8  5  7  4                0.000999940
 -22491285.161 9 -17480743.14749  21461473.620    21461473.6514   21461482.4994
        -0.000          -0.000
   8268964.108 9   6461338.23046  23323857.193    23323856.6994   23323870.6374
        -0.000          -0.000
 -16080327.782 9 -10977309.03348  22166421.160    22166421.2164   22166433.3564
        -0.000          -0.000
 -13710039.589 9 -10274793.13546  23266265.536    23266265.1804   23266276.3564
        -0.000          -0.000
 -12054770.929 9  -9347996.39846  23484299.163    23484298.8784   23484310.5534
        -0.000          -0.000
   8260038.221 9   6458336.57547  22412578.174    22412577.7354   22412588.4104
        -0.000          -0.000
 -22848215.185 9 -17749023.13149  20660871.892    20660872.2264   20660880.9524
        -0.000          -0.000
 99  4  5 19 28  0.0010000  0  7  9  2 24  8  5  7  4                0.000999963
 -22507425.285 9 -17493319.88149  21458402.324    21458402.3374   21458411.1614
        -0.000          -0.000
   8334711.834 9   6512570.03946  23336368.732    23336368.2574   23336382.2224
        -0.000          -0.000
 -16168806.901 9 -11046253.70948  22149584.129    22149584.1524   22149596.1914
        -0.000          -0.000
 -13798575.012 9 -10343781.69646  23249417.806    23249417.4734   23249428.5374
        -0.000          -0.000
 -12136644.266 9  -9411793.71446  23468719.228    23468718.8944   23468730.5704
        -0.000          -0.000
   8322694.251 9   6507159.37147  22424501.227    22424500.7914   22424511.5014
        -0.000          -0.000
 -22865500.212 9 -17762491.95449  20657582.616    20657582.9534   20657591.6424
        -0.000          -0.000
 99  4  5 19 28 30.0010000  0  7  9  2 24  8  5  7  4                0.000999970
 -22523049.301 9 -17505494.45149  21455429.189    21455429.1954   21455438.0314
        -0.000          -0.000
   8400706.141 9   6563993.97646  23348927.269    23348926.8044   23348940.8264
        -0.000          -0.000
 -16256985.013 9 -11114963.83048  22132804.369    22132804.3494   22132816.2924
        -0.000          -0.000
 -13886794.092 9 -10412523.74246  23232630.223    23232629.8554   23232640.9564
        -0.000          -0.000
 -12218529.648 9  -9475600.42146  23453136.929    23453136.6124   23453148.3124
        -0.000          -0.000
   8385356.324 9   6555986.88347  22436425.438    22436424.9964   22436435.7364
        -0.000          -0.000
 -22882214.561 9 -17775516.09549  20654401.977    20654402.3354   20654410.9584
        -0.000          -0.000
 99  4  5 19 29  0.0010000  0  7  9  2 24  8  5  7  4                0.000999979
 -22538096.263 9 -17517219.36849  21452565.891    21452565.9184   21452574.7274
        -0.000          -0.000
   8466994.135 9   6615646.77146  23361541.563    23361541.1614   23361555.1544
        -0.000          -0.000
 -16344828.879 9 -11183413.50548  22116088.104    22116088.1014   22116100.0504
        -0.000          -0.000
 -13974647.876 9 -10480981.16846  23215912.148    23215911.7004   23215922.8824
        -0.000          -0.000
 -12300395.624 9  -9539392.00846  23437558.358    23437558.0764   23437569.7634
        -0.000          -0.000
   8448100.692 9   6604878.52447  22448365.322    22448364.8804   22448375.6484
        -0.000          -0.000
 -22898316.398 9 -17788062.95949  20651337.903    20651338.2364   20651346.8724
        -0.000          -0.000
 99  4  5 19 29 30.0010000  0  7  9  2 24  8  5  7  4                0.000999980
 -22552557.471 9 -17528487.85449  21449814.024    21449814.0434   21449822.8504
        -0.000          -0.000
   8533570.406 9   6667524.20746  23374210.668    23374210.3204   23374224.4684
        -0.000          -0.000
 -16432345.810 9 -11251608.41948  22099434.057    22099434.1004   22099446.0564
        -0.000          -0.000
 -14062138.548 9 -10549155.60846  23199263.132    23199262.7154   23199273.9504
        -0.000          -0.000
 -12382256.312 9  -9603179.48346  23421980.816    23421980.5204   23421992.1624
        -0.000          -0.000
   8510936.210 9   6653841.19447  22460322.570    22460322.1424   22460332.9014
        -0.000          -0.000
 -22913816.425 9 -17800140.88449  20648388.357    20648388.6984   20648397.2934
        -0.000          -0.000
 99  4  5 19 30  0.0010000  0  7  9  2 24  8  5  7  4                0.000999982
 -22566437.580 9 -17539303.53649  21447172.705    21447172.7314   21447181.5434
        -0.000          -0.000
   8600437.986 9   6719628.62146  23386935.444    23386935.0124   23386949.0014
        -0.000          -0.000
 -16519530.125 9 -11319544.14448  22082843.454    22082843.4464   22082855.3994
        -0.000          -0.000
 -14149258.697 9 -10617041.36546  23182684.656    23182684.2624   23182695.5494
        -0.000          -0.000
 -12464100.045 9  -9666953.73146  23406406.407    23406406.1234   23406417.7384
        -0.000          -0.000
   8573879.119 9   6702887.53747  22472300.321    22472299.8904   22472310.6364
        -0.000          -0.000
 -22928712.104 9 -17811747.89149  20645553.752    20645554.0804   20645562.6424
        -0.000          -0.000
 99  4  5 19 30 30.0010000  0  7  9  2 24  8  5  7  4                0.000999980
 -22579756.883 9 -17549682.22949  21444638.139    21444638.1764   21444647.0064
        -0.000          -0.000
   8667576.416 9   6771944.09946  23399711.658    23399711.1374   23399725.1334
        -0.000          -0.000
 -16606380.795 9 -11387219.88348  22066316.300    22066316.2874   22066328.2054
        -0.000          -0.000
 -14236010.909 9 -10684640.41546  23166176.224    23166175.8104   23166187.0974
        -0.000          -0.000
 -12545911.168 9  -9730702.57246  23390838.181    23390837.8714   23390849.4924
        -0.000          -0.000
   8636932.307 9   6752019.82147  22484299.040    22484298.5944   22484309.3474
        -0.000          -0.000
 -22943002.419 9 -17822883.18549  20642834.390    20642834.7434   20642843.3054
        -0.000          -0.000
 99  4  5 19 31  0.0010000  0  7  9  2 24  8  5  7  4                0.000999971
 -22592516.778 9 -17559625.02349  21442210.063    21442210.0874   21442218.8944
        -0.000          -0.000
   8734977.670 9   6824464.36546  23412537.687    23412537.2874   23412551.3104
        -0.000          -0.000
 -16692899.807 9 -11454637.18148  22049852.215    22049852.1754   22049864.0734
        -0.000          -0.000
 -14322407.417 9 -10751962.28946  23149735.407    23149735.0124   23149746.3814
        -0.000          -0.000
 -12627670.595 9  -9794411.13946  23375279.849    23375279.5614   23375290.9974
        -0.000          -0.000
   8700077.774 9   6801224.00147  22496315.327    22496314.8954   22496325.6354
        -0.000          -0.000
 -22956688.186 9 -17833547.41149  20640230.093    20640230.4464   20640238.9954
        -0.000          -0.000
 99  4  5 19 31 30.0010000  0  7  9  2 24  8  5  7  4                0.000999967
 -22604734.467 9 -17569145.31549  21439885.207    21439885.2164   21439894.0324
        -0.000          -0.000
   8802649.670 9   6877195.58845  23425415.487    23425415.1024   23425429.0074
        -0.000          -0.000
 -16779076.194 9 -11521787.49248  22033453.229    22033453.2484   22033465.0984
        -0.000          -0.000
 -14408444.079 9 -10819003.75146  23133363.058    23133362.6864   23133374.1374
        -0.000          -0.000
 -12709365.007 9  -9858069.04446  23359733.855    23359733.5534   23359744.9454
        -0.000          -0.000
   8763303.816 9   6850490.97847  22508346.958    22508346.4864   22508357.2834
        -0.000          -0.000
 -22969758.001 9 -17843731.67449  20637742.993    20637743.3374   20637751.8404
        -0.000          -0.000
 99  4  5 19 32  0.0010000  0  7  9  2 24  8  5  7  4                0.000999955
 -22616427.310 9 -17578256.63149  21437660.179    21437660.1674   21437669.0124
        -0.000          -0.000
   8870568.366 9   6930119.03245  23438340.228    23438339.7644   23438353.6214
        -0.000          -0.000
 -16864918.240 9 -11588677.26648  22017117.933    22017117.9574   22017129.7684
        -0.000          -0.000
 -14494134.273 9 -10885775.25346  23117056.703    23117056.2954   23117067.8324
        -0.000          -0.000
 -12791013.517 9  -9921691.18846  23344196.580    23344196.3404   23344207.6104
        -0.000          -0.000
   8826590.060 9   6899804.86147  22520389.950    22520389.4794   22520400.3904
        -0.000          -0.000
 -22982225.677 9 -17853446.73549  20635370.479    20635370.8304   20635379.3014
        -0.000          -0.000
 99  4  5 19 32 30.0010000  0  7  9  2 24  8  5  7  4                0.000999943
 -22627540.898 9 -17586916.58649  21435545.306    21435545.3214   21435554.1684
        -0.000          -0.000
   8938750.090 9   6983247.46845  23451314.835    23451314.4024   23451328.4254
        -0.000          -0.000
 -16950388.922 9 -11655277.66448  22000853.351    22000853.3564   22000865.1094
        -0.000          -0.000
 -14579420.791 9 -10952232.20446  23100827.183    23100826.7614   23100838.2894
        -0.000          -0.000
 -12872573.591 9  -9985244.43546  23328676.157    23328675.8444   23328687.1054
        -0.000          -0.000
   8889967.905 9   6949190.11747  22532450.300    22532449.8594   22532460.8724
        -0.000          -0.000
 -22994044.955 9 -17862656.55449  20633121.390    20633121.7274   20633130.1914
        -0.000          -0.000
 99  4  5 19 33  0.0010000  0  7  9  2 24  8  5  7  4                0.000999927
 -22638070.847 9 -17595121.75849  21433541.576    21433541.5784   21433550.4024
        -0.000          -0.000
   9007180.920 9   7036569.99145  23464337.037    23464336.6174   23464350.6634
        -0.000          -0.000
 -17035491.128 9 -11721590.93348  21984658.859    21984658.8784   21984670.6004
        -0.000          -0.000
 -14664287.929 9 -11018362.36546  23084677.395    23084677.0214   23084688.5224
        -0.000          -0.000
 -12954065.516 9 -10048744.58446  23313168.659    23313168.3604   23313179.5774
        -0.000          -0.000
   8953417.101 9   6998630.97847  22544524.373    22544523.9404   22544534.9514
        -0.000          -0.000
 -23005226.172 9 -17871369.17749  20630993.678    20630994.0004   20631002.4824
        -0.000          -0.000
 99  4  5 19 33 30.0010000  0  7  9  2 24  8  5  7  4                0.000999911
 -22648027.541 9 -17602880.23449  21431646.860    21431646.8504   21431655.6704
        -0.000          -0.000
   9075849.955 8   7090078.13745  23477404.441    23477404.0014   23477418.1824
        -0.000          -0.000
 -17120216.348 9 -11787610.44248  21968536.007    21968536.0194   21968547.7754
        -0.000          -0.000
 -14748725.118 9 -11084157.49846  23068609.457    23068609.1144   23068620.6274
        -0.000          -0.000
 -13035510.630 9 -10112208.25246  23297670.127    23297669.8094   23297680.9554
        -0.000          -0.000
   9016922.919 9   7048115.96247  22556609.247    22556608.8154   22556619.7764
        -0.000          -0.000
 -23015792.674 9 -17879602.79749  20628982.920    20628983.2424   20628991.7094
        -0.000          -0.000
 99  4  5 19 34  0.0010000  0  7  9  2 24  8  5  7  4                0.000999899
 -22657388.152 9 -17610174.23449  21429865.600    21429865.5934   21429874.4094
        -0.000          -0.000
   9144767.876 8   7143780.18345  23490519.162    23490518.7424   23490532.9684
        -0.000          -0.000
 -17204551.146 9 -11853325.72848  21952487.538    21952487.5394   21952499.3204
        -0.000          -0.000
 -14832724.173 9 -11149611.22346  23052624.909    23052624.5504   23052636.1664
        -0.000          -0.000
 -13116890.882 9 -10175621.37146  23282183.927    23282183.6094   23282194.7244
        -0.000          -0.000
   9080483.216 9   7097643.39947  22568704.474    22568704.0414   22568714.9674
        -0.000          -0.000
 -23025729.438 9 -17887345.71449  20627092.012    20627092.3314   20627100.8084
        -0.000          -0.000
 99  4  5 19 34 30.0010000  0  7  9  2 24  8  5  7  4                0.000999890
 -22666176.977 9 -17617022.69249  21428193.077    21428193.0814   21428201.9394
        -0.000          -0.000
   9213937.411 8   7197678.32145  23503681.893    23503681.4604   23503695.8284
        -0.000          -0.000
 -17288516.631 9 -11918753.23748  21936509.283    21936509.2714   21936521.0654
        -0.000          -0.000
 -14916304.445 9 -11214738.61846  23036719.987    23036719.6114   23036731.4204
        -0.000          -0.000
 -13198220.429 9 -10238994.97546  23266707.366    23266707.0244   23266718.1434
        -0.000          -0.000
   9144075.160 9   7147195.49047  22580805.750    22580805.3334   22580816.1784
        -0.000          -0.000
 -23035055.444 9 -17894612.70749  20625317.299    20625317.6304   20625326.1114
        -0.000          -0.000
 99  4  5 19 35  0.0010000  0  7  9  2 24  8  5  7  4                0.000999891
 -22674419.975 9 -17623445.82149  21426624.499    21426624.5164   21426633.3744
        -0.000          -0.000
   9283371.281 8   7251782.42445  23516894.694    23516894.3424   23516908.8444
        -0.000          -0.000
 -17372111.021 9 -11983891.59148  21920601.657    21920601.6634   21920613.4524
        -0.000          -0.000
 -14999496.576 9 -11279563.57346  23020888.929    23020888.6304   23020900.4884
        -0.000          -0.000
 -13279521.520 9 -10302346.39746  23251236.249    23251235.9144   23251246.9564
        -0.000          -0.000
   9207677.815 9   7196755.94047  22592909.085    22592908.6544   22592919.3944
        -0.000          -0.000
 -23043794.090 9 -17901422.01749  20623654.355    20623654.6814   20623663.2044
        -0.000          -0.000
 99  4  5 19 35 30.0010000  0  7  9  2 24  8  5  7  4                0.000999902
 -22682135.639 9 -17629458.04349  21425156.272    21425156.2934   21425165.1554
        -0.000          -0.000
   9353082.187 8   7306102.38445  23530160.405    23530160.0794   23530174.5884
        -0.000          -0.000
 -17455350.944 9 -12048753.72448  21904761.551    21904761.5494   21904773.3274
        -0.000          -0.000
 -15082333.981 9 -11344112.12446  23005125.456    23005125.0944   23005136.9954
        -0.000          -0.000
 -13360798.658 9 -10365679.15246  23235769.656    23235769.3914   23235780.3614
        -0.000          -0.000
   9271290.954 9   7246324.56547  22605014.420    22605013.9644   22605024.6284
        -0.000          -0.000
 -23051952.882 9 -17907779.49049  20622101.797    20622102.1364   20622110.6244
        -0.000          -0.000
 99  4  5 19 36  0.0010000  0  7  9  2 24  8  5  7  4                0.000999911
 -22689317.771 9 -17635054.52049  21423789.547    21423789.5594   21423798.3924
        -0.000          -0.000
   9423071.492 8   7360639.28145  23543478.953    23543478.6794   23543493.2704
        -0.000          -0.000
 -17538241.646 9 -12113343.74748  21888987.816    21888987.8094   21888999.5854
        -0.000          -0.000
 -15164815.995 9 -11408383.73846  22989429.532    22989429.1304   22989441.0664
        -0.000          -0.000
 -13442047.936 9 -10428990.21246  23220308.365    23220308.0854   23220319.0574
        -0.000          -0.000
   9334927.518 9   7295911.44447  22617124.122    22617123.6714   22617134.3384
        -0.000          -0.000
 -23059520.091 9 -17913675.99149  20620661.787    20620662.1234   20620670.5764
        -0.000          -0.000
 99  4  5 19 36 30.0010000  0  7  9  2 24  8  5  7  4                0.000999931
 -22695952.277 9 -17640224.27849  21422527.057    21422527.0834   21422535.9094
        -0.000          -0.000
   9493343.112 8   7415396.17945  23556851.354    23556851.0014   23556865.6604
        -0.000          -0.000
 -17620765.694 9 -12177648.07048  21873283.925    21873283.9114   21873295.6414
        -0.000          -0.000
 -15246906.981 9 -11472350.65946  22973808.009    22973807.6144   22973819.6244
        -0.000          -0.000
 -13523261.817 9 -10492273.67746  23204853.800    23204853.5244   23204864.4984
        -0.000          -0.000
   9398615.283 9   7345538.21547  22629243.477    22629243.0514   22629253.7524
        -0.000          -0.000
 -23066489.891 9 -17919106.98849  20619335.462    20619335.8314   20619344.2504
        -0.000          -0.000
 99  4  5 19 37  0.0010000  0  7  9  2 24  8  5  7  4                0.000999940
 -22702049.756 9 -17644975.57249  21421366.800    21421366.8264   21421375.5924
        -0.000          -0.000
   9563861.898 8   7470345.64545  23570270.926    23570270.5214   23570285.1514
        -0.000          -0.000
 -17702944.035 9 -12241683.00848  21857645.815    21857645.8174   21857657.4754
        -0.000          -0.000
 -15328611.992 9 -11536016.82946  22958259.923    22958259.5684   22958271.5384
        -0.000          -0.000
 -13604448.032 9 -10555535.58746  23189404.551    23189404.2794   23189415.2794
        -0.000          -0.000
   9462340.433 9   7395194.12247  22641369.987    22641369.5464   22641380.3524
        -0.000          -0.000
 -23072871.532 9 -17924079.67349  20618121.069    20618121.4024   20618129.8324
        -0.000          -0.000
 99  4  5 19 37 30.0010000  0  7  9  2 24  8  5  7  4                0.000999960
 -22707557.642 9 -17649267.45149  21420318.751    21420318.7524   21420327.4864
        -0.000          -0.000
   9634654.014 8   7525508.11745  23583742.319    23583741.9754   23583756.6094
        -0.000          -0.000
 -17784747.704 9 -12305426.00148  21842079.017    21842079.0134   21842090.5824
        -0.000          -0.000
 -15409865.015 9 -11599330.79546  22942797.910    22942797.5824   22942809.4924
        -0.000          -0.000
 -13685551.919 9 -10618733.34546  23173970.897    23173970.6344   23173981.6794
        -0.000          -0.000
   9526151.449 9   7444916.92947  22653512.787    22653512.3104   22653523.2194
        -0.000          -0.000
 -23078626.001 9 -17928563.66249  20617025.979    20617026.3204   20617034.7454
        -0.000          -0.000
 99  4  5 19 38  0.0010000  0  7  9  2 24  8  5  7  4                0.000999958
 -22712504.208 9 -17653121.93349  21419377.455    21419377.4834   21419386.1894
        -0.000          -0.000
   9705657.643 8   7580835.39445  23597254.034    23597253.6514   23597268.5714
        -0.000          -0.000
 -17866208.509 9 -12368901.83048  21826577.478    21826577.4654   21826588.9484
        -0.000          -0.000
 -15490682.872 9 -11662305.67346  22927418.747    22927418.4094   22927430.3414
        -0.000          -0.000
 -13766612.212 9 -10681897.13346  23158545.552    23158545.2934   23158556.3644
        -0.000          -0.000
   9590007.410 9   7494674.76547  22665664.120    22665663.6684   22665674.6724
        -0.000          -0.000
 -23083792.457 9 -17932589.46049  20616042.840    20616043.1904   20616051.5834
        -0.000          -0.000
 99  4  5 19 38 30.0010000  0  7  9  2 24  8  5  7  4                0.000999960
 -22716867.045 9 -17656521.56449  21418547.268    21418547.2784   21418555.9404
        -0.000          -0.000
   9776912.512 9   7636358.44445  23610813.545    23610813.1544   23610828.1864
        -0.000          -0.000
 -17947289.642 9 -12432081.81448  21811148.158    21811148.1474   21811159.6274
        -0.000          -0.000
 -15571045.066 9 -11724925.48646  22912126.196    22912125.8754   22912137.8274
        -0.000          -0.000
 -13847595.470 9 -10745000.88546  23143134.843    23143134.6024   23143145.7014
        -0.000          -0.000
   9653927.965 9   7544482.93447  22677827.869    22677827.3874   22677838.3834
        -0.000          -0.000
 -23088341.216 9 -17936133.93549  20615177.264    20615177.6004   20615186.0094
        -0.000          -0.000
 99  4  5 19 39  0.0010000  0  7  9  2 24  8  5  7  4                0.000999969
 -22720645.231 9 -17659465.63049  21417828.313    21417828.3364   21417836.9734
        -0.000          -0.000
   9848429.744 8   7692085.94445  23624423.056    23624422.6724   23624437.7054
        -0.000          -0.000
 -18027978.957 9 -12494956.48948  21795793.342    21795793.3464   21795804.8494
        -0.000          -0.000
 -15650965.189 9 -11787200.82846  22896917.815    22896917.5044   22896929.3644
        -0.000          -0.000
 -13928497.117 9 -10808041.03946  23127739.695    23127739.4004   23127750.5854
        -0.000          -0.000
   9717901.971 9   7594332.75147  22690001.792    22690001.3094   22690012.2174
        -0.000          -0.000
 -23092266.902 9 -17939192.90449  20614430.190    20614430.5274   20614438.9634
        -0.000          -0.000
 99  4  5 19 39 30.0010000  0  7  9  2 24  8  5  7  4                0.000999975
 -22723841.966 9 -17661956.61449  21417220.029    21417220.0274   21417228.6794
        -0.000          -0.000
   9920206.999 8   7748016.03045  23638081.988    23638081.4374   23638096.6154
        -0.000          -0.000
 -18108268.170 9 -12557519.40448  21780514.715    21780514.7244   21780526.2094
        -0.000          -0.000
 -15730466.929 9 -11849150.15746  22881789.188    22881788.8374   22881800.6074
        -0.000          -0.000
 -14009336.626 9 -10871032.78147  23112356.374    23112356.0994   23112367.2814
        -0.000          -0.000
   9781908.207 9   7644207.67847  22702181.839    22702181.4074   22702192.1934
        -0.000          -0.000
 -23095576.464 9 -17941771.77349  20613800.404    20613800.7434   20613809.1414
        -0.000          -0.000
 99  4  5 19 40  0.0010000  0  7  9  2 24  8  5  7  4                0.000999987
 -22726440.842 9 -17663981.74049  21416725.456    21416725.4694   21416734.1154
        -0.000          -0.000
   9992270.000 8   7804168.79645  23651795.212    23651794.7934   23651809.9894
        -0.000          -0.000
 -18188123.446 9 -12619744.18848  21765318.747    21765318.7244   21765330.1684
        -0.000          -0.000
 -15809548.960 9 -11910772.44346  22866740.398    22866740.0854   22866751.6514
        -0.000          -0.000
 -14090102.209 9 -10933966.90047  23096987.106    23096986.8394   23096998.0694
        -0.000          -0.000
   9845963.727 9   7694121.00847  22714371.333    22714370.8684   22714381.5614
        -0.000          -0.000
 -23098244.622 9 -17943850.84849  20613292.672    20613293.0144   20613301.3694
        -0.000          -0.000
 99  4  5 19 40 30.0010000  0  7  9  2 24  8  5  7  4                0.000999995
 -22728482.502 9 -17665572.67249  21416336.967    21416336.9584   21416345.6474
        -0.000          -0.000
  10064595.925 8   7860526.43145  23665558.490    23665557.9554   23665573.3374
        -0.000          -0.000
 -18267573.845 9 -12681653.48148  21750199.805    21750199.7704   21750211.1734
        -0.000          -0.000
 -15888240.341 9 -11972090.34846  22851765.883    22851765.5724   22851777.0074
        -0.000          -0.000
 -14170819.448 9 -10996863.37347  23081627.045    23081626.7824   23081638.0074
        -0.000          -0.000
   9910042.750 9   7744052.65647  22726565.263    22726564.8164   22726575.4534
        -0.000          -0.000
 -23100311.345 9 -17945461.27849  20612899.423    20612899.7464   20612908.0884
        -0.000          -0.000
 99  4  5 19 41  0.0010000  0  7  9  2 24  8  5  7  4                0.001000008
 -22729966.733 9 -17666729.24949  21416054.508    21416054.5244   21416063.2864
        -0.000          -0.000
  10137183.451 8   7917087.93645  23679371.596    23679371.1424   23679386.5054
        -0.000          -0.000
 -18346617.552 9 -12743245.87948  21735158.147    21735158.1434   21735169.5044
        -0.000          -0.000
 -15966517.127 9 -12033085.17146  22836870.204    22836869.9044   22836881.3004
        -0.000          -0.000
 -14251476.872 9 -11059713.23247  23066278.340    23066278.0984   23066289.3444
        -0.000          -0.000
   9974160.170 9   7794014.21847  22738766.397    22738765.9504   22738776.6534
        -0.000          -0.000
 -23101779.041 9 -17946604.92349  20612620.110    20612620.4504   20612628.7704
        -0.000          -0.000
 99  4  5 19 41 30.0010000  0  7  9  2 24  8  5  7  4                0.001000025
 -22730890.637 9 -17667449.19849  21415878.709    21415878.7064   21415887.5324
        -0.000          -0.000
  10210029.806 8   7973851.12145  23693233.978    23693233.5944   23693248.7914
        -0.000          -0.000
 -18425253.568 9 -12804520.59548  21720194.117    21720194.1234   21720205.4384
        -0.000          -0.000
 -16044362.716 9 -12093743.99446  22822056.613    22822056.2994   22822067.7184
        -0.000          -0.000
 -14332072.952 9 -11122515.29347  23050941.335    23050941.0864   23050952.3664
        -0.000          -0.000
  10038341.115 9   7844025.27347  22750979.634    22750979.1654   22750989.9904
        -0.000          -0.000
 -23102646.688 9 -17947280.99949  20612454.982    20612455.3244   20612463.6394
        -0.000          -0.000
 99  4  5 19 42  0.0010000  0  7  9  2 24  8  5  7  4                0.001000039
 -22731291.821 9 -17667761.84349  21415802.402    21415802.4184   21415811.2644
        -0.000          -0.000
  10283105.758 8   8030793.19045  23707140.229    23707139.8494   23707154.8494
        -0.000          -0.000
 -18503511.170 9 -12865500.44348  21705302.170    21705302.1624   21705313.4104
        -0.000          -0.000
 -16121790.924 9 -12154077.58146  22807322.529    22807322.1604   22807333.6434
        -0.000          -0.000
 -14412622.913 9 -11185281.41447  23035613.111    23035612.8374   23035624.1454
        -0.000          -0.000
  10102581.359 9   7894082.52747  22763204.122    22763203.6524   22763214.6464
        -0.000          -0.000
 -23102949.869 9 -17947517.23149  20612397.318    20612397.6244   20612405.9574
        -0.000          -0.000
 99  4  5 19 42 30.0010000  0  7  9  2 24  8  5  7  4                0.001000033
 -22731186.606 9 -17667679.88349  21415822.437    21415822.4644   21415831.2864
        -0.000          -0.000
  10356394.068 8   8087900.74945  23721086.710    23721086.2644   23721101.4104
        -0.000          -0.000
 -18581412.018 9 -12926202.30348  21690478.105    21690478.1144   21690489.2674
        -0.000          -0.000
 -16198807.850 9 -12214090.69446  22792666.598    22792666.2654   22792677.7824
        -0.000          -0.000
 -14493131.269 9 -11248015.10747  23020292.867    23020292.6034   23020303.8994
        -0.000          -0.000
  10166870.309 9   7944177.74647  22775437.891    22775437.4334   22775448.5034
        -0.000          -0.000
 -23102692.144 9 -17947316.39449  20612446.310    20612446.6604   20612455.0114
        -0.000          -0.000
 99  4  5 19 43  0.0010000  0  7  9  2 24  8  5  7  4                0.001000011
 -22730533.965 9 -17667171.36349  21415946.650    21415946.6784   21415955.4784
        -0.000          -0.000
  10429916.973 9   8145191.08845  23735077.704    23735077.2274   23735092.6494
        -0.000          -0.000
 -18658921.492 9 -12986599.20148  21675728.488    21675728.4664   21675739.5884
        -0.000          -0.000
 -16275397.215 9 -12273770.62746  22778092.079    22778091.7754   22778103.2354
        -0.000          -0.000
 -14573570.923 9 -11310695.26947  23004985.682    23004985.3904   23004996.6104
        -0.000          -0.000
  10231231.756 9   7994329.44847  22787685.503    22787685.0744   22787696.1644
        -0.000          -0.000
 -23101831.440 9 -17946645.69649  20612610.133    20612610.4674   20612618.7654
        -0.000          -0.000
 99  4  5 19 43 30.0010000  0  7  9  2 24  8  5  7  4                0.000999966
 -22729294.359 9 -17666205.46749  21416182.637    21416182.6354   21416191.4474
        -0.000          -0.000
  10503684.870 8   8202672.33345  23749115.497    23749114.9704   23749130.3904
        -0.000          -0.000
 -18736016.646 9 -13046673.25348  21661057.634    21661057.6724   21661068.7794
        -0.000          -0.000
 -16351544.149 9 -12333105.83246  22763601.745    22763601.4274   22763612.8284
        -0.000          -0.000
 -14653927.775 9 -11373310.92247  22989694.234    22989693.9674   22989705.0664
        -0.000          -0.000
  10295678.619 9   8044547.70847  22799949.387    22799948.9934   22799960.0974
        -0.000          -0.000
 -23100331.041 9 -17945476.53749  20612895.613    20612895.9394   20612904.2424
        -0.000          -0.000
 99  4  5 19 44  0.0010000  0  7  9  2 24  8  5  7  4                0.000999912
 -22727445.433 9 -17664764.77549  21416534.420    21416534.4224   21416543.2964
        -0.000          -0.000
  10577726.114 8   8260366.58945  23763205.154    23763204.7664   23763220.3054
        -0.000          -0.000
 -18812684.865 9 -13106414.62948  21646468.100    21646468.1124   21646479.2414
        -0.000          -0.000
 -16427224.230 9 -12392077.26047  22749200.243    22749199.9564   22749211.2384
        -0.000          -0.000
 -14734183.781 9 -11435847.98747  22974421.982    22974421.7094   22974432.7354
        -0.000          -0.000
  10360213.649 9   8094834.68547  22812230.085    22812229.6724   22812240.7504
        -0.000          -0.000
 -23098169.491 9 -17943792.19849  20613306.930    20613307.2744   20613315.6004
        -0.000          -0.000
 99  4  5 19 44 30.0010000  0  7  9  2 24  8  5  7  4                0.000999863
 -22724954.837 9 -17662824.08549  21417008.334    21417008.3544   21417017.2454
        -0.000          -0.000
  10652066.277 9   8318293.75345  23777351.755    23777351.3724   23777366.8194
        -0.000          -0.000
 -18888896.176 9 -13165799.97448  21631965.503    21631965.5024   21631976.6634
        -0.000          -0.000
 -16502403.428 9 -12450658.38547  22734894.102    22734893.8104   22734905.1064
        -0.000          -0.000
 -14814331.400 9 -11498300.60247  22959170.402    22959170.0684   22959181.0134
        -0.000          -0.000
  10424837.576 9   8145190.92147  22824527.799    22824527.3484   22824538.2984
        -0.000          -0.000
 -23095318.310 9 -17941570.48449  20613849.482    20613849.7994   20613858.1014
        -0.000          -0.000
 99  4  5 19 45  0.0010000  0  7  9  2 24  8  5  7  4                0.000999822
 -22721825.080 9 -17660385.34749  21417603.859    21417603.8914   21417612.8054
        -0.000          -0.000
  10726700.254 9   8376449.86345  23791554.508    23791554.0594   23791569.4114
        -0.000          -0.000
 -18964653.437 9 -13224831.51648  21617549.286    21617549.2824   21617560.4454
        -0.000          -0.000
 -16577084.094 9 -12508851.03947  22720682.807    22720682.5294   22720693.7974
        -0.000          -0.000
 -14894392.442 9 -11560685.74547  22943935.262    22943934.9444   22943945.8274
        -0.000          -0.000
  10489520.499 9   8195593.13447  22836836.631    22836836.1874   22836847.1314
        -0.000          -0.000
 -23091802.928 9 -17938831.21849  20614518.379    20614518.7064   20614527.0574
        -0.000          -0.000
 99  4  5 19 45 30.0010000  0  7  9  2 24  8  5  7  4                0.000999798
 -22718070.316 9 -17657459.59449  21418318.445    21418318.4574   21418327.3494
        -0.000          -0.000
  10801627.430 9   8434834.44846  23805812.892    23805812.4994   23805827.9084
        -0.000          -0.000
 -19039979.278 9 -13283526.88648  21603215.126    21603215.1264   21603226.2854
        -0.000          -0.000
 -16651266.500 9 -12566655.44247  22706566.337    22706566.0114   22706577.2704
        -0.000          -0.000
 -14974384.655 9 -11623017.25447  22928713.135    22928712.9024   22928723.7564
        -0.000          -0.000
  10554243.468 9   8246026.55047  22849153.050    22849152.6414   22849163.5914
        -0.000          -0.000
 -23087656.010 9 -17935599.84549  20615307.461    20615307.7994   20615316.1814
        -0.000          -0.000
 99  4  5 19 46  0.0010000  0  7  9  2 24  8  5  7  4                0.000999800
 -22713728.885 9 -17654076.69849  21419144.674    21419144.6654   21419153.5374
        -0.000          -0.000
  10876840.388 9   8493441.70346  23820125.659    23820125.1404   23820140.5504
        -0.000          -0.000
 -19114892.586 9 -13341900.80748  21588959.508    21588959.5354   21588970.6714
        -0.000          -0.000
 -16724974.828 9 -12624090.43247  22692540.073    22692539.7114   22692550.9804
        -0.000          -0.000
 -15054324.481 9 -11685307.94247  22913501.067    22913500.8134   22913511.7074
        -0.000          -0.000
  10618979.772 9   8296470.36547  22861471.957    22861471.5524   22861482.5434
        -0.000          -0.000
 -23082925.479 9 -17931913.70749  20616207.657    20616208.0064   20616216.3674
        -0.000          -0.000
 99  4  5 19 46 30.0010000  0  7  9  2 24  8  5  7  4                0.000999832
 -22708820.613 9 -17650252.10849  21420078.684    21420078.6684   21420087.5664
        -0.000          -0.000
  10952329.001 9   8552263.76446  23834490.854    23834490.3354   23834505.8164
        -0.000          -0.000
 -19189393.666 9 -13399953.50648  21574782.318    21574782.3394   21574793.4464
        -0.000          -0.000
 -16798222.212 9 -12681166.25147  22678601.492    22678601.1114   22678612.5014
        -0.000          -0.000
 -15134198.125 9 -11747547.05747  22898301.639    22898301.3264   22898312.1784
        -0.000          -0.000
  10683717.608 9   8346915.37147  22873791.179    22873790.7744   22873801.7714
        -0.000          -0.000
 -23077628.757 9 -17927786.38449  20617215.627    20617215.9584   20617224.3144
        -0.000          -0.000
 99  4  5 19 47  0.0010000  0  7  9  2 24  8  5  7  4                0.000999876
 -22703392.608 9 -17646022.53049  21421111.572    21421111.5934   21421120.5244
        -0.000          -0.000
  11028055.003 9   8611270.80046  23848901.150    23848900.6794   23848916.2284
        -0.000          -0.000
 -19263535.526 9 -13457726.30048  21560673.480    21560673.4774   21560684.5564
        -0.000          -0.000
 -16871052.052 9 -12737916.70847  22664742.242    22664741.9064   22664753.4254
        -0.000          -0.000
 -15214027.814 9 -11809751.93247  22883110.478    22883110.1624   22883120.9914
        -0.000          -0.000
  10748417.746 9   8397331.00447  22886103.214    22886102.7914   22886113.8684
        -0.000          -0.000
 -23071818.014 9 -17923258.52749  20618321.394    20618321.7134   20618330.0824
        -0.000          -0.000
 99  4  5 19 47 30.0010000  0  7  9  2 24  8  5  7  4                0.000999930
 -22697468.172 9 -17641406.12749  21422238.987    21422238.9924   21422247.9134
        -0.000          -0.000
  11104005.391 9   8670452.67245  23863354.193    23863353.7144   23863369.3764
        -0.000          -0.000
 -19337317.767 9 -13515218.87548  21546633.054    21546633.0664   21546644.1224
        -0.000          -0.000
 -16943471.350 9 -12794347.26547  22650961.241    22650960.9364   22650972.4294
        -0.000          -0.000
 -15293799.806 9 -11871911.84447  22867930.330    22867930.0114   22867940.8054
        -0.000          -0.000
  10813087.251 9   8447722.76847  22898409.395    22898409.0114   22898420.1124
        -0.000          -0.000
 -23065499.339 9 -17918334.88049  20619523.758    20619524.0814   20619532.4454
        -0.000          -0.000
 99  4  5 19 48  0.0010000  0  7  9  2 24  8  5  7  4                0.000999983
 -22691072.149 9 -17636422.25349  21423456.141    21423456.1504   21423465.0854
        -0.000          -0.000
  11180166.662 9   8729798.87045  23877847.384    23877846.8804   23877862.6074
        -0.000          -0.000
 -19410738.513 9 -13572429.75648  21532661.514    21532661.5394   21532672.5774
        -0.000          -0.000
 -17015488.512 9 -12850464.46747  22637256.834    22637256.4744   22637267.9564
        -0.000          -0.000
 -15373503.630 9 -11934018.63447  22852763.185    22852762.8514   22852773.6114
        -0.000          -0.000
  10877714.287 9   8498081.44547  22910707.525    22910707.1484   22910718.3104
        -0.000          -0.000
 -23058663.261 9 -17913008.06249  20620824.562    20620824.8904   20620833.2684
        -0.000          -0.000
 99  4  5 19 48 30.0010000  0  7  9  2 24  8  5  7  4                0.001000020
 -22684187.947 9 -17631057.97749  21424766.167    21424766.1834   21424775.1354
        -0.000          -0.000
  11256534.578 9   8789306.09245  23892379.833    23892379.3794   23892395.2244
        -0.000          -0.000
 -19483788.266 9 -13629351.55748  21518760.529    21518760.5724   21518771.5984
        -0.000          -0.000
 -17087092.193 9 -12906259.47447  22623631.036    22623630.6974   22623642.1154
        -0.000          -0.000
 -15453134.329 9 -11996068.45347  22837609.882    22837609.5524   22837620.2274
        -0.000          -0.000
  10942303.023 9   8548410.27647  22922998.368    22922997.9594   22923009.1844
        -0.000          -0.000
 -23051284.459 9 -17907258.33849  20622228.706    20622229.0584   20622237.3924
        -0.000          -0.000
 99  4  5 19 49  0.0010000  0  7  9  2 24  8  5  7  4                0.001000054
 -22676758.273 9 -17625268.65749  21426180.046    21426180.0644   21426189.0244
        -0.000          -0.000
  11333140.903 9   8848999.08345  23906957.699    23906957.2574   23906973.1664
        -0.000          -0.000
 -19556411.033 9 -13685940.63548  21504940.860    21504940.8794   21504951.8924
        -0.000          -0.000
 -17158231.114 9 -12961692.32447  22610093.773    22610093.4484   22610104.7864
        -0.000          -0.000
 -15532657.476 9 -12058034.46647  22822477.043    22822476.7584   22822487.4314
        -0.000          -0.000
  11006906.512 9   8598750.60947  22935292.039    22935291.6384   22935302.9004
        -0.000          -0.000
 -23043304.751 9 -17901040.37449  20623747.215    20623747.5374   20623755.8504
        -0.000          -0.000
 99  4  5 19 49 30.0010000  0  7  9  2 24  8  5  7  4                0.001000060
 -22668807.212 9 -17619073.06949  21427693.135    21427693.1464   21427702.0884
        -0.000          -0.000
  11409956.237 9   8908854.94245  23921575.424    23921574.9784   23921591.0344
        -0.000          -0.000
 -19628608.720 9 -13742198.48448  21491202.093    21491202.0904   21491213.0984
        -0.000          -0.000
 -17228927.290 9 -13016780.17547  22596640.744    22596640.3814   22596651.7044
        -0.000          -0.000
 -15612087.341 9 -12119927.78447  22807361.995    22807361.7024   22807372.3574
        -0.000          -0.000
  11071527.037 9   8649104.20247  22947588.984    22947588.5754   22947599.8594
        -0.000          -0.000
 -23034728.255 9 -17894357.38349  20625379.235    20625379.5874   20625387.8674
        -0.000          -0.000
 99  4  5 19 50  0.0010000  0  7  9  2 24  8  5  7  4                0.001000041
 -22660285.462 9 -17612432.78649  21429314.845    21429314.8644   21429323.8114
        -0.000          -0.000
  11487013.649 8   8968899.41845  23936239.142    23936238.7264   23936254.8124
        -0.000          -0.000
 -19700356.394 9 -13798105.67248  21477548.899    21477548.9024   21477559.8814
        -0.000          -0.000
 -17299142.816 9 -13071493.50047  22583279.117    22583278.7714   22583290.0504
        -0.000          -0.000
 -15691417.282 9 -12181743.23147  22792265.943    22792265.6734   22792276.3724
        -0.000          -0.000
  11136204.016 9   8699501.79347  22959896.638    22959896.2054   22959907.5464
        -0.000          -0.000
 -23025505.192 9 -17887170.57349  20627134.340    20627134.6924   20627142.9454
        -0.000          -0.000
 99  4  5 19 50 30.0010000  0  7  9  2 24  8  5  7  4                0.001000007
 -22651146.106 9 -17605311.24449  21431054.071    21431054.0604   21431063.0694
        -0.000          -0.000
  11564335.273 9   9029149.77045  23950953.123    23950952.7304   23950968.8774
        -0.000          -0.000
 -19771616.931 9 -13853633.27048  21463988.479    21463988.4804   21463999.4214
        -0.000          -0.000
 -17368839.605 9 -13125802.60847  22570016.231    22570015.8634   22570027.0614
        -0.000          -0.000
 -15770626.436 9 -12243464.55947  22777192.854    22777192.5884   22777203.3644
        -0.000          -0.000
  11200985.129 9   8749980.53447  22972224.107    22972223.6904   22972234.9704
        -0.000          -0.000
 -23015601.955 9 -17879453.75649  20629018.878    20629019.2274   20629027.4404
        -0.000          -0.000
 99  4  5 19 51  0.0010000  0  7  9  2 24  8  5  7  4                0.000999984
 -22641373.404 9 -17597696.18949  21432913.752    21432913.7824   21432922.8304
        -0.000          -0.000
  11641951.290 8   9089629.51345  23965723.142    23965722.7254   23965738.8524
        -0.000          -0.000
 -19842363.456 9 -13908760.34148  21450525.840    21450525.8304   21450536.6854
        -0.000          -0.000
 -17437982.791 9 -13179680.35047  22556858.671    22556858.3014   22556869.3754
        -0.000          -0.000
 -15849689.365 9 -12305071.95947  22762147.543    22762147.2644   22762158.0804
        -0.000          -0.000
  11265915.598 9   8800575.66747  22984580.001    22984579.5474   22984590.8644
        -0.000          -0.000
 -23005001.653 9 -17871193.77649  20631036.042    20631036.3814   20631044.5964
        -0.000          -0.000
 99  4  5 19 51 30.0010000  0  7  9  2 24  8  5  7  4                0.000999965
 -22630990.517 9 -17589605.67049  21434889.672    21434889.6754   21434898.7134
        -0.000          -0.000
  11719853.094 8   9150331.96345  23980547.465    23980547.1324   23980563.3904
        -0.000          -0.000
 -19912629.012 9 -13963512.62748  21437154.741    21437154.7174   21437165.5024
        -0.000          -0.000
 -17506592.049 9 -13233142.04347  22543802.768    22543802.3904   22543813.3584
        -0.000          -0.000
 -15928644.023 9 -12366594.98247  22747122.929    22747122.6154   22747133.4154
        -0.000          -0.000
  11330975.118 9   8851271.34247  22996960.487    22996959.9864   22996971.3494
        -0.000          -0.000
 -22993733.306 9 -17862413.23749  20633180.338    20633180.6864   20633188.9244
        -0.000          -0.000
 99  4  5 19 52  0.0010000  0  7  9  2 24  8  5  7  4                0.000999947
 -22620009.072 9 -17581048.73849  21436979.397    21436979.3984   21436988.4574
        -0.000          -0.000
  11798030.220 8   9211248.94745  23995424.196    23995423.9034   23995440.2374
        -0.000          -0.000
 -19982441.032 9 -14017911.50448  21423869.886    21423869.8644   21423880.5954
        -0.000          -0.000
 -17574675.100 9 -13286193.71647  22530846.968    22530846.6104   22530857.4954
        -0.000          -0.000
 -16007516.761 9 -12428054.17847  22732113.904    22732113.5954   22732124.3524
        -0.000          -0.000
  11396128.438 9   8902040.11847  23009358.822    23009358.3524   23009369.6454
        -0.000          -0.000
 -22981823.523 9 -17853132.88049  20635446.677    20635447.0074   20635455.2984
        -0.000          -0.000
 99  4  5 19 52 30.0010000  0  7  9  2 24  8  5  7  4                0.000999938
 -22608464.096 9 -17572052.69049  21439176.324    21439176.3374   21439185.4264
        -0.000          -0.000
  11876462.262 8   9272364.55645  24010349.550    24010349.1604   24010365.6534
        -0.000          -0.000
 -20051817.768 9 -14071971.20448  21410667.864    21410667.8334   21410678.5644
        -0.000          -0.000
 -17642252.439 9 -13338851.31047  22517987.340    22517986.9924   22517997.8644
        -0.000          -0.000
 -16086305.661 9 -12489448.04747  22717120.795    22717120.4554   22717131.2244
        -0.000          -0.000
  11461339.995 9   8952854.27047  23021768.214    23021767.7324   23021779.0984
        -0.000          -0.000
 -22969323.407 9 -17843392.52149  20637825.349    20637825.7014   20637834.0064
        -0.000          -0.000
 99  4  5 19 53  0.0010000  0  7  9  2 24  8  5  7  4                0.000999941
 -22596367.837 9 -17562627.07149  21441478.226    21441478.2434   21441487.3634
        -0.000          -0.000
  11955146.318 8   9333676.55045  24025322.863    24025322.5154   24025338.9764
        -0.000          -0.000
 -20120772.982 9 -14125702.44848  21397546.005    21397545.9874   21397556.7334
        -0.000          -0.000
 -17709331.484 9 -13391120.63047  22505222.637    22505222.2784   22505233.1144
        -0.000          -0.000
 -16165019.269 9 -12550783.24247  22702141.963    22702141.6344   22702152.4444
        -0.000          -0.000
  11526580.604 9   9003691.05947  23034183.144    23034182.6374   23034194.0774
        -0.000          -0.000
 -22956255.707 9 -17833209.88749  20640312.046    20640312.3994   20640320.6944
        -0.000          -0.000
 99  4  5 19 53 30.0010000  0  7  9  2 24  8  5  7  4                0.000999948
 -22583716.183 9 -17552768.67949  21443885.775    21443885.7974   21443894.9204
        -0.000          -0.000
  12034072.144 8   9395176.92445  24040342.161    24040341.8474   24040358.3364
        -0.000          -0.000
 -20189303.624 9 -14179102.85748  21384504.980    21384504.9664   21384515.7044
        -0.000          -0.000
 -17775925.372 9 -13443011.91147  22492550.311    22492549.9424   22492560.6564
        -0.000          -0.000
 -16243643.760 9 -12612049.00947  22687180.114    22687179.8024   22687190.6274
        -0.000          -0.000
  11591824.301 9   9054530.24747  23046598.601    23046598.1424   23046609.6204
        -0.000          -0.000
 -22942617.393 9 -17822582.62249  20642907.336    20642907.6924   20642915.9724
        -0.000          -0.000
